[[{"header":{"parameterUnit":"m.s-1","parameterCategory":1,"la1":31.0,"la2":29.5877,"lo1":-88.7671,"lo2":-86.6584,"dy":0.0162,"dx":0.0185,"nx":115,"ny":88,"refTime":"2023-08-12T06:00:00:Z","depth":0,"parameterNumber":2,"parameterNumberName":"U-component_of_WINDS"},"data":[0.0,0.0,0.0,0.0,0.0,0.0,0.0,0.0,0.0,0.0,0.0,0.0,0.0,0.0,0.0,0.0,0.0,0.0,0.0,0.0,0.0,0.0,0.0,0.0,0.0,0.0,0.0,0.0,0.0,0.0,0.0,0.0,0.0,0.0,0.0,0.0,0.0,0.0,0.0,0.0,0.0,0.0,0.0,0.0,0.0,0.0,0.0,0.0,0.0,0.0,0.0,0.0,0.0,0.0,0.0,0.0,0.0,0.0,0.0,0.0,0.0,0.0,0.0,0.0,0.0,0.0,0.0,0.0,0.0,0.0,0.0,0.0,0.0,0.0,0.0,0.0,0.0,0.0,0.0,0.0,0.0,0.0,0.0,0.0,0.0,0.0,0.0,0.0,0.0,0.0,0.0,0.0,0.0,0.0,0.0,0.0,0.0,0.0,0.0,0.0,0.0,0.0,0.0,0.0,0.0,0.0,0.0,0.0,0.0,0.0,0.0,0.0,0.0,0.0,0.0,0.0,0.0,0.0,0.0,0.0,0.0,0.0,0.0,0.0,0.0,0.0,0.0,0.0,0.0,0.0,0.0,0.0,0.0,0.0,0.0,0.0,0.0,0.0,0.0,0.0,0.0,0.0,0.0,0.0,0.0,0.0,0.0,0.0,0.0,0.0,0.0,0.0,0.0,0.0,0.0,0.0,0.0,0.0,0.0,0.0,0.0,0.0,0.0,0.0,0.0,0.0,0.0,0.0,0.0,0.0,0.0,0.0,0.0,0.0,0.0,0.0,0.0,0.0,0.0,0.0,0.0,0.0,0.0,0.0,0.0,0.0,0.0,0.0,0.0,0.0,0.0,0.0,0.0,0.0,0.0,0.0,0.0,0.0,0.0,0.0,0.0,0.0,0.0,0.0,0.0,0.0,0.0,0.0,0.0,0.0,0.0,0.0,0.0,0.0,0.0,0.0,0.0,0.0,0.0,0.0,0.0,0.0,0.0,0.0,0.0,0.0,0.0,0.0,0.0,0.0,0.0,0.0,0.0,0.0,0.0,0.0,0.0,0.0,0.0,0.0,0.0,0.0,0.0,0.0,0.0,0.0,0.0,0.0,0.0,0.0,0.0,0.0,0.0,0.0,0.0,0.0,0.0,0.0,0.0,0.0,0.0,0.0,0.0,0.0,0.0,0.0,0.0,0.0,0.0,0.0,0.0,0.0,0.0,0.0,0.0,0.0,0.0,0.0,0.0,0.0,0.0,0.0,0.0,0.0,0.0,0.0,0.0,0.0,0.0,0.0,0.0,0.0,0.0,0.0,0.0,0.0,0.0,0.0,0.0,0.0,0.0,0.0,0.0,0.0,0.0,0.0,0.0,0.0,0.0,0.0,0.0,0.0,0.0,0.0,0.0,0.0,0.0,0.0,0.0,0.0,0.0,0.0,0.0,0.0,0.0,0.0,0.0,0.0,0.0,0.0,0.0,0.0,0.0,0.0,0.0,0.0,0.0,0.0,0.0,0.0,0.0,0.0,0.0,0.0,0.0,0.0,0.0,0.0,0.0,0.0,0.0,0.0,0.0,0.0,0.0,0.0,0.0,0.0,0.0,0.0,0.0,0.0,0.0,0.0,0.0,0.0,0.0,0.0,0.0,0.0,0.0,0.0,0.0,0.0,0.0,0.0,0.0,0.0,0.0,0.0,0.0,0.0,0.0,0.0,0.0,0.0,0.0,0.0,0.0,0.0,0.0,0.0,0.0,0.0,0.0,0.0,0.0,0.0,0.0,0.0,0.0,0.0,0.0,0.0,0.0,0.0,0.0,0.0,0.0,0.0,0.0,0.0,0.0,0.0,0.0,0.0,0.0,0.0,0.0,0.0,0.0,0.0,0.0,0.0,0.0,0.0,0.0,0.0,0.0,0.0,0.0,0.0,0.0,0.0,0.0,0.0,0.0,0.0,0.0,0.0,0.0,0.0,0.0,0.0,0.0,0.0,0.0,0.0,0.0,0.0,0.0,0.0,0.0,0.0,0.0,0.0,0.0,0.0,0.0,0.0,0.0,0.0,0.0,0.0,0.0,0.0,0.0,0.0,0.0,0.0,0.0,0.0,0.0,0.0,0.0,0.0,0.0,0.0,0.0,0.0,0.0,0.0,0.0,0.0,0.0,0.0,0.0,0.0,0.0,0.0,0.0,0.0,0.0,0.0,0.0,0.0,0.0,0.0,0.0,0.0,0.0,0.0,0.0,0.0,0.0,0.0,0.0,0.0,0.0,0.0,0.0,0.0,0.0,0.0,0.0,0.0,0.0,0.0,0.0,0.0,0.0,0.0,0.0,0.0,0.0,0.0,0.0,0.0,0.0,0.0,0.0,0.0,0.0,0.0,0.0,0.0,0.0,0.0,0.0,0.0,0.0,0.0,0.0,0.0,0.0,0.0,0.0,0.0,0.0,0.0,0.0,0.0,0.0,0.0,0.0,0.0,0.0,0.0,0.0,0.0,0.0,0.0,0.0,0.0,0.0,0.0,0.0,0.0,0.0,0.0,0.0,0.0,0.0,0.0,0.0,0.0,0.0,0.0,0.0,0.0,0.0,0.0,0.0,0.0,0.0,0.0,0.0,0.0,0.0,0.0,0.0,0.0,0.0,0.0,0.0,0.0,0.0,0.0,0.0,0.0,0.0,0.0,0.0,0.0,0.0,0.0,0.0,0.0,0.0,0.0,0.0,0.0,0.0,0.0,0.0,0.0,0.0,0.0,0.0,0.0,0.0,0.0,0.0,0.0,0.0,0.0,0.0,0.0,0.0,0.0,0.0,0.0,0.0,0.0,0.0,0.0,0.0,0.0,0.0,0.0,0.0,0.0,0.0,0.0,0.0,0.0,0.0,0.0,0.0,0.0,0.0,0.0,0.0,0.0,0.0,0.0,0.0,0.0,0.0,0.0,0.0,0.0,0.0,0.0,0.0,0.0,0.0,0.0,0.0,0.0,0.0,0.0,0.0,0.0,0.0,0.0,0.0,0.0,0.0,0.0,0.0,0.0,0.0,0.0,0.0,0.0,0.0,0.0,0.0,0.0,0.0,0.0,0.0,0.0,0.0,0.0,0.0,0.0,0.0,0.0,0.0,0.0,0.0,0.0,0.0,0.0,0.0,0.0,0.0,0.0,0.0,0.0,0.0,0.0,0.0,0.0,0.0,0.0,0.0,0.0,0.0,0.0,0.0,0.0,0.0,0.0,0.0,0.0,0.0,0.0,0.0,0.0,0.0,0.0,0.0,0.0,0.0,0.0,0.0,0.0,0.0,0.0,0.0,0.0,0.0,0.0,0.0,0.0,0.0,0.0,0.0,0.0,0.0,0.0,0.0,0.0,0.0,0.0,0.0,0.0,0.0,0.0,0.0,0.0,0.0,0.0,0.0,0.0,0.0,0.0,0.0,0.0,0.0,0.0,0.0,0.0,0.0,0.0,0.0,0.0,0.0,0.0,0.0,0.0,0.0,0.0,0.0,0.0,0.0,0.0,0.0,0.0,0.0,0.0,0.0,0.0,0.0,0.0,0.0,0.0,0.0,0.0,0.0,0.0,0.0,0.0,0.0,0.0,0.0,0.0,0.0,0.0,0.0,0.0,0.0,0.0,0.0,0.0,0.0,0.0,0.0,0.0,0.0,0.0,0.0,0.0,0.0,0.0,0.0,0.0,0.0,0.0,0.0,0.0,0.0,0.0,0.0,0.0,0.0,0.0,0.0,0.0,0.0,0.0,0.0,0.0,0.0,0.0,0.0,0.0,0.0,0.0,0.0,0.0,0.0,0.0,0.0,0.0,0.0,0.0,0.0,0.0,0.0,0.0,0.0,0.0,0.0,0.0,0.0,0.0,0.0,0.0,0.0,0.0,0.0,0.0,0.0,0.0,0.0,0.0,0.0,0.0,0.0,0.0,0.0,0.0,0.0,0.0,0.0,0.0,0.0,0.0,0.0,0.0,0.0,0.0,0.0,0.0,0.0,0.0,0.0,0.0,0.0,0.0,0.0,0.0,0.0,0.0,0.0,0.0,0.0,0.0,0.0,0.0,0.0,0.0,0.0,0.0,0.0,0.0,0.0,0.0,0.0,0.0,0.0,0.0,0.0,0.0,0.0,0.0,0.0,0.0,0.0,0.0,0.0,0.0,0.0,0.0,0.0,0.0,0.0,0.0,0.0,0.0,0.0,0.0,0.0,0.0,0.0,0.0,0.0,0.0,0.0,0.0,0.0,0.0,0.0,0.0,0.0,0.0,0.0,0.0,0.0,0.0,0.0,0.0,-1.4606,0.0,0.0,0.0,0.0,0.0,0.0,0.0,0.0,0.0,0.0,0.0,0.0,0.0,0.0,0.0,0.0,0.0,0.0,0.0,0.0,0.0,0.0,0.0,0.0,0.0,0.0,0.0,0.0,0.0,0.0,0.0,0.0,0.0,0.0,0.0,0.0,0.0,0.0,0.0,0.0,0.0,0.0,0.0,0.0,0.0,0.0,0.0,0.0,0.0,0.0,0.0,0.0,0.0,0.0,0.0,0.0,0.0,0.0,0.0,0.0,0.0,0.0,0.0,0.0,0.0,0.0,0.0,0.0,0.0,0.0,0.0,0.0,0.0,0.0,0.0,0.0,0.0,0.0,0.0,0.0,0.0,0.0,0.0,0.0,0.0,0.0,0.0,0.0,0.0,0.0,0.0,0.0,0.0,0.0,0.0,0.0,0.0,0.0,0.0,0.0,0.0,0.0,0.0,0.0,0.0,0.0,0.0,0.0,0.0,0.0,-1.5033,-1.5099,-1.4646,-1.4523,-1.4797,0.0,0.0,0.0,0.0,0.0,0.0,0.0,0.0,0.0,0.0,0.0,0.0,0.0,0.0,0.0,0.0,0.0,0.0,0.0,0.0,0.0,0.0,0.0,0.0,0.0,0.0,0.0,0.0,0.0,0.0,0.0,0.0,0.0,0.0,0.0,0.0,0.0,0.0,0.0,0.0,0.0,0.0,0.0,0.0,0.0,0.0,0.0,0.0,0.0,0.0,0.0,0.0,0.0,0.0,0.0,0.0,0.0,0.0,0.0,0.0,0.0,0.0,0.0,0.0,0.0,0.0,0.0,0.0,0.0,0.0,0.0,0.0,0.0,0.0,0.0,0.0,0.0,0.0,0.0,0.0,0.0,0.0,0.0,0.0,0.0,0.0,0.0,0.0,0.0,0.0,0.0,0.0,0.0,0.0,0.0,0.0,0.0,0.0,0.0,0.0,0.0,0.0,0.0,0.0,0.0,0.0,0.0,0.0,0.0,0.0,0.0,0.0,-1.4724,-1.4661,-1.4916,0.0,0.0,0.0,0.0,0.0,0.0,0.0,0.0,0.0,0.0,0.0,0.0,0.0,0.0,0.0,0.0,0.0,0.0,0.0,0.0,0.0,0.0,0.0,0.0,0.0,0.0,0.0,0.0,0.0,0.0,0.0,0.0,0.0,0.0,0.0,0.0,0.0,0.0,0.0,0.0,0.0,0.0,0.0,0.0,0.0,0.0,0.0,0.0,0.0,0.0,0.0,0.0,0.0,0.0,0.0,0.0,0.0,0.0,0.0,0.0,0.0,0.0,0.0,0.0,0.0,0.0,0.0,0.0,0.0,0.0,0.0,0.0,0.0,0.0,0.0,0.0,0.0,0.0,0.0,0.0,0.0,0.0,0.0,0.0,0.0,0.0,0.0,0.0,0.0,0.0,0.0,0.0,0.0,0.0,0.0,0.0,0.0,0.0,0.0,0.0,0.0,0.0,0.0,0.0,0.0,0.0,0.0,0.0,0.0,0.0,-1.5291,-1.5291,-1.5173,0.0,-1.509,0.0,0.0,0.0,0.0,0.0,0.0,0.0,0.0,0.0,0.0,0.0,0.0,0.0,0.0,0.0,0.0,0.0,0.0,0.0,0.0,0.0,0.0,0.0,0.0,0.0,0.0,0.0,0.0,0.0,0.0,0.0,0.0,0.0,0.0,0.0,0.0,0.0,0.0,0.0,0.0,0.0,0.0,0.0,0.0,0.0,0.0,0.0,0.0,0.0,0.0,0.0,0.0,0.0,0.0,0.0,0.0,0.0,0.0,0.0,0.0,0.0,0.0,0.0,0.0,0.0,0.0,0.0,0.0,0.0,0.0,0.0,0.0,0.0,0.0,0.0,0.0,0.0,0.0,0.0,0.0,0.0,0.0,0.0,0.0,0.0,0.0,0.0,0.0,0.0,0.0,0.0,0.0,0.0,0.0,0.0,0.0,0.0,0.0,0.0,0.0,0.0,0.0,0.0,0.0,0.0,0.0,0.0,0.0,0.0,0.0,-1.6191,-1.6703,-1.6282,-1.5778,0.0,0.0,0.0,0.0,0.0,0.0,0.0,0.0,0.0,0.0,0.0,0.0,0.0,0.0,0.0,0.0,0.0,0.0,0.0,0.0,0.0,0.0,0.0,0.0,0.0,0.0,0.0,0.0,0.0,0.0,0.0,0.0,0.0,0.0,0.0,0.0,0.0,0.0,0.0,0.0,0.0,0.0,0.0,0.0,0.0,0.0,0.0,0.0,0.0,0.0,0.0,0.0,0.0,0.0,0.0,0.0,0.0,0.0,0.0,0.0,0.0,0.0,0.0,0.0,0.0,0.0,0.0,0.0,0.0,0.0,0.0,0.0,0.0,0.0,0.0,0.0,0.0,0.0,0.0,0.0,0.0,0.0,0.0,0.0,0.0,0.0,0.0,0.0,0.0,0.0,0.0,0.0,0.0,0.0,0.0,0.0,0.0,0.0,0.0,0.0,0.0,0.0,0.0,0.0,0.0,0.0,0.0,0.0,0.0,0.0,-1.6948,-1.7028,-1.7625,-1.6966,-1.6293,-1.5662,0.0,0.0,0.0,0.0,0.0,0.0,0.0,0.0,0.0,0.0,0.0,0.0,0.0,0.0,0.0,0.0,0.0,0.0,0.0,0.0,0.0,0.0,0.0,0.0,0.0,0.0,0.0,0.0,0.0,0.0,0.0,0.0,0.0,0.0,0.0,0.0,0.0,0.0,0.0,0.0,0.0,0.0,0.0,0.0,0.0,0.0,0.0,0.0,0.0,0.0,0.0,0.0,0.0,0.0,0.0,0.0,0.0,0.0,0.0,0.0,0.0,0.0,0.0,0.0,0.0,0.0,0.0,0.0,0.0,0.0,0.0,0.0,0.0,0.0,0.0,0.0,0.0,0.0,0.0,0.0,0.0,0.0,0.0,0.0,0.0,0.0,0.0,0.0,0.0,0.0,0.0,0.0,0.0,0.0,0.0,0.0,0.0,0.0,0.0,0.0,0.0,0.0,0.0,0.0,0.0,0.0,0.0,0.0,-1.7346,-1.7415,-1.7535,-1.7619,-1.6919,-1.6495,0.0,0.0,0.0,0.0,0.0,0.0,0.0,0.0,0.0,0.0,0.0,0.0,0.0,0.0,0.0,0.0,0.0,0.0,0.0,0.0,0.0,0.0,0.0,0.0,0.0,0.0,0.0,0.0,0.0,0.0,0.0,0.0,0.0,0.0,0.0,0.0,0.0,0.0,0.0,0.0,0.0,0.0,0.0,0.0,0.0,0.0,0.0,0.0,0.0,0.0,0.0,0.0,0.0,0.0,0.0,0.0,0.0,0.0,0.0,0.0,0.0,0.0,0.0,0.0,0.0,0.0,0.0,0.0,0.0,0.0,0.0,0.0,0.0,0.0,0.0,0.0,0.0,0.0,0.0,0.0,0.0,0.0,0.0,0.0,0.0,0.0,0.0,0.0,0.0,0.0,0.0,0.0,0.0,0.0,0.0,0.0,0.0,0.0,0.0,0.0,0.0,0.0,0.0,0.0,0.0,0.0,0.0,0.0,0.0,-1.8618,-1.8324,-1.7454,-1.6117,-1.6292,-1.6206,0.0,0.0,0.0,0.0,0.0,0.0,0.0,0.0,0.0,0.0,0.0,0.0,0.0,0.0,0.0,0.0,0.0,0.0,0.0,0.0,0.0,0.0,0.0,0.0,0.0,0.0,0.0,0.0,0.0,0.0,0.0,0.0,0.0,0.0,0.0,0.0,0.0,0.0,0.0,0.0,0.0,0.0,0.0,0.0,0.0,0.0,0.0,0.0,0.0,0.0,0.0,0.0,0.0,0.0,0.0,0.0,0.0,0.0,0.0,0.0,0.0,0.0,0.0,0.0,0.0,0.0,0.0,0.0,0.0,0.0,0.0,0.0,0.0,0.0,0.0,0.0,0.0,0.0,0.0,0.0,0.0,0.0,0.0,0.0,0.0,0.0,0.0,0.0,0.0,0.0,0.0,0.0,0.0,0.0,0.0,0.0,0.0,0.0,0.0,0.0,0.0,0.0,0.0,0.0,0.0,0.0,0.0,0.0,0.0,-1.9271,0.0,-1.7363,-1.6223,-1.6189,-1.5998,0.0,0.0,0.0,0.0,0.0,0.0,0.0,0.0,0.0,0.0,0.0,0.0,0.0,0.0,0.0,0.0,0.0,0.0,0.0,0.0,0.0,0.0,0.0,0.0,0.0,0.0,0.0,0.0,0.0,0.0,0.0,0.0,0.0,0.0,0.0,0.0,0.0,0.0,0.0,0.0,0.0,0.0,0.0,0.0,0.0,0.0,0.0,0.0,0.0,0.0,0.0,0.0,0.0,0.0,0.0,0.0,0.0,0.0,0.0,0.0,0.0,0.0,0.0,0.0,0.0,0.0,0.0,0.0,0.0,0.0,0.0,0.0,0.0,0.0,0.0,0.0,0.0,0.0,0.0,0.0,0.0,0.0,0.0,0.0,0.0,0.0,0.0,0.0,0.0,0.0,0.0,0.0,0.0,0.0,0.0,0.0,0.0,0.0,0.0,0.0,0.0,0.0,0.0,0.0,0.0,0.0,0.0,0.0,-1.9048,-1.9018,-1.7679,-1.7346,-1.8167,-1.6676,-1.5948,0.0,0.0,0.0,0.0,0.0,0.0,0.0,0.0,0.0,0.0,0.0,0.0,0.0,0.0,0.0,0.0,0.0,0.0,0.0,0.0,0.0,0.0,0.0,0.0,0.0,0.0,0.0,0.0,0.0,0.0,0.0,0.0,0.0,0.0,0.0,0.0,0.0,0.0,0.0,0.0,0.0,0.0,0.0,0.0,0.0,0.0,0.0,0.0,0.0,0.0,0.0,0.0,0.0,0.0,0.0,0.0,0.0,0.0,0.0,0.0,0.0,0.0,0.0,0.0,0.0,0.0,0.0,0.0,0.0,0.0,0.0,0.0,0.0,0.0,0.0,0.0,0.0,0.0,0.0,0.0,0.0,0.0,0.0,0.0,0.0,0.0,0.0,0.0,0.0,0.0,0.0,0.0,0.0,0.0,0.0,0.0,0.0,0.0,0.0,0.0,0.0,0.0,0.0,0.0,0.0,0.0,0.0,0.0,0.0,-1.7981,-1.7549,-1.7232,-1.7042,-1.6073,-1.5613,0.0,0.0,0.0,0.0,0.0,0.0,0.0,0.0,0.0,0.0,0.0,0.0,0.0,0.0,0.0,0.0,0.0,0.0,0.0,0.0,0.0,0.0,0.0,0.0,0.0,0.0,0.0,0.0,0.0,0.0,0.0,0.0,0.0,0.0,0.0,0.0,0.0,0.0,0.0,0.0,0.0,0.0,0.0,0.0,0.0,0.0,0.0,0.0,0.0,0.0,0.0,0.0,0.0,0.0,0.0,0.0,0.0,0.0,0.0,0.0,0.0,0.0,0.0,0.0,0.0,0.0,0.0,0.0,0.0,0.0,0.0,0.0,0.0,0.0,0.0,0.0,0.0,0.0,0.0,0.0,0.0,0.0,0.0,0.0,0.0,0.0,0.0,0.0,0.0,0.0,0.0,0.0,0.0,0.0,0.0,0.0,0.0,0.0,0.0,0.0,0.0,0.0,0.0,0.0,0.0,0.0,0.0,0.0,0.0,-1.8218,-1.7542,-1.715,-1.7064,-1.6054,-1.5499,-1.5447,0.0,0.0,0.0,0.0,0.0,0.0,0.0,0.0,0.0,0.0,0.0,0.0,0.0,0.0,0.0,0.0,0.0,0.0,0.0,0.0,0.0,0.0,0.0,0.0,0.0,0.0,0.0,0.0,0.0,0.0,0.0,0.0,0.0,0.0,0.0,0.0,0.0,0.0,0.0,0.0,0.0,0.0,0.0,0.0,0.0,0.0,0.0,0.0,0.0,0.0,0.0,0.0,0.0,0.0,0.0,0.0,0.0,0.0,0.0,0.0,0.0,0.0,0.0,0.0,0.0,0.0,0.0,0.0,0.0,0.0,0.0,0.0,0.0,0.0,0.0,0.0,0.0,0.0,0.0,0.0,0.0,0.0,0.0,0.0,0.0,0.0,0.0,0.0,0.0,0.0,0.0,0.0,0.0,0.0,0.0,0.0,0.0,0.0,0.0,0.0,0.0,0.0,0.0,0.0,0.0,0.0,0.0,0.0,-1.9575,-1.7736,-1.7248,-1.8095,-1.6641,-1.5626,0.0,0.0,0.0,0.0,0.0,0.0,0.0,0.0,0.0,0.0,0.0,0.0,0.0,0.0,0.0,0.0,0.0,0.0,0.0,0.0,0.0,0.0,0.0,0.0,0.0,0.0,0.0,0.0,0.0,0.0,0.0,0.0,0.0,0.0,0.0,0.0,0.0,0.0,0.0,0.0,0.0,0.0,0.0,0.0,0.0,0.0,0.0,0.0,0.0,0.0,0.0,0.0,0.0,0.0,0.0,0.0,0.0,0.0,0.0,0.0,0.0,0.0,0.0,0.0,0.0,0.0,0.0,0.0,0.0,0.0,0.0,0.0,0.0,0.0,0.0,0.0,0.0,0.0,0.0,0.0,0.0,0.0,0.0,0.0,0.0,0.0,0.0,0.0,0.0,0.0,0.0,0.0,0.0,0.0,0.0,0.0,0.0,0.0,0.0,0.0,0.0,0.0,0.0,0.0,0.0,0.0,0.0,0.0,0.0,-2.0336,-1.9531,-1.9287,-1.969,-1.7887,-1.6646,0.0,0.0,0.0,0.0,0.0,0.0,0.0,0.0,0.0,0.0,0.0,0.0,0.0,0.0,0.0,0.0,0.0,0.0,0.0,0.0,0.0,0.0,0.0,0.0,0.0,0.0,0.0,0.0,0.0,0.0,0.0,0.0,0.0,0.0,0.0,0.0,0.0,0.0,0.0,0.0,0.0,0.0,0.0,0.0,0.0,0.0,0.0,0.0,0.0,0.0,0.0,0.0,0.0,0.0,0.0,0.0,0.0,0.0,0.0,0.0,0.0,0.0,0.0,0.0,0.0,0.0,0.0,0.0,0.0,0.0,0.0,0.0,0.0,0.0,0.0,0.0,0.0,0.0,0.0,0.0,0.0,0.0,0.0,0.0,0.0,0.0,0.0,0.0,0.0,0.0,0.0,0.0,0.0,0.0,0.0,0.0,0.0,0.0,0.0,0.0,0.0,0.0,0.0,0.0,0.0,0.0,0.0,0.0,-1.8882,-2.0713,-2.1137,-2.1614,-2.2189,-1.9466,-1.7453,0.0,0.0,0.0,0.0,0.0,0.0,0.0,0.0,0.0,0.0,0.0,0.0,0.0,0.0,0.0,0.0,0.0,0.0,0.0,0.0,0.0,0.0,0.0,0.0,0.0,0.0,0.0,0.0,0.0,0.0,0.0,0.0,0.0,0.0,0.0,0.0,0.0,0.0,0.0,0.0,0.0,0.0,0.0,0.0,0.0,0.0,0.0,0.0,0.0,0.0,0.0,0.0,0.0,0.0,0.0,0.0,0.0,0.0,0.0,0.0,0.0,0.0,0.0,0.0,0.0,0.0,0.0,0.0,0.0,0.0,0.0,0.0,0.0,0.0,0.0,0.0,0.0,0.0,0.0,0.0,0.0,0.0,0.0,0.0,0.0,0.0,0.0,0.0,0.0,0.0,0.0,0.0,0.0,0.0,0.0,0.0,0.0,0.0,0.0,0.0,0.0,0.0,0.0,0.0,0.0,0.0,0.0,0.0,-1.9782,-2.0932,-2.2463,-2.3763,-2.4612,-2.0984,-1.8214,0.0,0.0,0.0,0.0,0.0,0.0,0.0,0.0,0.0,0.0,0.0,0.0,0.0,0.0,0.0,0.0,0.0,0.0,0.0,0.0,0.0,0.0,0.0,0.0,0.0,0.0,0.0,0.0,0.0,0.0,0.0,0.0,0.0,0.0,0.0,0.0,0.0,0.0,0.0,0.0,0.0,0.0,0.0,0.0,0.0,0.0,0.0,0.0,0.0,0.0,0.0,0.0,0.0,0.0,0.0,0.0,0.0,0.0,0.0,0.0,0.0,0.0,0.0,0.0,0.0,0.0,0.0,0.0,0.0,0.0,0.0,0.0,0.0,0.0,0.0,0.0,0.0,0.0,0.0,0.0,0.0,0.0,0.0,0.0,0.0,0.0,0.0,0.0,0.0,0.0,0.0,0.0,0.0,0.0,0.0,0.0,0.0,0.0,0.0,0.0,0.0,0.0,0.0,0.0,0.0,0.0,0.0,0.0,-1.9958,-2.2352,-2.289,-2.3855,-2.5269,-2.1449,-1.9232,0.0,0.0,0.0,0.0,0.0,0.0,0.0,0.0,0.0,0.0,0.0,0.0,0.0,0.0,0.0,0.0,0.0,0.0,0.0,0.0,0.0,0.0,0.0,0.0,0.0,0.0,0.0,0.0,0.0,0.0,0.0,0.0,0.0,0.0,0.0,0.0,0.0,0.0,0.0,0.0,0.0,0.0,0.0,0.0,0.0,0.0,0.0,0.0,-1.14,0.0,0.0,0.0,0.0,0.0,0.0,0.0,0.0,0.0,0.0,0.0,0.0,0.0,0.0,0.0,0.0,0.0,0.0,0.0,0.0,0.0,0.0,0.0,0.0,0.0,0.0,0.0,0.0,0.0,0.0,0.0,0.0,0.0,0.0,0.0,0.0,0.0,0.0,0.0,0.0,0.0,0.0,0.0,0.0,0.0,0.0,0.0,0.0,0.0,0.0,0.0,0.0,0.0,0.0,0.0,0.0,0.0,0.0,0.0,-1.9793,-2.2303,-2.2856,-2.3814,-2.5101,-2.2443,-2.0461,0.0,0.0,0.0,0.0,0.0,0.0,0.0,0.0,0.0,0.0,0.0,0.0,0.0,0.0,0.0,0.0,0.0,0.0,0.0,0.0,0.0,0.0,0.0,0.0,0.0,0.0,0.0,0.0,0.0,0.0,0.0,0.0,0.0,0.0,0.0,0.0,0.0,0.0,0.0,0.0,0.0,0.0,0.0,0.0,0.0,0.0,0.0,0.0,0.0,0.0,0.0,0.0,0.0,0.0,0.0,0.0,0.0,0.0,0.0,0.0,0.0,0.0,0.0,0.0,0.0,0.0,0.0,0.0,0.0,0.0,0.0,0.0,0.0,0.0,0.0,0.0,0.0,0.0,0.0,0.0,0.0,0.0,0.0,0.0,0.0,0.0,0.0,0.0,0.0,0.0,0.0,0.0,0.0,0.0,0.0,0.0,0.0,0.0,0.0,0.0,0.0,0.0,0.0,0.0,0.0,0.0,0.0,-1.8064,-1.9656,-2.1787,-2.2589,-2.3596,-2.4751,-2.3209,-2.147,-1.9608,0.0,0.0,0.0,0.0,0.0,0.0,0.0,0.0,0.0,0.0,0.0,0.0,0.0,0.0,0.0,0.0,0.0,0.0,0.0,0.0,0.0,0.0,0.0,0.0,0.0,0.0,0.0,0.0,0.0,0.0,0.0,0.0,0.0,0.0,0.0,0.0,0.0,0.0,-1.149,-1.1523,0.0,0.0,0.0,0.0,0.0,0.0,0.0,0.0,-1.1454,0.0,0.0,0.0,0.0,0.0,0.0,0.0,0.0,0.0,0.0,0.0,0.0,0.0,0.0,0.0,0.0,0.0,0.0,0.0,0.0,0.0,0.0,0.0,0.0,0.0,0.0,0.0,0.0,0.0,0.0,0.0,0.0,0.0,0.0,0.0,0.0,0.0,0.0,0.0,0.0,0.0,0.0,0.0,0.0,0.0,0.0,0.0,0.0,0.0,0.0,0.0,0.0,0.0,0.0,0.0,0.0,-1.7868,-1.8562,-1.999,-2.2138,-2.2351,-2.3036,-2.4132,-2.258,-2.1164,-2.0101,0.0,0.0,0.0,0.0,0.0,0.0,0.0,0.0,0.0,0.0,0.0,0.0,0.0,0.0,0.0,0.0,0.0,0.0,0.0,0.0,0.0,0.0,0.0,0.0,0.0,0.0,0.0,0.0,0.0,0.0,0.0,0.0,0.0,0.0,0.0,0.0,0.0,0.0,0.0,-1.2298,-1.2184,0.0,0.0,0.0,0.0,0.0,0.0,0.0,0.0,-1.1428,0.0,0.0,0.0,0.0,0.0,0.0,0.0,0.0,0.0,0.0,0.0,0.0,0.0,0.0,0.0,0.0,0.0,0.0,0.0,0.0,0.0,0.0,0.0,0.0,0.0,0.0,0.0,0.0,0.0,0.0,0.0,0.0,0.0,0.0,0.0,0.0,0.0,0.0,0.0,0.0,0.0,0.0,0.0,0.0,0.0,0.0,0.0,0.0,0.0,0.0,0.0,0.0,0.0,0.0,0.0,-1.8493,-1.881,-2.0052,-2.221,-2.2305,-2.2592,-2.3142,-2.2076,-2.0698,0.0,0.0,0.0,0.0,0.0,0.0,0.0,0.0,0.0,0.0,0.0,0.0,0.0,0.0,0.0,0.0,0.0,0.0,0.0,0.0,0.0,0.0,0.0,0.0,0.0,0.0,0.0,0.0,0.0,0.0,0.0,0.0,0.0,0.0,0.0,0.0,0.0,0.0,0.0,0.0,-1.2607,-1.2803,-1.2623,0.0,0.0,0.0,0.0,0.0,0.0,-1.2184,-1.1839,0.0,0.0,0.0,0.0,0.0,0.0,0.0,0.0,0.0,0.0,0.0,0.0,0.0,0.0,0.0,0.0,0.0,0.0,0.0,0.0,0.0,0.0,0.0,0.0,0.0,0.0,0.0,0.0,0.0,0.0,0.0,0.0,0.0,0.0,0.0,0.0,0.0,0.0,0.0,0.0,0.0,0.0,0.0,0.0,0.0,0.0,0.0,0.0,0.0,0.0,0.0,0.0,0.0,0.0,0.0,-1.8865,-1.9042,-2.0061,-2.202,-2.2129,-2.2129,-2.2101,-2.1272,-1.9837,0.0,0.0,0.0,0.0,0.0,0.0,0.0,0.0,0.0,0.0,0.0,0.0,0.0,0.0,0.0,0.0,0.0,0.0,0.0,0.0,0.0,0.0,0.0,0.0,0.0,0.0,0.0,0.0,0.0,0.0,0.0,0.0,0.0,0.0,0.0,0.0,0.0,0.0,0.0,0.0,0.0,-1.3302,-1.3796,-1.2996,0.0,0.0,0.0,0.0,-1.274,-1.277,0.0,0.0,0.0,0.0,0.0,0.0,0.0,0.0,0.0,0.0,0.0,0.0,0.0,0.0,0.0,0.0,0.0,0.0,0.0,0.0,0.0,0.0,0.0,0.0,0.0,0.0,0.0,0.0,0.0,0.0,0.0,0.0,0.0,0.0,0.0,0.0,0.0,0.0,0.0,0.0,0.0,0.0,0.0,0.0,0.0,0.0,0.0,0.0,0.0,0.0,0.0,0.0,0.0,0.0,0.0,0.0,-1.8723,-1.932,-2.0216,-2.1402,-2.1469,-2.1518,-2.1491,-1.9537,-1.8327,0.0,0.0,0.0,0.0,0.0,0.0,0.0,0.0,0.0,0.0,0.0,0.0,0.0,0.0,0.0,0.0,0.0,0.0,0.0,0.0,0.0,0.0,0.0,0.0,0.0,0.0,0.0,0.0,0.0,0.0,0.0,0.0,0.0,0.0,0.0,0.0,0.0,0.0,0.0,0.0,0.0,-1.34,-1.3993,-1.3371,-1.2991,0.0,0.0,-1.3195,-1.3812,-1.4342,0.0,0.0,0.0,0.0,0.0,0.0,0.0,0.0,0.0,0.0,0.0,0.0,0.0,0.0,0.0,0.0,0.0,0.0,0.0,0.0,0.0,0.0,0.0,0.0,0.0,0.0,0.0,0.0,0.0,0.0,0.0,0.0,0.0,0.0,0.0,0.0,0.0,0.0,0.0,0.0,0.0,0.0,0.0,0.0,0.0,0.0,0.0,0.0,0.0,0.0,0.0,0.0,0.0,0.0,0.0,-1.8058,-1.9155,-1.9551,-2.0256,-2.1355,-2.141,-2.141,-2.141,-1.9189,-1.7975,0.0,0.0,0.0,0.0,0.0,0.0,0.0,0.0,0.0,0.0,0.0,0.0,0.0,0.0,0.0,0.0,0.0,0.0,0.0,0.0,0.0,0.0,0.0,0.0,0.0,0.0,0.0,0.0,0.0,0.0,0.0,0.0,0.0,0.0,0.0,0.0,0.0,0.0,0.0,0.0,0.0,0.0,-1.4617,-1.4442,0.0,0.0,0.0,-1.4233,-1.3583,0.0,0.0,0.0,0.0,0.0,0.0,0.0,0.0,0.0,0.0,0.0,0.0,0.0,0.0,0.0,0.0,0.0,0.0,0.0,0.0,0.0,0.0,0.0,0.0,0.0,0.0,0.0,0.0,0.0,0.0,0.0,0.0,0.0,0.0,0.0,0.0,0.0,0.0,0.0,0.0,0.0,0.0,0.0,0.0,0.0,0.0,0.0,0.0,0.0,0.0,0.0,0.0,0.0,0.0,0.0,0.0,0.0,-1.9445,-1.9628,-2.0256,-2.1369,-2.141,-2.141,-2.1369,-1.9252,0.0,0.0,0.0,0.0,0.0,0.0,0.0,0.0,0.0,0.0,0.0,0.0,0.0,0.0,0.0,0.0,0.0,0.0,0.0,0.0,0.0,0.0,0.0,0.0,0.0,0.0,0.0,-1.3339,0.0,0.0,0.0,0.0,0.0,0.0,0.0,0.0,0.0,0.0,0.0,0.0,0.0,0.0,-1.5506,-1.5147,-1.5189,-1.5093,0.0,0.0,-1.4657,-1.3544,-1.5152,-1.5693,0.0,0.0,0.0,0.0,0.0,0.0,0.0,0.0,0.0,0.0,0.0,0.0,0.0,0.0,0.0,0.0,0.0,0.0,0.0,0.0,0.0,0.0,0.0,0.0,0.0,0.0,0.0,0.0,0.0,0.0,0.0,0.0,0.0,0.0,0.0,0.0,0.0,0.0,0.0,0.0,0.0,0.0,0.0,0.0,0.0,0.0,0.0,0.0,0.0,0.0,0.0,0.0,0.0,0.0,0.0,-1.9216,-1.9553,-2.0256,-2.1369,-2.141,-2.141,-2.1396,-1.9659,-1.8654,0.0,0.0,0.0,0.0,0.0,0.0,0.0,0.0,0.0,0.0,0.0,0.0,0.0,0.0,0.0,0.0,0.0,0.0,0.0,0.0,0.0,0.0,0.0,0.0,0.0,0.0,0.0,0.0,0.0,0.0,0.0,0.0,0.0,0.0,0.0,0.0,0.0,0.0,0.0,0.0,0.0,-1.5296,-1.5357,-1.501,-1.4893,0.0,0.0,-1.4008,-1.4278,-1.5886,-1.638,-1.4164,0.0,0.0,0.0,0.0,0.0,0.0,0.0,0.0,0.0,0.0,0.0,0.0,0.0,0.0,0.0,0.0,0.0,0.0,0.0,0.0,0.0,0.0,0.0,0.0,0.0,0.0,0.0,0.0,0.0,0.0,0.0,0.0,0.0,0.0,0.0,0.0,0.0,0.0,0.0,0.0,0.0,0.0,0.0,0.0,0.0,0.0,0.0,0.0,0.0,0.0,0.0,0.0,0.0,-1.8156,-1.9668,-1.9637,-2.0105,-2.1224,-2.118,-2.118,-2.1277,-1.9476,-1.8262,0.0,0.0,0.0,0.0,0.0,0.0,0.0,0.0,0.0,0.0,0.0,0.0,0.0,0.0,0.0,0.0,0.0,0.0,0.0,0.0,0.0,0.0,0.0,0.0,0.0,0.0,0.0,0.0,-1.5036,-1.5117,-1.5291,0.0,0.0,0.0,0.0,0.0,0.0,0.0,0.0,0.0,0.0,-1.6459,-1.6892,-1.6493,0.0,0.0,-1.5359,-1.4901,-1.4102,-1.5324,-1.5726,-1.3739,-1.3811,0.0,0.0,0.0,0.0,0.0,0.0,0.0,0.0,0.0,0.0,0.0,0.0,0.0,0.0,0.0,0.0,0.0,0.0,0.0,0.0,0.0,0.0,0.0,0.0,0.0,0.0,0.0,0.0,0.0,0.0,0.0,0.0,0.0,0.0,0.0,0.0,0.0,0.0,0.0,0.0,0.0,0.0,0.0,0.0,0.0,0.0,0.0,0.0,0.0,0.0,0.0,0.0,-1.8288,-1.9856,-1.9653,-2.0092,-2.1251,-2.1193,-2.118,-2.1237,-1.9779,-1.8631,0.0,0.0,0.0,0.0,0.0,0.0,0.0,0.0,0.0,0.0,0.0,0.0,0.0,0.0,0.0,0.0,0.0,0.0,0.0,0.0,0.0,0.0,0.0,0.0,0.0,0.0,0.0,0.0,-1.5957,-1.5976,-1.537,0.0,0.0,0.0,0.0,0.0,0.0,0.0,0.0,0.0,0.0,-1.7273,-1.7351,-1.7001,-1.6444,-1.5558,-1.5442,-1.5069,-1.4038,-1.4802,-1.5082,-1.3737,0.0,0.0,0.0,0.0,0.0,0.0,0.0,0.0,0.0,0.0,0.0,0.0,0.0,0.0,0.0,0.0,0.0,0.0,0.0,0.0,0.0,0.0,0.0,0.0,0.0,0.0,0.0,0.0,0.0,0.0,-1.3419,0.0,0.0,0.0,0.0,0.0,0.0,0.0,0.0,0.0,0.0,0.0,0.0,0.0,0.0,0.0,0.0,0.0,0.0,0.0,0.0,0.0,0.0,-1.8267,-1.9603,-1.968,-2.027,-2.1334,-2.1375,-2.1388,-2.1361,-2.0765,-2.0111,-1.9373,0.0,0.0,0.0,0.0,0.0,0.0,0.0,0.0,0.0,0.0,0.0,0.0,0.0,0.0,0.0,0.0,0.0,0.0,0.0,0.0,0.0,0.0,0.0,0.0,0.0,0.0,-1.6292,-1.6285,-1.5863,0.0,0.0,0.0,0.0,0.0,0.0,0.0,0.0,0.0,0.0,-1.7163,-1.7379,-1.6321,-1.6036,-1.5711,-1.503,-1.4363,-1.3959,-1.4256,-1.455,-1.4671,0.0,0.0,0.0,0.0,0.0,0.0,0.0,0.0,0.0,0.0,0.0,0.0,0.0,0.0,0.0,0.0,0.0,0.0,0.0,0.0,0.0,0.0,0.0,0.0,0.0,0.0,0.0,-1.7908,-1.7035,0.0,0.0,0.0,0.0,0.0,0.0,0.0,0.0,0.0,0.0,0.0,-1.8637,-1.9136,0.0,0.0,0.0,0.0,0.0,0.0,0.0,0.0,0.0,0.0,0.0,0.0,-1.8228,-1.9885,-1.9943,-2.0307,-2.1118,-2.1369,-2.1382,-2.1144,-2.0194,-1.903,-1.761,0.0,0.0,0.0,0.0,0.0,0.0,0.0,0.0,0.0,0.0,0.0,0.0,0.0,0.0,0.0,0.0,0.0,0.0,0.0,0.0,0.0,0.0,0.0,0.0,0.0,-1.6683,0.0,0.0,0.0,0.0,0.0,0.0,0.0,0.0,0.0,0.0,0.0,-1.6102,-1.6566,-1.66,-1.6634,-1.6689,-1.6336,-1.601,0.0,0.0,0.0,0.0,0.0,0.0,0.0,0.0,0.0,0.0,0.0,0.0,0.0,0.0,-1.0952,-1.021,-1.0378,-1.0625,-1.0613,0.0,0.0,0.0,0.0,0.0,0.0,0.0,0.0,0.0,0.0,0.0,0.0,0.0,0.0,-1.9991,0.0,-1.9924,0.0,0.0,0.0,0.0,0.0,0.0,0.0,0.0,-1.9311,-2.028,-2.0778,-2.1244,-2.151,0.0,-2.1247,-1.9843,0.0,0.0,0.0,0.0,0.0,0.0,0.0,0.0,-1.8557,-2.0219,-2.0116,-2.0457,-2.1262,-2.1361,-2.1268,-2.0983,-1.9947,-1.8749,-1.7397,-1.6271,-1.5544,0.0,0.0,0.0,0.0,0.0,0.0,0.0,0.0,0.0,0.0,0.0,0.0,0.0,0.0,0.0,0.0,0.0,0.0,0.0,0.0,0.0,0.0,0.0,-1.6708,0.0,0.0,0.0,0.0,0.0,0.0,0.0,0.0,0.0,-1.6097,-1.6174,-1.6466,-1.7021,-1.6993,-1.6886,-1.6774,0.0,0.0,0.0,0.0,0.0,0.0,0.0,-1.3844,-1.3878,-1.4025,-1.4093,-1.406,-1.3465,-1.2822,-1.2377,0.0,0.0,-1.0727,-1.0867,-1.1015,-1.0825,-1.1383,-1.1853,-1.1582,-1.2002,-1.2256,0.0,0.0,0.0,0.0,0.0,0.0,0.0,0.0,-2.1581,-2.0926,0.0,-2.0244,0.0,0.0,0.0,0.0,0.0,-1.9546,0.0,0.0,-2.3006,-2.3844,-2.2166,-2.2446,-2.2811,-2.3241,-2.3024,-2.2286,-2.1019,-1.868,0.0,0.0,0.0,0.0,0.0,0.0,-1.9318,-2.0445,-2.0351,-2.078,-2.1832,-2.1465,-2.1144,-2.089,-2.0026,-1.926,-1.8723,-1.7196,-1.6455,-1.665,-1.5047,0.0,0.0,0.0,0.0,0.0,0.0,0.0,0.0,0.0,0.0,0.0,0.0,0.0,0.0,0.0,0.0,0.0,0.0,0.0,0.0,-1.64,0.0,0.0,0.0,0.0,0.0,0.0,0.0,0.0,0.0,0.0,-1.627,-1.6969,-1.7621,-1.7709,0.0,0.0,0.0,0.0,-1.5847,-1.4233,-1.3915,-1.3836,-1.3589,-1.4014,-1.4606,-1.5252,0.0,0.0,-1.5106,-1.4018,-1.3236,-1.2899,-1.2529,-1.194,-1.0974,-1.0991,-1.0833,-1.0136,-1.0537,-1.0766,-1.0874,-1.149,-1.1856,-2.535,0.0,0.0,0.0,0.0,-2.3581,-2.3873,-2.397,-2.5424,-2.4842,-2.296,-2.4294,0.0,0.0,0.0,0.0,0.0,0.0,-2.151,-2.194,-2.3641,-2.4722,-2.5335,-2.603,-2.6353,-2.6339,-2.5668,-2.4802,-2.3561,-2.1727,-2.0104,-1.8759,0.0,0.0,0.0,0.0,-1.9348,-2.0283,-2.0849,-2.1325,-2.1758,-2.1548,-2.0875,-1.9847,-1.9683,-1.9155,-1.818,-1.7706,-1.7263,-1.6924,-1.6163,0.0,0.0,0.0,0.0,0.0,0.0,0.0,0.0,0.0,0.0,0.0,0.0,0.0,0.0,0.0,0.0,0.0,0.0,0.0,-1.6002,-1.6455,-1.668,0.0,0.0,0.0,0.0,0.0,0.0,0.0,0.0,0.0,-1.6625,-1.6615,-1.671,0.0,0.0,-1.6313,-1.6094,-1.5995,-1.595,-1.5881,-1.5475,0.0,-1.5616,-1.5475,-1.5309,-1.5386,-1.562,-1.5543,-1.4869,-1.4663,-1.4398,-1.3978,-1.36,-1.3054,-1.2394,-1.2065,-1.1751,-1.1556,-1.2196,-1.2614,-1.2226,-1.2527,-1.2912,-2.8668,-2.7307,-2.5945,-2.5332,-2.5176,-2.5949,-2.6208,-2.6229,-2.7601,-2.7073,-2.515,-2.636,-2.4952,-2.1495,-2.1158,0.0,0.0,0.0,-2.2926,-2.4238,-2.4819,-2.5835,-2.715,-2.7655,-2.7956,-2.7939,-2.746,-2.6559,-2.5373,-2.3784,-2.2139,-2.0355,0.0,0.0,-1.8272,-1.9203,-2.0019,-2.0673,-2.1473,-2.1904,-2.1996,-2.1524,-2.0677,-1.953,-1.9584,-1.9073,-1.7977,-1.7922,-1.7747,-1.738,-1.6914,-1.6209,0.0,0.0,0.0,0.0,0.0,0.0,0.0,0.0,0.0,0.0,0.0,-1.5452,0.0,0.0,0.0,0.0,-1.6173,-1.6194,-1.669,-1.6761,0.0,0.0,0.0,0.0,0.0,0.0,0.0,-1.6982,-1.7031,-1.7089,-1.7036,-1.6757,-1.6666,-1.7127,-1.6642,-1.6277,-1.627,0.0,-1.6279,-1.6381,-1.6046,-1.5872,-1.6207,-1.6133,-1.6058,-1.6114,-1.5908,-1.5644,-1.5254,-1.4994,-1.4687,-1.4191,-1.3707,-1.3237,-1.2746,-1.2265,-1.1899,-1.1875,-1.237,-1.2666,-1.2423,-1.271,-1.2926,-3.1455,-3.0767,-2.7583,-2.6529,-2.6925,-2.7875,-2.821,-2.8244,-2.868,-2.7918,-2.6359,-2.7075,-2.5777,-2.2972,-2.219,0.0,-2.3039,-2.3483,-2.4481,-2.5912,-2.6337,-2.7033,-2.78,-2.7881,-2.8122,-2.8419,-2.8431,-2.7782,-2.645,-2.5061,-2.3711,-2.2324,-2.0665,-1.9456,-1.8907,-2.0147,-2.1013,-2.1414,-2.2076,-2.2426,-2.2336,-2.1444,-2.0566,-1.9696,-1.9584,-1.9017,-1.795,-1.7922,-1.7922,-1.7882,-1.738,-1.6883,-1.6467,0.0,0.0,0.0,0.0,0.0,0.0,0.0,0.0,0.0,0.0,0.0,0.0,0.0,0.0,0.0,-1.6922,0.0,-1.7932,-1.7186,0.0,0.0,0.0,-1.715,-1.7678,-1.7534,-1.7592,-1.8133,0.0,0.0,-1.7516,-1.7256,-1.7229,-1.7674,-1.7496,-1.7277,-1.6971,-1.6967,-1.6833,-1.6225,-1.6083,-1.6046,-1.6102,-1.6373,-1.6697,-1.6934,-1.6509,-1.5932,-1.5668,-1.4994,-1.429,-1.3805,-1.3292,-1.2781,-1.2352,-1.1927,-1.1507,-1.1664,-1.1599,-1.1645,-1.1979,-1.2121,-1.2288,-3.2448,-3.1946,-3.1119,-3.0469,-2.9943,-3.0428,-3.0351,-2.9718,-2.9816,-2.9194,-2.816,-2.7927,-2.702,-2.5639,-2.542,-2.5464,-2.5694,-2.5804,-2.6034,-2.6414,-2.6817,-2.7185,-2.736,-2.8018,-2.8283,-2.8042,-2.8042,-2.7476,-2.649,-2.578,-2.4635,-2.3069,-2.2302,-2.1029,-1.9372,-2.0604,-2.1305,-2.1414,-2.2101,-2.2308,-2.2034,-2.191,-2.1086,-1.958,-1.9642,-1.913,-1.7936,-1.7922,-1.7922,-1.7922,-1.7747,-1.7463,-1.6881,-1.6298,0.0,0.0,0.0,0.0,0.0,0.0,0.0,0.0,0.0,-1.5535,-1.4928,0.0,-1.6415,0.0,-1.7075,-1.761,-1.804,-1.7522,0.0,0.0,-1.7651,-1.7576,-1.8103,-1.7979,-1.7863,-1.8028,-1.772,-1.757,-1.7788,-1.7557,-1.7474,-1.7812,-1.7514,-1.7358,-1.7629,-1.7599,-1.7465,-1.7313,-1.7336,-1.7434,-1.7284,-1.7297,-1.7144,-1.685,-1.6281,-1.5712,-1.5334,-1.4789,-1.4231,-1.3761,-1.3281,-1.2868,-1.2715,-1.2062,-1.1823,-1.2323,-1.1997,-1.1522,-1.1634,-1.1948,-1.2268,-3.2994,-3.2394,-3.2394,-3.1924,-3.1236,-3.1509,-3.1323,-3.0832,-3.0614,-3.01,-2.9368,-2.8669,-2.7938,-2.7239,-2.725,-2.7261,-2.7228,-2.6824,-2.6823,-2.7236,-2.6948,-2.7103,-2.7522,-2.803,-2.8122,-2.7881,-2.7881,-2.7383,-2.6494,-2.6416,-2.5823,-2.4686,-2.4429,-2.3513,-2.212,-2.1702,-2.1414,-2.1303,-2.2105,-2.2562,-2.2658,-2.2282,-2.1399,-1.9946,-1.9714,-1.8995,-1.7694,-1.7612,-1.7655,-1.7655,-1.7655,-1.7396,-1.6935,-1.6292,-1.5747,0.0,0.0,0.0,0.0,0.0,0.0,0.0,0.0,0.0,0.0,0.0,-1.7529,-1.7767,-1.8056,-1.8412,-1.8824,-1.8149,-1.7965,-1.8506,-1.8062,-1.7813,-1.8094,-1.8016,-1.7975,-1.7975,-1.7774,-1.7733,-1.7882,-1.7774,-1.7747,-1.7882,-1.7671,-1.7631,-1.7891,-1.7852,-1.7784,-1.7771,-1.788,-1.7828,-1.7733,-1.7584,-1.7253,-1.6723,-1.6139,-1.5656,-1.5198,-1.4697,-1.4231,-1.3783,-1.3456,-1.3075,-1.2702,-1.2407,-1.2204,-1.2138,-1.2029,-1.1899,-1.2062,-1.2014,-1.2009,-3.3322,-3.2481,-3.247,-3.2143,-3.1618,-3.1618,-3.1618,-3.1586,-3.1105,-3.0603,-3.0067,-2.915,-2.8517,-2.8134,-2.8134,-2.8102,-2.7981,-2.7119,-2.7063,-2.7774,-2.687,-2.6951,-2.7719,-2.78,-2.78,-2.7708,-2.7708,-2.7301,-2.6588,-2.6954,-2.6901,-2.6546,-2.6456,-2.6013,-2.5293,-2.3072,-2.1757,-2.1302,-2.2209,-2.2948,-2.3615,-2.2538,-2.1417,-2.0295,-1.968,-1.8729,-1.7352,-1.7279,-1.7327,-1.7327,-1.7327,-1.7219,-1.7014,-1.6432,-1.5951,0.0,-1.4922,0.0,0.0,0.0,0.0,0.0,0.0,0.0,0.0,-1.8533,-1.9171,-1.9561,-1.9201,-1.9203,-1.9847,-1.8906,-1.844,-1.8833,-1.8385,-1.7975,-1.7909,-1.799,-1.7963,-1.7936,-1.799,-1.8018,-1.7882,-1.7922,-1.7922,-1.7922,-1.7896,-1.7869,-1.7909,-1.7896,-1.7882,-1.7922,-1.7882,-1.7747,-1.7584,-1.7432,-1.7183,-1.6552,-1.6064,-1.5623,-1.5051,-1.4651,-1.4277,-1.3816,-1.3674,-1.3401,-1.2538,-1.2672,-1.2628,-1.2062,-1.2088,-1.2283,-1.2384,-1.2113,-1.1787,-3.3814,-3.294,-3.294,-3.2427,-3.1629,-3.1618,-3.1618,-3.1597,-3.1105,-3.0417,-2.9587,-2.9008,-2.8713,-2.8615,-2.8615,-2.8407,-2.8014,-2.7435,-2.702,-2.6823,-2.6652,-2.661,-2.6787,-2.7115,-2.7103,-2.6775,-2.6787,-2.6857,-2.7092,-2.7163,-2.7167,-2.7095,-2.6651,-2.5917,-2.5074,0.0,0.0,0.0,-2.3059,-2.338,-2.328,-2.201,-2.0778,-1.9475,-1.8944,0.0,-1.7194,-1.7267,-1.7327,-1.7327,-1.7327,0.0,0.0,0.0,0.0,0.0,0.0,0.0,0.0,0.0,0.0,0.0,-1.8091,-1.8088,-1.8181,-1.8662,-1.9139,-1.9454,-1.9404,-1.9638,-2.0297,-1.935,-1.893,-1.9402,-1.8589,-1.7922,-1.7936,-1.8344,-1.8466,-1.795,-1.833,-1.8453,-1.7963,-1.7922,-1.7922,-1.7922,-1.7922,-1.7922,-1.7922,-1.7922,-1.7922,-1.7882,-1.7801,-1.7638,-1.7474,-1.7391,-1.7057,-1.6194,-1.5876,-1.5478,-1.4731,-1.4512,-1.4277,-1.3794,-1.3696,-1.3663,-1.3423,-1.3172,-1.2998,-1.3226,-1.2786,-1.2161,-1.1527,-1.1855,-1.211,-3.3967,0.0,-3.3071,-3.2514,0.0,-3.1618,-3.1618,-3.1597,-3.1105,-3.0362,-2.9456,-2.8964,-2.885,-2.885,-2.885,-2.8495,-2.7945,-2.7785,-2.7293,-2.6616,-2.6524,-2.6523,-2.6528,-2.6775,-2.6928,-2.7174,-2.7162,-2.7325,-2.7799,-2.8199,-2.8409,-2.8498,-2.8335,-2.7873,-2.7107,-2.6149,-2.4963,-2.3514,-2.3927,-2.4073,-2.3927,-2.2834,-2.1712,-2.0696,-1.985,0.0,0.0,0.0,0.0,0.0,0.0,0.0,0.0,-1.8215,0.0,-1.8129,-1.8018,-1.8253,-1.8833,-1.9058,-1.9371,-1.992,-1.9833,-1.9547,-1.918,-1.9779,-2.0281,-2.0421,-2.0435,-2.0543,-2.086,-2.0175,-1.9646,-1.9673,-1.91,-1.8613,-1.8425,-1.8803,-1.8911,-1.8493,-1.8616,-1.8589,-1.8004,-1.7922,-1.7922,-1.7922,-1.7922,-1.7922,-1.7922,-1.7922,-1.7882,-1.7788,-1.7666,-1.7556,-1.7446,-1.7308,-1.6947,-1.6064,-1.5788,-1.5389,-1.4558,-1.443,-1.4297,-1.4078,-1.4034,-1.398,-1.374,-1.3652,-1.3543,-1.3162,-1.3054,-1.2594,-1.1491,-1.15,-1.1828,-3.401,-3.3191,-3.3104,-3.2558,-3.1749,-3.1662,-3.1575,-3.1465,0.0,0.0,0.0,-2.9095,-2.8833,-2.885,-2.885,-2.8495,-2.8047,-2.7949,-2.749,-2.6747,-2.6583,-2.6491,-2.6507,-2.6407,-2.6846,-2.7649,-2.773,-2.8039,-2.8664,-2.9381,-2.9781,-2.9897,-3.0028,-2.9797,-2.9149,-2.796,-2.6527,-2.5117,-2.4832,-2.4747,-2.4798,-2.3553,-2.255,-2.1982,-2.0849,-1.9876,-1.9101,-1.9101,-1.9089,-1.9089,-1.9089,-1.9098,-1.9095,-1.8982,-1.8821,-1.8659,-1.8871,-1.9407,-2.0412,-2.0767,-2.126,-2.202,-2.172,-2.1198,-2.0452,-2.1,-2.141,-2.141,-2.141,-2.141,-2.1396,-2.0833,-2.0305,-1.989,-1.9638,-1.9354,-1.9035,-1.926,-1.9354,-1.9008,-1.8874,-1.8629,-1.8181,-1.795,-1.7922,-1.7922,-1.7922,-1.7922,-1.7922,-1.7922,-1.7842,-1.772,-1.7584,-1.7475,-1.7378,-1.717,-1.6752,-1.5964,-1.57,-1.5355,-1.464,-1.443,-1.443,-1.4351,-1.4419,-1.4209,-1.3936,-1.4043,-1.3863,-1.2752,-1.3017,-1.3128,-1.1911,-1.1363,-1.141,-3.4196,-3.3661,-3.3246,-3.2765,-3.2241,-3.1804,-3.1389,-3.0996,-3.0919,-3.0603,-3.0078,-2.9587,-2.915,-2.885,-2.885,-2.8495,-2.8014,-2.761,-2.7337,-2.7173,-2.6376,-2.619,-2.6582,-2.6176,-2.6456,-2.7255,-2.7267,-2.8051,-2.9381,-2.9626,-3.0101,-3.067,-3.0338,-2.9686,-2.8871,-2.8825,-2.8237,-2.6996,-2.5494,-2.4749,-2.4859,-2.2636,-2.1375,-2.1157,-2.0163,-1.9359,-1.8955,-1.9049,-1.9089,-1.9089,-1.9089,-1.9651,-2.081,-2.0797,-2.1107,-2.201,-2.2022,-2.1994,-2.2046,-2.2137,-2.2297,-2.2645,-2.271,-2.2519,-2.2001,-2.1605,-2.141,-2.141,-2.141,-2.141,-2.1382,-2.086,-2.0481,-2.0346,-1.9822,-1.9485,-1.9578,-1.957,-1.9553,-1.9578,-1.9133,-1.8764,-1.8629,-1.818,-1.7882,-1.7922,-1.7922,-1.7922,-1.7922,-1.7922,-1.7788,-1.7611,-1.7516,-1.7393,-1.724,-1.6863,-1.6466,-1.592,-1.549,-1.5096,-1.4512,-1.443,-1.443,-1.443,-1.443,-1.4387,-1.4253,-1.4039,-1.3662,-1.3052,-1.3001,-1.2738,-1.2279,-1.1822,-1.1361,-3.424,-3.3748,-3.3268,-3.2798,-3.235,-3.1837,-3.1498,-3.1291,-3.1291,-3.0887,-3.0188,-2.9696,-2.9358,-2.9139,-2.8877,-2.8484,-2.8036,-2.808,-2.7807,-2.7315,-2.713,-2.713,-2.7302,-2.686,-2.7349,-2.8536,-2.8342,-2.9003,-3.0266,-3.0419,-3.0583,-3.0947,-3.0485,-3.0066,-2.9764,-2.9388,-2.8999,-2.8511,-2.7099,-2.6054,-2.5448,-2.3984,-2.2906,-2.2185,-2.1394,-2.0745,-2.0283,-2.0307,-2.05,-2.0797,-2.0823,-2.1315,-2.2233,-2.2181,-2.2313,-2.2764,-2.2948,-2.2997,-2.2818,-2.2997,-2.3307,-2.3723,-2.3339,-2.3163,-2.3295,-2.2441,-2.1776,-2.1464,-2.141,-2.141,-2.141,-2.1165,-2.0847,-2.0508,-2.0429,-2.0301,-2.0146,-2.0227,-2.0268,-2.0051,-1.9454,-1.9,-1.8847,-1.8207,-1.7842,-1.7882,-1.7922,-1.7922,-1.7922,-1.7842,-1.7706,-1.7529,-1.7447,-1.7378,-1.724,-1.7018,-1.6595,-1.592,-1.5623,-1.5175,-1.4605,-1.443,-1.443,-1.443,-1.443,-1.443,-1.4419,-1.4074,-1.3648,-1.3279,-1.3068,-1.2799,-1.2368,-1.1801,-1.1222,-3.4152,-3.3759,-3.3268,-3.2798,-3.2339,-3.1837,-3.1618,-3.1629,-3.1812,-3.1405,-3.0526,-3.0013,-2.9685,-2.9445,-2.9355,-2.9006,-2.863,-2.9001,-2.8778,-2.8044,-2.8311,-2.8432,-2.824,-2.7764,-2.8444,-2.9658,-2.934,-2.9781,-3.0911,-3.0986,-3.0986,-3.1009,-3.0837,-3.0764,-3.0762,-3.0019,-2.9619,-2.9442,-2.8573,-2.7461,-2.6145,-2.5385,-2.4434,-2.3446,-2.2782,-2.2241,-2.1808,-2.1781,-2.2034,-2.2468,-2.2509,-2.2742,-2.3271,-2.3232,-2.3125,-2.3163,-2.3395,-2.352,-2.342,-2.3659,-2.4013,-2.4553,-2.3944,-2.3663,-2.3987,-2.3268,-2.24,-2.1776,-2.1789,-2.1762,-2.1518,-2.1572,-2.1382,-2.0806,-2.0994,-2.1,-2.0704,-2.0735,-2.07,-2.0362,-1.972,-1.9204,-1.8865,-1.8284,-1.7894,-1.7882,-1.7882,-1.7922,-1.7882,-1.776,-1.7611,-1.7475,-1.7365,-1.7253,-1.7157,-1.685,-1.6454,-1.5832,-1.5567,-1.5085,-1.4558,-1.443,-1.443,-1.443,-1.443,-1.443,-1.4351,-1.3949,-1.3531,-1.324,-1.2987,-1.2632,-1.2122,-1.1642,-1.1139,-3.3825,-3.3726,-3.3246,-3.2798,-3.2339,-3.1859,-3.164,-3.1732,-3.2611,-3.2476,-3.1389,-3.0974,-3.0373,-2.9639,-3.0345,-3.0388,-2.9988,-3.0472,-3.0396,-2.9894,-2.9993,-2.957,-2.8778,-2.8595,-2.901,-2.9751,-2.9376,-2.9754,-3.0986,-3.0986,-3.1136,-3.1272,-3.1603,-3.1468,-3.107,-3.1037,-3.0581,-2.9509,-2.9374,-2.8478,-2.6796,-2.5615,-2.4637,-2.385,-2.3366,-2.3028,-2.2788,-2.2974,-2.304,-2.3094,-2.3107,-2.3325,-2.3743,-2.3727,-2.3774,-2.4125,-2.4084,-2.4034,-2.4034,-2.4034,-2.4208,-2.4563,-2.45,-2.4319,-2.415,-2.4028,-2.3445,-2.2603,-2.2739,-2.2485,-2.1578,-2.1884,-2.1912,-2.1293,-2.121,-2.1166,-2.1059,-2.0636,-2.0233,-2.0241,-1.9727,-1.9274,-1.9226,-1.8719,-1.8171,-1.7868,-1.7869,-1.7882,-1.7882,-1.7706,-1.7529,-1.7434,-1.7102,-1.6947,-1.7018,-1.6064,-1.58,-1.5744,-1.513,-1.4686,-1.4512,-1.443,-1.443,-1.443,-1.443,-1.443,-1.4186,-1.3784,-1.327,-1.3072,-1.2677,-1.2101,-1.1769,-1.1477,-1.1081,-3.3355,-3.3322,-3.2863,-3.2558,-3.235,-3.2154,-3.2066,-3.2148,-3.2836,-3.2611,-3.1801,-3.2685,-3.2328,-3.0735,-3.0253,-3.0546,-3.1494,-3.0808,-3.0586,-3.0617,-3.0596,-3.022,-2.9635,-2.9282,-2.9701,-3.0604,-2.9911,-3.0043,-3.0875,-3.1136,-3.1272,-3.1508,-3.1743,-3.1769,-3.1527,-3.1405,-3.0959,-3.0416,-2.97,-2.8743,-2.7538,-2.6506,-2.5383,-2.4369,-2.385,-2.342,-2.3084,-2.3136,-2.3337,-2.3662,-2.377,-2.3974,-2.4402,-2.4316,-2.4239,-2.4279,-2.4144,-2.4125,-2.4125,-2.4157,-2.4319,-2.4563,-2.4677,-2.467,-2.4623,-2.4639,-2.4272,-2.3553,-2.3256,-2.281,-2.2101,-2.2169,-2.2024,-2.1412,-2.1229,-2.1144,-2.101,-2.0824,-2.0629,-2.0576,-2.0004,-1.9681,-1.9674,-1.9052,-1.8524,-1.8217,-1.8099,-1.7882,-1.7801,-1.7611,-1.7488,-1.7378,-1.6947,-1.6808,-1.7031,-1.6808,-1.6238,-1.5844,-1.5478,-1.5119,-1.4501,-1.443,-1.443,-1.443,-1.443,-1.4291,-1.4057,-1.3615,-1.3109,-1.2877,-1.2403,-1.1769,-1.1519,-1.1276,-1.0881,-3.3038,-3.318,-3.2765,-3.2645,-3.2743,-3.2492,-3.2581,-3.2816,-3.314,-3.2812,-3.251,-3.4068,-3.4066,-3.2582,-3.1502,-3.1855,-3.2641,-3.2063,-3.1556,-3.1486,-3.1603,-3.1424,-3.0687,-3.0396,-3.0736,-3.1492,-3.0873,-3.0732,-3.1248,-3.14,-3.1508,-3.1669,-3.1817,-3.1963,-3.1909,-3.1577,-3.1321,-3.1007,-3.0102,-2.9187,-2.8266,-2.7461,-2.6297,-2.4909,-2.4343,-2.3944,-2.3541,-2.3622,-2.392,-2.434,-2.4354,-2.4446,-2.4694,-2.4677,-2.4549,-2.435,-2.4203,-2.4157,-2.4157,-2.4319,-2.4478,-2.462,-2.4791,-2.4835,-2.4948,-2.5005,-2.4815,-2.4408,-2.3906,-2.3419,-2.2685,-2.2512,-2.219,-2.1551,-2.1301,-2.1109,-2.0974,-2.0938,-2.0832,-2.065,-2.0263,-2.0053,-1.998,-1.9373,-1.8779,-1.8553,-1.8166,-1.7868,-1.776,-1.7611,-1.7475,-1.7432,-1.6989,-1.6905,-1.7115,-1.6637,-1.638,-1.602,-1.5579,-1.4994,-1.4501,-1.4419,-1.443,-1.443,-1.443,-1.4326,-1.414,-1.363,-1.2852,-1.2483,-1.1977,-1.1519,-1.1226,-1.1023,-1.082,-3.294,-3.3628,-3.3246,-3.3289,-3.3661,-3.2787,-3.2997,-3.3777,-3.343,-3.3499,-3.3883,-3.4824,-3.5095,-3.4885,-3.4892,-3.4632,-3.406,-3.4719,-3.4043,-3.2635,-3.3376,-3.3202,-3.204,-3.2067,-3.2453,-3.2877,-3.2158,-3.1926,-3.2064,-3.195,-3.189,-3.189,-3.189,-3.1963,-3.2096,-3.1763,-3.1508,-3.124,-3.0797,-3.005,-2.8998,-2.8385,-2.712,-2.5615,-2.5016,-2.4765,-2.4741,-2.4867,-2.4924,-2.4951,-2.4924,-2.4851,-2.4677,-2.4734,-2.4607,-2.435,-2.4292,-2.4292,-2.4305,-2.4421,-2.462,-2.4791,-2.4791,-2.4835,-2.4948,-2.5005,-2.4964,-2.4951,-2.4815,-2.4354,-2.3392,-2.3109,-2.2746,-2.2129,-2.1529,-2.1225,-2.1037,-2.0987,-2.0682,-2.032,-2.0407,-2.0434,-2.007,-1.9569,-1.9106,-1.8728,-1.8248,-1.7909,-1.7828,-1.7652,-1.7488,-1.7393,-1.7282,-1.7157,-1.7073,-1.6509,-1.5844,-1.5579,-1.5266,-1.4558,-1.4466,-1.443,-1.443,-1.443,-1.443,-1.4326,-1.4222,-1.3627,-1.2715,-1.2116,-1.1678,-1.1226,-1.1074,-1.0981,-1.0769,-3.2569,-3.294,-3.3355,-3.3639,-3.3715,-3.3093,-3.342,-3.4337,-3.441,-3.4533,-3.5005,-3.6552,-3.6929,-3.6354,-3.713,-3.7,-3.6345,-3.5804,-3.5236,-3.4794,-3.4423,-3.3906,-3.3208,-3.2289,-3.2419,-3.3183,-3.2731,-3.2406,-3.2515,-3.2461,-3.2253,-3.1944,-3.2036,-3.2109,-3.2036,-3.1963,-3.1928,-3.1626,-3.1191,-3.0606,-3.0014,-2.8772,-2.7784,-2.7296,-2.6432,-2.5746,-2.5356,-2.5503,-2.5398,-2.5032,-2.5005,-2.4892,-2.4721,-2.4664,-2.4607,-2.4478,-2.435,-2.435,-2.4421,-2.4332,-2.439,-2.4607,-2.4664,-2.4734,-2.4835,-2.4948,-2.5005,-2.5005,-2.5005,-2.4734,-2.4393,-2.3933,-2.3286,-2.2591,-2.1965,-2.1464,-2.1272,-2.1036,-2.0706,-2.0526,-2.067,-2.072,-2.0527,-2.0247,-1.9785,-1.9239,-1.8776,-1.8275,-1.7828,-1.7625,-1.7393,-1.7144,-1.7102,-1.7073,-1.6778,-1.6466,-1.5988,-1.5668,-1.5311,-1.4823,-1.4558,-1.4419,-1.443,-1.4373,-1.4373,-1.4035,-1.3789,-1.2812,-1.2008,-1.1719,-1.1226,-1.1023,-1.0922,-1.0828,-1.0667,-3.2973,-3.2973,-3.3704,-3.4032,-3.3956,-3.3741,-3.4181,-3.5072,-3.5074,-3.539,-3.6081,-3.7533,-3.79,-3.7507,-3.8109,-3.8299,-3.7745,-3.6836,-3.6298,-3.6198,-3.5425,-3.4812,-3.4308,-3.3345,-3.3237,-3.3904,-3.3342,-3.3104,-3.3125,-3.2863,-3.2474,-3.2125,-3.2071,-3.1977,-3.189,-3.1963,-3.1977,-3.1869,-3.1487,-3.0967,-3.0401,-2.9278,-2.8505,-2.8195,-2.7484,-2.6768,-2.6061,-2.5878,-2.5666,-2.5358,-2.529,-2.5233,-2.5175,-2.4958,-2.482,-2.4647,-2.4536,-2.4536,-2.4607,-2.4505,-2.4447,-2.4607,-2.4677,-2.4734,-2.4791,-2.4892,-2.4948,-2.5005,-2.5005,-2.5005,-2.4881,-2.4458,-2.3767,-2.2924,-2.2167,-2.1627,-2.1353,-2.0998,-2.0801,-2.0686,-2.0749,-2.0746,-2.0647,-2.0481,-1.9959,-1.9408,-1.8995,-1.8518,-1.7868,-1.7584,-1.731,-1.685,-1.685,-1.6723,-1.6324,-1.5944,-1.5888,-1.5656,-1.513,-1.4731,-1.4558,-1.4466,-1.4373,-1.4326,-1.4082,-1.3695,-1.2967,-1.194,-1.146,-1.1226,-1.0981,-1.0777,-1.0675,-1.0624,-1.0573,-3.4185,-3.3825,-3.4305,-3.448,-3.4427,-3.428,-3.5097,-3.5944,-3.5368,-3.5974,-3.7268,-3.7612,-3.79,-3.8109,-3.8304,-3.8277,-3.8119,-3.8025,-3.7382,-3.6446,-3.6424,-3.6155,-3.5581,-3.5122,-3.4926,-3.5129,-3.4567,-3.414,-3.4099,-3.3048,-3.2475,-3.2315,-3.1835,-3.1757,-3.189,-3.1743,-3.1817,-3.2009,-3.1736,-3.1168,-3.0207,-2.984,-2.9198,-2.8319,-2.8026,-2.7581,-2.6844,-2.6142,-2.5832,-2.5869,-2.59,-2.5887,-2.5828,-2.5553,-2.5207,-2.4953,-2.4818,-2.4791,-2.4791,-2.4848,-2.4791,-2.4859,-2.4818,-2.4805,-2.4899,-2.4889,-2.4892,-2.4948,-2.5005,-2.5005,-2.4948,-2.4724,-2.4139,-2.2977,-2.2365,-2.1691,-2.1218,-2.0941,-2.0838,-2.0725,-2.0712,-2.0562,-2.0359,-2.0267,-1.9919,-1.9206,-1.8845,-1.8505,-1.7813,-1.7488,-1.7227,-1.6795,-1.6539,-1.6281,-1.5844,-1.5445,-1.5534,-1.5522,-1.4915,-1.4466,-1.4466,-1.4373,-1.4326,-1.4233,-1.3732,-1.3294,-1.2521,-1.1601,-1.1209,-1.0922,-1.0726,-1.0573,-1.0573,-1.0522,-1.0522,-3.425,-3.3868,-3.4316,-3.4524,-3.4392,-3.3885,-3.4589,-3.6319,-3.5673,-3.6552,-3.8264,-3.8652,-3.8549,-3.8395,-3.8666,-3.8652,-3.8277,-3.8644,-3.847,-3.7593,-3.7237,-3.7097,-3.6721,-3.5772,-3.5368,-3.5371,-3.5143,-3.4835,-3.4299,-3.3472,-3.2771,-3.2256,-3.1814,-3.1622,-3.1683,-3.1743,-3.1963,-3.2109,-3.1977,-3.1602,-3.1258,-3.0308,-2.9624,-2.9251,-2.8372,-2.7839,-2.7813,-2.7185,-2.6687,-2.6344,-2.6465,-2.6538,-2.641,-2.5999,-2.5689,-2.5544,-2.5051,-2.4791,-2.4791,-2.4818,-2.4878,-2.4975,-2.4918,-2.4962,-2.5146,-2.5091,-2.5016,-2.5032,-2.5005,-2.5005,-2.4948,-2.4835,-2.4463,-2.4086,-2.2961,-2.2154,-2.1747,-2.1208,-2.0777,-2.0712,-2.0775,-2.0769,-2.0691,-2.0473,-1.994,-1.931,-1.8922,-1.8378,-1.7744,-1.7269,-1.6837,-1.6337,-1.6107,-1.5844,-1.5412,-1.5142,-1.5175,-1.5175,-1.4731,-1.443,-1.4373,-1.4316,-1.428,-1.3941,-1.3447,-1.2851,-1.208,-1.1401,-1.0964,-1.0769,-1.0624,-1.0573,-1.0522,-1.0522,-1.0522,-3.4349,-3.4119,-3.4392,-3.4524,-3.4515,-3.4314,-3.5108,-3.6372,-3.6734,-3.7586,-3.8742,-3.9114,-3.9038,-3.8756,-3.8845,-3.8666,-3.8304,-3.8666,-3.8666,-3.8251,-3.8229,-3.788,-3.7416,-3.6133,-3.5445,-3.5466,-3.5399,-3.513,-3.4661,-3.37,-3.2894,-3.233,-3.1757,-3.1522,-3.1609,-3.1743,-3.1904,-3.2036,-3.189,-3.1723,-3.1315,-3.053,-2.979,-2.9326,-2.8582,-2.8173,-2.8105,-2.786,-2.7467,-2.7058,-2.7074,-2.7149,-2.7121,-2.6782,-2.647,-2.6158,-2.5652,-2.5172,-2.5101,-2.5141,-2.5074,-2.5203,-2.5368,-2.5539,-2.5688,-2.5598,-2.5585,-2.5371,-2.5358,-2.5249,-2.5059,-2.4821,-2.4664,-2.4593,-2.3305,-2.2351,-2.1865,-2.1132,-2.0764,-2.0699,-2.0762,-2.0756,-2.0589,-2.0412,-1.9821,-1.9244,-1.8735,-1.8153,-1.7466,-1.6976,-1.6411,-1.5944,-1.5635,-1.5322,-1.4926,-1.4834,-1.4823,-1.4731,-1.4605,-1.4419,-1.4373,-1.4269,-1.4222,-1.3705,-1.3218,-1.2822,-1.2089,-1.1158,-1.0573,-1.0522,-1.0616,-1.0522,-1.0522,-1.0522,-1.0522,-3.4513,-3.4524,-3.4524,-3.4635,-3.4714,-3.5759,-3.6225,-3.656,-3.7787,-3.8549,-3.8769,-3.9127,-3.9203,-3.9038,-3.8679,-3.8395,-3.82,-3.8381,-3.8472,-3.8575,-3.8725,-3.8566,-3.7429,-3.6196,-3.5629,-3.5642,-3.548,-3.5304,-3.4994,-3.3688,-3.2922,-3.2673,-3.1777,-3.136,-3.1522,-3.1609,-3.1683,-3.1817,-3.1683,-3.1343,-3.0863,-3.0559,-2.9953,-2.899,-2.8873,-2.853,-2.8186,-2.8157,-2.8133,-2.7764,-2.7759,-2.7759,-2.7746,-2.7705,-2.723,-2.6809,-2.6253,-2.5837,-2.5738,-2.5824,-2.58,-2.554,-2.6062,-2.6545,-2.6369,-2.6371,-2.6229,-2.5801,-2.5792,-2.5602,-2.504,-2.4721,-2.4593,-2.4363,-2.3279,-2.2154,-2.0987,-2.0777,-2.0712,-2.0699,-2.0673,-2.0591,-2.0241,-2.0144,-1.9522,-1.8839,-1.8415,-1.7774,-1.7072,-1.6509,-1.6064,-1.5668,-1.5244,-1.4971,-1.4651,-1.4605,-1.4605,-1.4605,-1.4466,-1.4419,-1.428,-1.4129,-1.3884,-1.3409,-1.3025,-1.2638,-1.2147,-1.1259,-1.0871,-1.0972,-1.0871,-1.0616,-1.0522,-1.0522,-1.0522,-3.4736,-3.5157,-3.5157,-3.5157,-3.5232,-3.5666,-3.6135,-3.6484,-3.7222,-3.8187,-3.8742,-3.9114,-3.9051,-3.8589,-3.8935,-3.8756,-3.8485,-3.8756,-3.9024,-3.9024,-3.9216,-3.8627,-3.7487,-3.6307,-3.5723,-3.5642,-3.548,-3.5399,-3.5224,-3.3834,-3.3054,-3.287,-3.178,-3.1224,-3.136,-3.1373,-3.1508,-3.1596,-3.1508,-3.1294,-3.1082,-3.0685,-3.0296,-3.0006,-2.9684,-2.9305,-2.8866,-2.8608,-2.8468,-2.8397,-2.8356,-2.837,-2.8261,-2.761,-2.7284,-2.7325,-2.6552,-2.6013,-2.617,-2.6385,-2.6451,-2.6314,-2.6631,-2.6829,-2.6996,-2.6822,-2.6445,-2.5932,-2.577,-2.5509,-2.4882,-2.4549,-2.4191,-2.3546,-2.2955,-2.2206,-2.1394,-2.0897,-2.0699,-2.0699,-2.0699,-2.0644,-2.0548,-2.0154,-1.9606,-1.8942,-1.8252,-1.7491,-1.671,-1.6118,-1.5652,-1.5255,-1.488,-1.4651,-1.4466,-1.4419,-1.4419,-1.4466,-1.4419,-1.4419,-1.4186,-1.3894,-1.3505,-1.3016,-1.2725,-1.2384,-1.2098,-1.151,-1.1469,-1.1418,-1.0972,-1.0667,-1.0522,-1.0522,-1.0522,-3.5058,-3.5378,-3.5708,-3.5916,-3.6094,-3.6279,-3.6642,-3.7382,-3.799,-3.8371,-3.9002,-3.9487,-3.9357,-3.8769,-3.9127,-3.9127,-3.8756,-3.9114,-3.9305,-3.9264,-3.9034,-3.8383,-3.7473,-3.651,-3.5967,-3.5723,-3.5562,-3.5413,-3.5102,-3.4047,-3.3503,-3.3027,-3.1992,-3.1441,-3.1642,-3.1303,-3.1286,-3.1447,-3.1286,-3.1198,-3.1233,-3.0969,-3.0712,-3.0572,-3.0388,-3.006,-2.9457,-2.9064,-2.8872,-2.8668,-2.8587,-2.8587,-2.8546,-2.799,-2.7746,-2.803,-2.7101,-2.658,-2.6698,-2.6916,-2.6952,-2.6916,-2.7202,-2.7557,-2.7632,-2.7453,-2.7112,-2.6614,-2.6203,-2.5641,-2.5015,-2.458,-2.4116,-2.3699,-2.3067,-2.2387,-2.1616,-2.0989,-2.0751,-2.0699,-2.0699,-2.0712,-2.0812,-2.0201,-1.9625,-1.9028,-1.8318,-1.7345,-1.6416,-1.5828,-1.5315,-1.4958,-1.4719,-1.4512,-1.4419,-1.443,-1.443,-1.443,-1.4384,-1.4373,-1.414,-1.38,-1.3563,-1.3122,-1.2628,-1.2335,-1.2295,-1.2098,-1.176,-1.156,-1.1065,-1.0769,-1.0667,-1.0522,-1.0522,-3.5367,-3.5488,-3.5938,-3.658,-3.7027,-3.7295,-3.7543,-3.8354,-3.907,-3.9261,-3.9173,-3.9744,-3.9685,-3.9319,-3.9305,-3.9305,-3.9305,-3.9305,-3.9305,-3.9169,-3.8857,-3.8301,-3.7718,-3.7039,-3.6415,-3.5981,-3.5832,-3.5548,-3.5116,-3.4459,-3.3979,-3.3382,-3.2359,-3.1952,-3.178,-3.1323,-3.1163,-3.1211,-3.1136,-3.1136,-3.1198,-3.1193,-3.1043,-3.087,-3.0833,-3.0481,-2.9835,-2.9469,-2.9184,-2.86,-2.8587,-2.8587,-2.8587,-2.8546,-2.8505,-2.8397,-2.7769,-2.7256,-2.7317,-2.7394,-2.738,-2.7245,-2.7967,-2.8509,-2.8271,-2.8099,-2.7843,-2.7252,-2.6689,-2.5874,-2.5137,-2.4614,-2.4287,-2.3903,-2.3511,-2.2727,-2.1877,-2.1132,-2.0791,-2.0777,-2.0777,-2.0699,-2.0568,-2.0218,-1.9708,-1.9321,-1.8537,-1.7632,-1.6616,-1.5881,-1.531,-1.4813,-1.4598,-1.443,-1.443,-1.443,-1.443,-1.443,-1.443,-1.4326,-1.414,-1.3858,-1.3763,-1.3467,-1.2919,-1.2929,-1.318,-1.2832,-1.2295,-1.185,-1.151,-1.1116,-1.0769,-1.0573,-1.0522,-3.4947,-3.5378,-3.5488,-3.6134,-3.7015,-3.7139,-3.7568,-3.8367,-3.8754,-3.8956,-3.8962,-3.9365,-3.9454,-3.9305,-3.9305,-3.9305,-3.9305,-3.9305,-3.9305,-3.9278,-3.921,-3.8762,-3.822,-3.7636,-3.7012,-3.6441,-3.6237,-3.5843,-3.5223,-3.4538,-3.3911,-3.3686,-3.2633,-3.1849,-3.1784,-3.1494,-3.0986,-3.1061,-3.0999,-3.1088,-3.1136,-3.1272,-3.1267,-3.1156,-3.1042,-3.0751,-3.0214,-2.9726,-2.9197,-2.8763,-2.8587,-2.8587,-2.8519,-2.8207,-2.822,-2.8319,-2.7944,-2.7578,-2.7824,-2.7943,-2.7969,-2.7696,-2.8128,-2.8522,-2.8352,-2.8287,-2.8018,-2.7494,-2.664,-2.5712,-2.4636,-2.4262,-2.4171,-2.3995,-2.3616,-2.3171,-2.2753,-2.193,-2.1328,-2.1211,-2.0961,-2.0699,-2.0699,-2.062,-2.0152,-1.9625,-1.8862,-1.7959,-1.7013,-1.6097,-1.5527,-1.5092,-1.4679,-1.457,-1.4526,-1.4482,-1.443,-1.4373,-1.4373,-1.4326,-1.414,-1.3858,-1.3716,-1.3515,-1.317,-1.3324,-1.3573,-1.3266,-1.2628,-1.2286,-1.195,-1.146,-1.1023,-1.0769,-1.0522,-3.469,-3.4803,-3.5543,-3.6367,-3.7072,-3.7369,-3.799,-3.8752,-3.8926,-3.9023,-3.9119,-3.9563,-3.9563,-3.9305,-3.9305,-3.9305,-3.9305,-3.9305,-3.9305,-3.9305,-3.9292,-3.9115,-3.881,-3.8323,-3.7655,-3.671,-3.6666,-3.6149,-3.5245,-3.4868,-3.4528,-3.4091,-3.3131,-3.2581,-3.2267,-3.1965,-3.1585,-3.1219,-3.1425,-3.1438,-3.125,-3.1198,-3.1347,-3.1421,-3.1322,-3.0985,-3.0281,-2.997,-2.9375,-2.8831,-2.8587,-2.8587,-2.8573,-2.8315,-2.8329,-2.8424,-2.8201,-2.79,-2.813,-2.8183,-2.8208,-2.7987,-2.8327,-2.8379,-2.83,-2.8235,-2.8063,-2.7493,-2.6612,-2.5489,-2.4295,-2.4125,-2.4125,-2.4073,-2.3838,-2.3642,-2.342,-2.24,-2.1498,-2.1394,-2.0989,-2.0791,-2.0699,-2.0699,-2.0374,-1.9804,-1.9595,-1.8709,-1.7567,-1.6709,-1.6115,-1.5615,-1.5066,-1.4777,-1.4712,-1.4591,-1.4441,-1.4373,-1.4326,-1.4269,-1.4176,-1.3894,-1.361,-1.3467,-1.3372,-1.3372,-1.3515,-1.3208,-1.3016,-1.2628,-1.2187,-1.171,-1.1267,-1.0913,-1.0667,-3.4302,-3.4227,-3.5568,-3.6589,-3.7394,-3.7716,-3.8441,-3.9362,-3.944,-3.9311,-3.9352,-3.9848,-3.9631,-3.9386,-3.9305,-3.9305,-3.9305,-3.9305,-3.9305,-3.9305,-3.9305,-3.9264,-3.9081,-3.8714,-3.7987,-3.6646,-3.6909,-3.6351,-3.5434,-3.52,-3.4945,-3.4358,-3.3822,-3.3247,-3.2974,-3.2804,-3.2435,-3.1727,-3.1793,-3.1843,-3.1422,-3.129,-3.1286,-3.1495,-3.1455,-3.1109,-3.0435,-3.0075,-2.9646,-2.8752,-2.8641,-2.86,-2.8587,-2.8587,-2.8587,-2.8587,-2.8325,-2.8143,-2.8118,-2.8197,-2.8183,-2.8079,-2.8406,-2.8522,-2.8314,-2.8183,-2.8039,-2.7536,-2.6683,-2.5467,-2.44,-2.4151,-2.4138,-2.4112,-2.4112,-2.4125,-2.3851,-2.2688,-2.2021,-2.1629,-2.1289,-2.1013,-2.0791,-2.0686,-2.0371,-2.0077,-1.9889,-1.9444,-1.8335,-1.7314,-1.6797,-1.6203,-1.5659,-1.505,-1.493,-1.4613,-1.4428,-1.4326,-1.428,-1.4222,-1.4176,-1.3941,-1.3716,-1.3716,-1.3668,-1.361,-1.3563,-1.3467,-1.3218,-1.2919,-1.2579,-1.2147,-1.1651,-1.1108,-1.0913,-3.386,-3.4484,-3.4797,-3.6123,-3.7877,-3.7653,-3.8363,-3.9545,-3.9194,-3.9119,-3.9346,-3.94,-3.9441,-3.9319,-3.9305,-3.9305,-3.9305,-3.9305,-3.9305,-3.9305,-3.9305,-3.9203,-3.8997,-3.8881,-3.8172,-3.7493,-3.7219,-3.6624,-3.5608,-3.5391,-3.5044,-3.4397,-3.3901,-3.3603,-3.3448,-3.3146,-3.2857,-3.2358,-3.22,-3.19,-3.1651,-3.1284,-3.1123,-3.136,-3.136,-3.1037,-3.0668,-3.0247,-2.9766,-2.9187,-2.8793,-2.8655,-2.8587,-2.8587,-2.8587,-2.8522,-2.8327,-2.8131,-2.8079,-2.8145,-2.8145,-2.8145,-2.8392,-2.8444,-2.8314,-2.8183,-2.8039,-2.7589,-2.681,-2.5709,-2.4896,-2.4387,-2.4151,-2.4125,-2.4125,-2.4125,-2.3955,-2.342,-2.2648,-2.2256,-2.1734,-2.1132,-2.0895,-2.0699,-2.0555,-2.0312,-2.0142,-1.994,-1.9205,-1.8226,-1.7456,-1.6848,-1.6269,-1.5642,-1.5159,-1.4733,-1.4439,-1.4337,-1.428,-1.4186,-1.4093,-1.3952,-1.3821,-1.3716,-1.3668,-1.361,-1.361,-1.361,-1.3515,-1.3266,-1.2967,-1.2628,-1.2187,-1.1742,-1.161,-3.3269,-3.4116,-3.4586,-3.588,-3.7515,-3.7971,-3.8517,-3.9221,-3.9029,-3.9011,-3.9216,-3.9305,-3.9305,-3.9305,-3.9305,-3.9305,-3.9305,-3.9305,-3.9305,-3.9305,-3.9203,-3.8997,-3.8805,-3.8639,-3.8326,-3.7764,-3.7398,-3.6586,-3.5562,-3.5372,-3.4959,-3.4476,-3.4097,-3.397,-3.3868,-3.3802,-3.3356,-3.2988,-3.2581,-3.2175,-3.181,-3.1274,-3.1088,-3.1136,-3.1097,-3.0969,-3.0612,-3.0548,-3.0033,-2.9363,-2.9158,-2.8912,-2.8709,-2.8587,-2.8522,-2.8444,-2.8249,-2.8118,-2.8052,-2.8066,-2.8118,-2.7987,-2.8314,-2.8379,-2.8183,-2.8039,-2.7907,-2.7326,-2.6617,-2.5713,-2.5001,-2.4478,-2.4178,-2.4125,-2.4125,-2.4125,-2.406,-2.3825,-2.3367,-2.2779,-2.2034,-2.1368,-2.0817,-2.0699,-2.0699,-2.0586,-2.0398,-2.0169,-1.9901,-1.9175,-1.8223,-1.7391,-1.6804,-1.5994,-1.5415,-1.4925,-1.454,-1.4363,-1.4251,-1.4157,-1.3999,-1.3821,-1.3773,-1.3668,-1.3621,-1.361,-1.361,-1.361,-1.361,-1.3563,-1.317,-1.2774,-1.2628,-1.2433,-1.2295,-3.2994,-3.3958,-3.4921,-3.6056,-3.7402,-3.8277,-3.8769,-3.8922,-3.9011,-3.91,-3.9305,-3.9305,-3.9305,-3.9305,-3.9305,-3.9305,-3.9305,-3.9305,-3.9305,-3.9203,-3.9011,-3.8908,-3.8639,-3.8339,-3.7936,-3.7661,-3.6852,-3.6253,-3.5652,-3.5365,-3.4946,-3.4541,-3.4384,-3.4297,-3.4104,-3.4275,-3.3855,-3.3474,-3.287,-3.2528,-3.1718,-3.1248,-3.0986,-3.0986,-3.0986,-3.0839,-3.0619,-3.0559,-3.025,-2.9764,-2.9417,-2.9185,-2.8845,-2.8641,-2.8444,-2.8287,-2.8235,-2.8105,-2.7973,-2.7973,-2.8039,-2.7855,-2.8249,-2.8183,-2.7987,-2.7815,-2.7696,-2.6922,-2.636,-2.5811,-2.5288,-2.4648,-2.4295,-2.4125,-2.4125,-2.4125,-2.4125,-2.3968,-2.3707,-2.3067,-2.2283,-2.1799,-2.1446,-2.1013,-2.1028,-2.0922,-2.077,-2.0498,-2.0233,-1.985,-1.9031,-1.8054,-1.7193,-1.6365,-1.5701,-1.5207,-1.4778,-1.4505,-1.4334,-1.4158,-1.3926,-1.3726,-1.3668,-1.3621,-1.3621,-1.361,-1.361,-1.361,-1.361,-1.3515,-1.317,-1.3016,-1.3016,-1.2929,-1.2783,-3.3434,-3.4993,-3.551,-3.6951,-3.8522,-3.8819,-3.9024,-3.9216,-3.9216,-3.9305,-3.9305,-3.9305,-3.9305,-3.9305,-3.9305,-3.9305,-3.9305,-3.9305,-3.9203,-3.91,-3.8908,-3.8612,-3.8262,-3.7775,-3.7348,-3.7061,-3.6083,-3.5822,-3.5652,-3.5404,-3.4972,-3.4502,-3.4397,-3.4428,-3.4515,-3.4498,-3.4511,-3.4278,-3.3356,-3.2189,-3.13,-3.1039,-3.0999,-3.0986,-3.0973,-3.0934,-3.0813,-3.0731,-3.0427,-3.0428,-2.9657,-2.9403,-2.9226,-2.8687,-2.8368,-2.8197,-2.8079,-2.8066,-2.7842,-2.7842,-2.7908,-2.7855,-2.8066,-2.7987,-2.7855,-2.7656,-2.755,-2.7458,-2.687,-2.6255,-2.5667,-2.5158,-2.4674,-2.4308,-2.4125,-2.4125,-2.4112,-2.4112,-2.3851,-2.3642,-2.2962,-2.2662,-2.2389,-2.1825,-2.1407,-2.1237,-2.1041,-2.0768,-2.0448,-2.0067,-1.954,-1.8537,-1.7756,-1.695,-1.6134,-1.5622,-1.5188,-1.4761,-1.4422,-1.4192,-1.3987,-1.3793,-1.3668,-1.3621,-1.3621,-1.3621,-1.361,-1.361,-1.361,-1.3515,-1.3362,-1.342,-1.3515,-1.3372,-1.319,-3.4654,-3.5771,-3.6458,-3.7704,-3.9011,-3.91,-3.9203,-3.9305,-3.9305,-3.9305,-3.9305,-3.9305,-3.9305,-3.9305,-3.9305,-3.9305,-3.9305,-3.9305,-3.9216,-3.9011,-3.8805,-3.8479,-3.7891,-3.7385,-3.6996,-3.6332,-3.5783,-3.5469,-3.5443,-3.5103,-3.4607,-3.4463,-3.4397,-3.4397,-3.459,-3.4481,-3.4481,-3.414,-3.3354,-3.2136,-3.1287,-3.0986,-3.0986,-3.0986,-3.0986,-3.0986,-3.0983,-3.1014,-3.0778,-3.0743,-3.0231,-3.0062,-2.9753,-2.9201,-2.8705,-2.8411,-2.8093,-2.7881,-2.7656,-2.7723,-2.7723,-2.7723,-2.7868,-2.8,-2.7789,-2.759,-2.7469,-2.7443,-2.7,-2.6438,-2.5863,-2.5301,-2.4739,-2.4334,-2.4125,-2.4125,-2.4112,-2.4112,-2.4008,-2.3851,-2.3694,-2.3393,-2.2962,-2.2256,-2.1786,-2.1577,-2.1263,-2.0897,-2.0526,-2.0118,-1.954,-1.8845,-1.82,-1.7585,-1.676,-1.6062,-1.5699,-1.5241,-1.4545,-1.4341,-1.4104,-1.391,-1.3807,-1.3672,-1.3631,-1.3631,-1.3621,-1.361,-1.361,-1.361,-1.361,-1.3652,-1.3683,-1.3604,-1.346,-3.6307,-3.6845,-3.7322,-3.8264,-3.9319,-3.9305,-3.9305,-3.9305,-3.9305,-3.9224,-3.9088,-3.9061,-3.9129,-3.9292,-3.9305,-3.9305,-3.9305,-3.9305,-3.9216,-3.91,-3.8671,-3.8109,-3.7471,-3.698,-3.6292,-3.5887,-3.5286,-3.5064,-3.492,-3.4685,-3.445,-3.4397,-3.4397,-3.4397,-3.4397,-3.4358,-3.4293,-3.3731,-3.3091,-3.2123,-3.1209,-3.0986,-3.0986,-3.0986,-3.0986,-3.0986,-3.1061,-3.111,-3.0982,-3.1063,-3.0775,-3.0569,-3.0304,-2.9724,-2.9133,-2.8688,-2.8264,-2.7853,-2.7668,-2.7577,-2.7643,-2.7656,-2.7669,-2.7802,-2.7709,-2.759,-2.7469,-2.7456,-2.7,-2.6438,-2.5876,-2.5315,-2.4739,-2.436,-2.4125,-2.4125,-2.4112,-2.4112,-2.4112,-2.4008,-2.3942,-2.3995,-2.3459,-2.2635,-2.2165,-2.1943,-2.1538,-2.1131,-2.0771,-2.0463,-2.0049,-1.9531,-1.9114,-1.8583,-1.7858,-1.7057,-1.6481,-1.5796,-1.5141,-1.456,-1.4393,-1.4219,-1.4076,-1.3921,-1.3707,-1.3683,-1.3703,-1.3652,-1.361,-1.361,-1.3631,-1.3724,-1.3755,-1.3724,-1.3645,-3.8018,-3.8109,-3.8082,-3.8535,-3.9305,-3.9305,-3.9305,-3.9237,-3.9292,-3.8993,-3.86,-3.8532,-3.8844,-3.9169,-3.9278,-3.9305,-3.9305,-3.9305,-3.9149,-3.8693,-3.8132,-3.7661,-3.6973,-3.6205,-3.5482,-3.5273,-3.4855,-3.4607,-3.4489,-3.4528,-3.4397,-3.4397,-3.4397,-3.4397,-3.4397,-3.4371,-3.3835,-3.33,-3.2751,-3.2136,-3.1313,-3.0986,-3.0986,-3.0986,-3.0986,-3.0986,-3.0986,-3.1061,-3.1185,-3.1336,-3.105,-3.0908,-3.0726,-3.0147,-2.9485,-2.9029,-2.8615,-2.8206,-2.7811,-2.7575,-2.7523,-2.7536,-2.7536,-2.759,-2.759,-2.7523,-2.7469,-2.7497,-2.7092,-2.6504,-2.5916,-2.5328,-2.487,-2.4334,-2.4125,-2.4125,-2.4125,-2.4112,-2.4112,-2.4112,-2.4125,-2.4125,-2.406,-2.325,-2.2779,-2.257,-2.2139,-2.1734,-2.1525,-2.1237,-2.0923,-2.0539,-2.0246,-1.9715,-1.9164,-1.8417,-1.7512,-1.6813,-1.6197,-1.538,-1.4755,-1.46,-1.4587,-1.4179,-1.4014,-1.389,-1.3755,-1.3693,-1.3641,-1.3621,-1.3652,-1.3703,-1.3817,-1.3848,-1.3796,-3.7954,-3.8282,-3.7933,-3.8364,-3.9305,-3.9305,-3.9102,-3.8871,-3.9129,-3.8966,-3.8396,-3.8423,-3.8532,-3.879,-3.9183,-3.9305,-3.9305,-3.9305,-3.8884,-3.8438,-3.7865,-3.7196,-3.6392,-3.5733,-3.5142,-3.4803,-3.4489,-3.4397,-3.4424,-3.4397,-3.4397,-3.4397,-3.4397,-3.4397,-3.4397,-3.4332,-3.3692,-3.2986,-3.2594,-3.2123,-3.1248,-3.0986,-3.0986,-3.0986,-3.0986,-3.0986,-3.0986,-3.0986,-3.1211,-3.1381,-3.1256,-3.1249,-3.1216,-3.0565,-2.9979,-2.9508,-2.9175,-2.8634,-2.8085,-2.7771,-2.7469,-2.7469,-2.7536,-2.7469,-2.7549,-2.7469,-2.7469,-2.7445,-2.7288,-2.6739,-2.5916,-2.5589,-2.5223,-2.4478,-2.4125,-2.4125,-2.4125,-2.4125,-2.4125,-2.4125,-2.4125,-2.4125,-2.4047,-2.3903,-2.3524,-2.3184,-2.2727,-2.2335,-2.2152,-2.1955,-2.1689,-2.1371,-2.1062,-2.0365,-1.9708,-1.9064,-1.8382,-1.7775,-1.7162,-1.6262,-1.5403,-1.5397,-1.53,-1.4813,-1.4314,-1.4221,-1.4055,-1.3786,-1.3662,-1.3631,-1.3631,-1.3662,-1.3786,-1.3931,-1.39,-3.7725,-3.8328,-3.7786,-3.8111,-3.8966,-3.8857,-3.8545,-3.8288,-3.8572,-3.8572,-3.8165,-3.8138,-3.8165,-3.8328,-3.8749,-3.8844,-3.8722,-3.8654,-3.8303,-3.7833,-3.7197,-3.6585,-3.5798,-3.5207,-3.4776,-3.445,-3.4397,-3.4397,-3.4397,-3.4397,-3.4397,-3.4397,-3.4397,-3.4397,-3.4397,-3.4332,-3.3757,-3.2764,-3.262,-3.2175,-3.1219,-3.1061,-3.1061,-3.1061,-3.0986,-3.0986,-3.1061,-3.1061,-3.1286,-3.1447,-3.1556,-3.1495,-3.1375,-3.109,-3.0553,-3.0131,-2.9745,-2.9261,-2.8686,-2.815,-2.7719,-2.7575,-2.7785,-2.7706,-2.7589,-2.7469,-2.7469,-2.7497,-2.7353,-2.6883,-2.5903,-2.555,-2.5079,-2.4308,-2.4151,-2.4125,-2.4125,-2.4125,-2.4125,-2.4125,-2.4125,-2.4125,-2.4099,-2.4047,-2.3929,-2.3563,-2.3132,-2.2818,-2.2714,-2.2528,-2.2395,-2.2115,-2.1834,-2.0999,-2.0147,-1.9673,-1.9107,-1.8288,-1.7632,-1.6786,-1.6159,-1.6144,-1.578,-1.5038,-1.4666,-1.4562,-1.4345,-1.4055,-1.3828,-1.3631,-1.3703,-1.3817,-1.3745,-1.3879,-1.3931,-3.7781,-3.8328,-3.7718,-3.7826,-3.8288,-3.7826,-3.7596,-3.7528,-3.7541,-3.7555,-3.7541,-3.7541,-3.7541,-3.7677,-3.8165,-3.8206,-3.7908,-3.7786,-3.7479,-3.7075,-3.6583,-3.5973,-3.5402,-3.4918,-3.4541,-3.4437,-3.4397,-3.4397,-3.4397,-3.4397,-3.4397,-3.4397,-3.4397,-3.4397,-3.4397,-3.4384,-3.3509,-3.2228,-3.2646,-3.2029,-3.131,-3.1123,-3.1123,-3.1061,-3.0986,-3.0986,-3.1061,-3.1123,-3.136,-3.1522,-3.1669,-3.1669,-3.1556,-3.1468,-3.0969,-3.0255,-3.0189,-2.9836,-2.9301,-2.8699,-2.8268,-2.7889,-2.8124,-2.8033,-2.7693,-2.7549,-2.7469,-2.751,-2.7196,-2.6634,-2.5942,-2.5393,-2.4883,-2.4452,-2.4308,-2.4125,-2.4125,-2.4125,-2.4125,-2.4125,-2.4125,-2.4125,-2.4125,-2.4125,-2.4138,-2.3903,-2.3511,-2.3302,-2.3223,-2.3115,-2.2968,-2.2652,-2.2386,-2.1933,-2.1081,-2.0483,-1.9799,-1.8925,-1.8259,-1.7632,-1.6961,-1.6613,-1.6084,-1.5331,-1.5101,-1.507,-1.4707,-1.4314,-1.4086,-1.389,-1.3972,-1.4035,-1.391,-1.3817,-1.3879,-3.7026,-3.7161,-3.6578,-3.6673,-3.7202,-3.746,-3.7311,-3.6877,-3.6551,-3.6551,-3.6849,-3.6917,-3.6917,-3.7094,-3.7487,-3.7677,-3.7541,-3.7429,-3.7263,-3.64,-3.6062,-3.5518,-3.4989,-3.4638,-3.4397,-3.4397,-3.4397,-3.4397,-3.4397,-3.4397,-3.4397,-3.4397,-3.4397,-3.4397,-3.428,-3.4071,-3.3273,-3.2515,-3.2306,-3.1821,-3.1091,-3.1061,-3.1048,-3.0986,-3.0986,-3.0986,-3.1061,-3.1198,-3.1434,-3.1609,-3.1757,-3.1669,-3.1609,-3.1535,-3.1193,-3.076,-3.0673,-3.0438,-3.0006,-2.9575,-2.9301,-2.8882,-2.8464,-2.836,-2.8085,-2.7706,-2.7602,-2.7456,-2.7327,-2.687,-2.6465,-2.5903,-2.5367,-2.4805,-2.4517,-2.4217,-2.4125,-2.4125,-2.4125,-2.4125,-2.4125,-2.4217,-2.4256,-2.4517,-2.4583,-2.4334,-2.3955,-2.3812,-2.3733,-2.3733,-2.361,-2.3219,-2.286,-2.2579,-2.2056,-2.1362,-2.047,-1.958,-1.9253,-1.8998,-1.8265,-1.7155,-1.6616,-1.598,-1.581,-1.5566,-1.507,-1.4614,-1.4335,-1.419,-1.4107,-1.4035,-1.39,-1.3828,-1.3848,-3.6415,-3.6524,-3.5967,-3.6049,-3.6578,-3.6822,-3.6659,-3.6252,-3.59,-3.5954,-3.628,-3.6483,-3.6469,-3.6537,-3.6877,-3.7012,-3.6944,-3.6807,-3.6558,-3.5742,-3.5645,-3.5156,-3.4778,-3.4481,-3.4494,-3.4494,-3.4397,-3.4397,-3.4397,-3.4397,-3.4397,-3.4397,-3.4397,-3.4397,-3.4293,-3.4018,-3.3509,-3.2829,-3.2424,-3.2057,-3.152,-3.1219,-3.1061,-3.1061,-3.0986,-3.0986,-3.1061,-3.1211,-3.1434,-3.1609,-3.1683,-3.1669,-3.1609,-3.1447,-3.1286,-3.1136,-3.0947,-3.0764,-3.0503,-3.0411,-3.015,-2.9915,-2.917,-2.8529,-2.819,-2.7693,-2.7575,-2.7469,-2.7469,-2.721,-2.6739,-2.6203,-2.5863,-2.5288,-2.4844,-2.4543,-2.4413,-2.4439,-2.423,-2.4217,-2.4465,-2.4504,-2.4622,-2.4857,-2.5105,-2.4766,-2.4413,-2.4295,-2.4151,-2.4073,-2.4034,-2.3663,-2.3384,-2.3192,-2.2744,-2.2141,-2.1235,-2.0268,-1.9868,-1.965,-1.8351,-1.7079,-1.6884,-1.668,-1.6269,-1.5835,-1.5328,-1.4914,-1.4542,-1.419,-1.3931,-1.3869,-1.3838,-1.3859,-1.3879,-3.6049,-3.6442,-3.5954,-3.6035,-3.6415,-3.6049,-3.5791,-3.5737,-3.5723,-3.5723,-3.5778,-3.632,-3.6252,-3.594,-3.6347,-3.632,-3.5927,-3.5669,-3.5479,-3.5192,-3.508,-3.4795,-3.4699,-3.4494,-3.4577,-3.4577,-3.4577,-3.4397,-3.4397,-3.4397,-3.4397,-3.4397,-3.4397,-3.4397,-3.4358,-3.4214,-3.3652,-3.2934,-3.2489,-3.2083,-3.1509,-3.1333,-3.1176,-3.1061,-3.0986,-3.1061,-3.1136,-3.1373,-3.1522,-3.1683,-3.1904,-3.1817,-3.1743,-3.1609,-3.1373,-3.1136,-3.0986,-3.0934,-3.0895,-3.0856,-3.0751,-3.0385,-2.9706,-2.8752,-2.8085,-2.7771,-2.7482,-2.7469,-2.7456,-2.7196,-2.6817,-2.6595,-2.6373,-2.5837,-2.5328,-2.5092,-2.4949,-2.4779,-2.4491,-2.457,-2.4962,-2.5171,-2.5406,-2.5615,-2.5602,-2.5001,-2.4648,-2.4426,-2.4282,-2.4125,-2.4086,-2.4073,-2.3884,-2.3833,-2.3354,-2.2821,-2.1973,-2.0979,-2.0135,-1.9645,-1.8287,-1.7328,-1.708,-1.6843,-1.6561,-1.6094,-1.5535,-1.5059,-1.4656,-1.4345,-1.4273,-1.4045,-1.4117,-1.3983,-1.3924,-3.5818,-3.5954,-3.5791,-3.5818,-3.5927,-3.5791,-3.571,-3.571,-3.571,-3.571,-3.5737,-3.5886,-3.5886,-3.575,-3.59,-3.5764,-3.5616,-3.5399,-3.5181,-3.5003,-3.4839,-3.4756,-3.4673,-3.4577,-3.4577,-3.466,-3.4577,-3.4397,-3.4397,-3.4397,-3.4397,-3.4397,-3.4397,-3.4397,-3.4397,-3.4397,-3.3639,-3.2947,-3.2529,-3.2057,-3.1522,-3.1219,-3.1088,-3.1061,-3.0986,-3.1061,-3.1211,-3.1447,-3.1609,-3.1683,-3.189,-3.1817,-3.1434,-3.136,-3.1198,-3.1061,-3.0986,-3.0973,-3.0986,-3.0986,-3.0869,-3.049,-2.9758,-2.934,-2.866,-2.8098,-2.7561,-2.7469,-2.7469,-2.7288,-2.7105,-2.6922,-2.6752,-2.6412,-2.5929,-2.5641,-2.5484,-2.5328,-2.5079,-2.5275,-2.5654,-2.585,-2.6099,-2.6282,-2.6164,-2.5406,-2.487,-2.4635,-2.436,-2.4191,-2.4125,-2.4125,-2.4067,-2.3995,-2.3949,-2.3476,-2.2598,-2.1724,-2.0867,-1.9881,-1.8709,-1.7856,-1.7402,-1.7011,-1.6576,-1.6136,-1.568,-1.5287,-1.4997,-1.507,-1.4997,-1.4645,-1.4366,-1.4324,-1.4242,-3.571,-3.571,-3.571,-3.571,-3.571,-3.571,-3.571,-3.571,-3.571,-3.571,-3.571,-3.5723,-3.571,-3.571,-3.5737,-3.5642,-3.5413,-3.5318,-3.5072,-3.4839,-3.4673,-3.4756,-3.4673,-3.459,-3.459,-3.4673,-3.4577,-3.4397,-3.4397,-3.4397,-3.4397,-3.4397,-3.4397,-3.4397,-3.4397,-3.4332,-3.3927,-3.3182,-3.2542,-3.2032,-3.1627,-3.1196,-3.1013,-3.0986,-3.0986,-3.1136,-3.1272,-3.1522,-3.1609,-3.1669,-3.189,-3.1817,-3.1508,-3.1421,-3.1272,-3.1136,-3.1061,-3.1061,-3.0986,-3.0986,-3.0777,-3.0451,-2.9941,-2.9693,-2.9091,-2.8425,-2.7889,-2.7469,-2.7469,-2.7484,-2.7366,-2.7249,-2.7131,-2.6987,-2.6595,-2.619,-2.6046,-2.5916,-2.5994,-2.6138,-2.6334,-2.6504,-2.67,-2.6883,-2.6661,-2.5837,-2.521,-2.4883,-2.4517,-2.4164,-2.4125,-2.4125,-2.4125,-2.4067,-2.4008,-2.3832,-2.2984,-2.2175,-2.1534,-2.0473,-1.9166,-1.8112,-1.7452,-1.6978,-1.6576,-1.6146,-1.5784,-1.5691,-1.5515,-1.5556,-1.5484,-1.5142,-1.4935,-1.4976,-1.4863,-3.571,-3.571,-3.571,-3.571,-3.571,-3.571,-3.571,-3.571,-3.571,-3.571,-3.571,-3.571,-3.571,-3.571,-3.571,-3.5548,-3.5399,-3.5168,-3.499,-3.4756,-3.4577,-3.4577,-3.466,-3.4577,-3.4673,-3.4673,-3.4577,-3.4481,-3.4397,-3.4397,-3.4397,-3.4397,-3.4397,-3.4397,-3.4397,-3.4397,-3.4045,-3.347,-3.2999,-3.266,-3.215,-3.1601,-3.1061,-3.1061,-3.1136,-3.1211,-3.136,-3.1508,-3.1669,-3.1817,-3.189,-3.183,-3.1743,-3.1495,-3.1347,-3.1272,-3.1136,-3.1136,-3.1061,-3.1061,-3.1061,-3.0751,-3.0477,-3.0124,-2.9483,-2.8595,-2.7968,-2.7889,-2.7941,-2.7785,-2.7654,-2.7471,-2.734,-2.7249,-2.7,-2.6778,-2.6687,-2.6582,-2.6569,-2.6713,-2.6804,-2.6987,-2.7118,-2.7262,-2.6987,-2.619,-2.5615,-2.5223,-2.4713,-2.4269,-2.4112,-2.4112,-2.4125,-2.4067,-2.4008,-2.376,-2.3185,-2.2494,-2.1844,-2.0756,-1.9306,-1.8275,-1.7347,-1.6891,-1.6436,-1.6229,-1.596,-1.5908,-1.5866,-1.5815,-1.5711,-1.5515,-1.5463,-1.5535,-1.539,-3.571,-3.571,-3.571,-3.571,-3.571,-3.571,-3.571,-3.571,-3.571,-3.571,-3.571,-3.571,-3.571,-3.571,-3.571,-3.548,-3.5236,-3.5086,-3.4825,-3.466,-3.4397,-3.4577,-3.4743,-3.4756,-3.4756,-3.4756,-3.4673,-3.4577,-3.4397,-3.4397,-3.4397,-3.4397,-3.4397,-3.4397,-3.4397,-3.4384,-3.4058,-3.3773,-3.3382,-3.287,-3.2227,-3.1701,-3.1272,-3.1286,-3.1286,-3.1447,-3.1596,-3.1596,-3.1743,-3.1817,-3.1757,-3.1683,-3.1669,-3.1434,-3.1434,-3.1447,-3.1211,-3.1211,-3.1299,-3.1211,-3.1136,-3.0979,-3.0616,-3.0281,-2.9706,-2.8752,-2.8281,-2.836,-2.8281,-2.8098,-2.7902,-2.7706,-2.7456,-2.7458,-2.7392,-2.7327,-2.7275,-2.721,-2.7131,-2.7183,-2.7262,-2.7366,-2.7497,-2.7392,-2.7118,-2.6634,-2.6046,-2.5524,-2.4922,-2.4439,-2.4093,-2.4054,-2.4067,-2.4067,-2.4067,-2.3819,-2.3318,-2.2616,-2.1892,-2.0717,-1.9389,-1.8309,-1.7305,-1.6767,-1.6332,-1.6208,-1.6177,-1.6239,-1.6187,-1.6084,-1.6032,-1.5887,-1.5949,-1.6022,-1.5846,-3.571,-3.571,-3.571,-3.571,-3.571,-3.571,-3.571,-3.571,-3.571,-3.571,-3.571,-3.571,-3.5629,-3.5548,-3.5548,-3.5399,-3.5086,-3.5003,-3.4743,-3.4494,-3.4481,-3.4577,-3.4673,-3.4839,-3.4743,-3.466,-3.466,-3.4494,-3.4397,-3.4397,-3.4397,-3.4397,-3.4397,-3.4481,-3.4454,-3.4297,-3.4153,-3.4268,-3.3647,-3.2975,-3.2317,-3.2061,-3.1483,-3.1492,-3.1447,-3.1596,-3.1669,-3.1669,-3.1817,-3.189,-3.189,-3.1817,-3.1743,-3.1596,-3.1596,-3.1582,-3.1434,-3.1286,-3.1447,-3.1447,-3.1286,-3.1127,-3.0987,-3.0716,-3.049,-2.9627,-2.9065,-2.9039,-2.8451,-2.8203,-2.8059,-2.7876,-2.7628,-2.7484,-2.7471,-2.7445,-2.7419,-2.7392,-2.7366,-2.7379,-2.7432,-2.7445,-2.7469,-2.7456,-2.721,-2.6713,-2.619,-2.5667,-2.5092,-2.4713,-2.4341,-2.406,-2.4112,-2.4106,-2.4054,-2.3878,-2.3509,-2.275,-2.1916,-2.0529,-1.9178,-1.8133,-1.7253,-1.6888,-1.6613,-1.6353,-1.6353,-1.6477,-1.642,-1.626,-1.628,-1.6301,-1.6374,-1.6374,-1.6177,-3.5493,-3.5601,-3.5683,-3.571,-3.571,-3.571,-3.571,-3.571,-3.571,-3.571,-3.571,-3.571,-3.5548,-3.548,-3.5399,-3.5154,-3.5003,-3.5003,-3.4743,-3.4577,-3.4647,-3.4577,-3.466,-3.4743,-3.4743,-3.466,-3.4577,-3.4481,-3.4397,-3.4397,-3.4397,-3.4397,-3.4481,-3.4577,-3.4515,-3.4318,-3.4146,-3.4245,-3.3834,-3.3143,-3.2824,-3.2701,-3.1912,-3.1492,-3.1447,-3.1535,-3.1582,-3.1656,-3.189,-3.1963,-3.2036,-3.2036,-3.189,-3.1743,-3.1817,-3.1817,-3.1582,-3.1508,-3.1596,-3.1609,-3.1522,-3.1347,-3.1347,-3.1145,-3.0891,-3.0516,-2.9954,-2.9418,-2.883,-2.8399,-2.8255,-2.8033,-2.7785,-2.7469,-2.7469,-2.7469,-2.7469,-2.7469,-2.7469,-2.7469,-2.7469,-2.7469,-2.7469,-2.7469,-2.7262,-2.6778,-2.6282,-2.572,-2.5275,-2.5018,-2.4771,-2.439,-2.4227,-2.4183,-2.4047,-2.3747,-2.3378,-2.2494,-2.1506,-2.0266,-1.8997,-1.7976,-1.7324,-1.7263,-1.6979,-1.6675,-1.6581,-1.6694,-1.6581,-1.6452,-1.6374,-1.6374,-1.6374,-1.6374,-1.6374,-3.4492,-3.5031,-3.5506,-3.5696,-3.5683,-3.5696,-3.571,-3.571,-3.571,-3.571,-3.571,-3.571,-3.5629,-3.5629,-3.5629,-3.548,-3.5168,-3.5086,-3.4921,-3.4756,-3.466,-3.4481,-3.4494,-3.4756,-3.4756,-3.4756,-3.466,-3.4577,-3.4524,-3.4454,-3.4468,-3.4607,-3.4441,-3.462,-3.4868,-3.4669,-3.4402,-3.4406,-3.4232,-3.3657,-3.3045,-3.272,-3.2072,-3.183,-3.1963,-3.1963,-3.189,-3.1904,-3.189,-3.1963,-3.205,-3.2109,-3.2036,-3.189,-3.189,-3.1963,-3.173,-3.1743,-3.183,-3.1757,-3.1596,-3.1447,-3.136,-3.1198,-3.0983,-3.0908,-3.0385,-2.9941,-2.9379,-2.883,-2.8582,-2.8268,-2.7994,-2.7667,-2.7469,-2.7469,-2.7469,-2.7469,-2.7469,-2.7469,-2.7469,-2.7469,-2.7469,-2.7469,-2.7456,-2.7079,-2.6726,-2.619,-2.5772,-2.5449,-2.5127,-2.4771,-2.4429,-2.4034,-2.379,-2.3509,-2.3065,-2.2125,-2.1169,-2.0034,-1.8892,-1.7779,-1.7251,-1.7252,-1.7179,-1.7008,-1.6965,-1.6779,-1.6711,-1.6571,-1.6452,-1.6374,-1.6374,-1.6374,-1.6374]},{"header":{"parameterUnit":"m.s-1","parameterCategory":1,"la1":31.0,"la2":29.5877,"lo1":-88.7671,"lo2":-86.6584,"dy":0.0162,"dx":0.0185,"nx":115,"ny":88,"refTime":"2023-08-12T06:00:00:Z","depth":0,"parameterNumber":3,"parameterNumberName":"V-component_of_WINDS"},"data":[0.0,0.0,0.0,0.0,0.0,0.0,0.0,0.0,0.0,0.0,0.0,0.0,0.0,0.0,0.0,0.0,0.0,0.0,0.0,0.0,0.0,0.0,0.0,0.0,0.0,0.0,0.0,0.0,0.0,0.0,0.0,0.0,0.0,0.0,0.0,0.0,0.0,0.0,0.0,0.0,0.0,0.0,0.0,0.0,0.0,0.0,0.0,0.0,0.0,0.0,0.0,0.0,0.0,0.0,0.0,0.0,0.0,0.0,0.0,0.0,0.0,0.0,0.0,0.0,0.0,0.0,0.0,0.0,0.0,0.0,0.0,0.0,0.0,0.0,0.0,0.0,0.0,0.0,0.0,0.0,0.0,0.0,0.0,0.0,0.0,0.0,0.0,0.0,0.0,0.0,0.0,0.0,0.0,0.0,0.0,0.0,0.0,0.0,0.0,0.0,0.0,0.0,0.0,0.0,0.0,0.0,0.0,0.0,0.0,0.0,0.0,0.0,0.0,0.0,0.0,0.0,0.0,0.0,0.0,0.0,0.0,0.0,0.0,0.0,0.0,0.0,0.0,0.0,0.0,0.0,0.0,0.0,0.0,0.0,0.0,0.0,0.0,0.0,0.0,0.0,0.0,0.0,0.0,0.0,0.0,0.0,0.0,0.0,0.0,0.0,0.0,0.0,0.0,0.0,0.0,0.0,0.0,0.0,0.0,0.0,0.0,0.0,0.0,0.0,0.0,0.0,0.0,0.0,0.0,0.0,0.0,0.0,0.0,0.0,0.0,0.0,0.0,0.0,0.0,0.0,0.0,0.0,0.0,0.0,0.0,0.0,0.0,0.0,0.0,0.0,0.0,0.0,0.0,0.0,0.0,0.0,0.0,0.0,0.0,0.0,0.0,0.0,0.0,0.0,0.0,0.0,0.0,0.0,0.0,0.0,0.0,0.0,0.0,0.0,0.0,0.0,0.0,0.0,0.0,0.0,0.0,0.0,0.0,0.0,0.0,0.0,0.0,0.0,0.0,0.0,0.0,0.0,0.0,0.0,0.0,0.0,0.0,0.0,0.0,0.0,0.0,0.0,0.0,0.0,0.0,0.0,0.0,0.0,0.0,0.0,0.0,0.0,0.0,0.0,0.0,0.0,0.0,0.0,0.0,0.0,0.0,0.0,0.0,0.0,0.0,0.0,0.0,0.0,0.0,0.0,0.0,0.0,0.0,0.0,0.0,0.0,0.0,0.0,0.0,0.0,0.0,0.0,0.0,0.0,0.0,0.0,0.0,0.0,0.0,0.0,0.0,0.0,0.0,0.0,0.0,0.0,0.0,0.0,0.0,0.0,0.0,0.0,0.0,0.0,0.0,0.0,0.0,0.0,0.0,0.0,0.0,0.0,0.0,0.0,0.0,0.0,0.0,0.0,0.0,0.0,0.0,0.0,0.0,0.0,0.0,0.0,0.0,0.0,0.0,0.0,0.0,0.0,0.0,0.0,0.0,0.0,0.0,0.0,0.0,0.0,0.0,0.0,0.0,0.0,0.0,0.0,0.0,0.0,0.0,0.0,0.0,0.0,0.0,0.0,0.0,0.0,0.0,0.0,0.0,0.0,0.0,0.0,0.0,0.0,0.0,0.0,0.0,0.0,0.0,0.0,0.0,0.0,0.0,0.0,0.0,0.0,0.0,0.0,0.0,0.0,0.0,0.0,0.0,0.0,0.0,0.0,0.0,0.0,0.0,0.0,0.0,0.0,0.0,0.0,0.0,0.0,0.0,0.0,0.0,0.0,0.0,0.0,0.0,0.0,0.0,0.0,0.0,0.0,0.0,0.0,0.0,0.0,0.0,0.0,0.0,0.0,0.0,0.0,0.0,0.0,0.0,0.0,0.0,0.0,0.0,0.0,0.0,0.0,0.0,0.0,0.0,0.0,0.0,0.0,0.0,0.0,0.0,0.0,0.0,0.0,0.0,0.0,0.0,0.0,0.0,0.0,0.0,0.0,0.0,0.0,0.0,0.0,0.0,0.0,0.0,0.0,0.0,0.0,0.0,0.0,0.0,0.0,0.0,0.0,0.0,0.0,0.0,0.0,0.0,0.0,0.0,0.0,0.0,0.0,0.0,0.0,0.0,0.0,0.0,0.0,0.0,0.0,0.0,0.0,0.0,0.0,0.0,0.0,0.0,0.0,0.0,0.0,0.0,0.0,0.0,0.0,0.0,0.0,0.0,0.0,0.0,0.0,0.0,0.0,0.0,0.0,0.0,0.0,0.0,0.0,0.0,0.0,0.0,0.0,0.0,0.0,0.0,0.0,0.0,0.0,0.0,0.0,0.0,0.0,0.0,0.0,0.0,0.0,0.0,0.0,0.0,0.0,0.0,0.0,0.0,0.0,0.0,0.0,0.0,0.0,0.0,0.0,0.0,0.0,0.0,0.0,0.0,0.0,0.0,0.0,0.0,0.0,0.0,0.0,0.0,0.0,0.0,0.0,0.0,0.0,0.0,0.0,0.0,0.0,0.0,0.0,0.0,0.0,0.0,0.0,0.0,0.0,0.0,0.0,0.0,0.0,0.0,0.0,0.0,0.0,0.0,0.0,0.0,0.0,0.0,0.0,0.0,0.0,0.0,0.0,0.0,0.0,0.0,0.0,0.0,0.0,0.0,0.0,0.0,0.0,0.0,0.0,0.0,0.0,0.0,0.0,0.0,0.0,0.0,0.0,0.0,0.0,0.0,0.0,0.0,0.0,0.0,0.0,0.0,0.0,0.0,0.0,0.0,0.0,0.0,0.0,0.0,0.0,0.0,0.0,0.0,0.0,0.0,0.0,0.0,0.0,0.0,0.0,0.0,0.0,0.0,0.0,0.0,0.0,0.0,0.0,0.0,0.0,0.0,0.0,0.0,0.0,0.0,0.0,0.0,0.0,0.0,0.0,0.0,0.0,0.0,0.0,0.0,0.0,0.0,0.0,0.0,0.0,0.0,0.0,0.0,0.0,0.0,0.0,0.0,0.0,0.0,0.0,0.0,0.0,0.0,0.0,0.0,0.0,0.0,0.0,0.0,0.0,0.0,0.0,0.0,0.0,0.0,0.0,0.0,0.0,0.0,0.0,0.0,0.0,0.0,0.0,0.0,0.0,0.0,0.0,0.0,0.0,0.0,0.0,0.0,0.0,0.0,0.0,0.0,0.0,0.0,0.0,0.0,0.0,0.0,0.0,0.0,0.0,0.0,0.0,0.0,0.0,0.0,0.0,0.0,0.0,0.0,0.0,0.0,0.0,0.0,0.0,0.0,0.0,0.0,0.0,0.0,0.0,0.0,0.0,0.0,0.0,0.0,0.0,0.0,0.0,0.0,0.0,0.0,0.0,0.0,0.0,0.0,0.0,0.0,0.0,0.0,0.0,0.0,0.0,0.0,0.0,0.0,0.0,0.0,0.0,0.0,0.0,0.0,0.0,0.0,0.0,0.0,0.0,0.0,0.0,0.0,0.0,0.0,0.0,0.0,0.0,0.0,0.0,0.0,0.0,0.0,0.0,0.0,0.0,0.0,0.0,0.0,0.0,0.0,0.0,0.0,0.0,0.0,0.0,0.0,0.0,0.0,0.0,0.0,0.0,0.0,0.0,0.0,0.0,0.0,0.0,0.0,0.0,0.0,0.0,0.0,0.0,0.0,0.0,0.0,0.0,0.0,0.0,0.0,0.0,0.0,0.0,0.0,0.0,0.0,0.0,0.0,0.0,0.0,0.0,0.0,0.0,0.0,0.0,0.0,0.0,0.0,0.0,0.0,0.0,0.0,0.0,0.0,0.0,0.0,0.0,0.0,0.0,0.0,0.0,0.0,0.0,0.0,0.0,0.0,0.0,0.0,0.0,0.0,0.0,0.0,0.0,0.0,0.0,0.0,0.0,0.0,0.0,0.0,0.0,0.0,0.0,0.0,0.0,0.0,0.0,0.0,0.0,0.0,0.0,0.0,0.0,0.0,0.0,0.0,0.0,0.0,0.0,0.0,0.0,0.0,0.0,0.0,0.0,0.0,0.0,0.0,0.0,0.0,0.0,0.0,0.0,0.0,0.0,0.0,0.0,0.0,0.0,0.0,0.0,0.0,0.0,0.0,0.0,0.0,0.0,0.0,0.0,0.0,0.0,0.0,0.0,0.0,0.0,0.0,0.0,0.0,0.0,0.0,0.0,0.0,0.0,0.0,0.0,0.0,0.0,0.0,0.0,0.0,0.0,0.0,0.0,0.0,0.0,0.0,0.0,0.0,0.0,0.0,0.0,0.0,0.0,0.0,0.0,0.4852,0.0,0.0,0.0,0.0,0.0,0.0,0.0,0.0,0.0,0.0,0.0,0.0,0.0,0.0,0.0,0.0,0.0,0.0,0.0,0.0,0.0,0.0,0.0,0.0,0.0,0.0,0.0,0.0,0.0,0.0,0.0,0.0,0.0,0.0,0.0,0.0,0.0,0.0,0.0,0.0,0.0,0.0,0.0,0.0,0.0,0.0,0.0,0.0,0.0,0.0,0.0,0.0,0.0,0.0,0.0,0.0,0.0,0.0,0.0,0.0,0.0,0.0,0.0,0.0,0.0,0.0,0.0,0.0,0.0,0.0,0.0,0.0,0.0,0.0,0.0,0.0,0.0,0.0,0.0,0.0,0.0,0.0,0.0,0.0,0.0,0.0,0.0,0.0,0.0,0.0,0.0,0.0,0.0,0.0,0.0,0.0,0.0,0.0,0.0,0.0,0.0,0.0,0.0,0.0,0.0,0.0,0.0,0.0,0.0,0.0,0.2347,0.2425,0.3822,0.4336,0.3861,0.0,0.0,0.0,0.0,0.0,0.0,0.0,0.0,0.0,0.0,0.0,0.0,0.0,0.0,0.0,0.0,0.0,0.0,0.0,0.0,0.0,0.0,0.0,0.0,0.0,0.0,0.0,0.0,0.0,0.0,0.0,0.0,0.0,0.0,0.0,0.0,0.0,0.0,0.0,0.0,0.0,0.0,0.0,0.0,0.0,0.0,0.0,0.0,0.0,0.0,0.0,0.0,0.0,0.0,0.0,0.0,0.0,0.0,0.0,0.0,0.0,0.0,0.0,0.0,0.0,0.0,0.0,0.0,0.0,0.0,0.0,0.0,0.0,0.0,0.0,0.0,0.0,0.0,0.0,0.0,0.0,0.0,0.0,0.0,0.0,0.0,0.0,0.0,0.0,0.0,0.0,0.0,0.0,0.0,0.0,0.0,0.0,0.0,0.0,0.0,0.0,0.0,0.0,0.0,0.0,0.0,0.0,0.0,0.0,0.0,0.0,0.0,0.2862,0.3351,0.2899,0.0,0.0,0.0,0.0,0.0,0.0,0.0,0.0,0.0,0.0,0.0,0.0,0.0,0.0,0.0,0.0,0.0,0.0,0.0,0.0,0.0,0.0,0.0,0.0,0.0,0.0,0.0,0.0,0.0,0.0,0.0,0.0,0.0,0.0,0.0,0.0,0.0,0.0,0.0,0.0,0.0,0.0,0.0,0.0,0.0,0.0,0.0,0.0,0.0,0.0,0.0,0.0,0.0,0.0,0.0,0.0,0.0,0.0,0.0,0.0,0.0,0.0,0.0,0.0,0.0,0.0,0.0,0.0,0.0,0.0,0.0,0.0,0.0,0.0,0.0,0.0,0.0,0.0,0.0,0.0,0.0,0.0,0.0,0.0,0.0,0.0,0.0,0.0,0.0,0.0,0.0,0.0,0.0,0.0,0.0,0.0,0.0,0.0,0.0,0.0,0.0,0.0,0.0,0.0,0.0,0.0,0.0,0.0,0.0,0.0,-0.0234,0.0267,0.0828,0.0,0.1786,0.0,0.0,0.0,0.0,0.0,0.0,0.0,0.0,0.0,0.0,0.0,0.0,0.0,0.0,0.0,0.0,0.0,0.0,0.0,0.0,0.0,0.0,0.0,0.0,0.0,0.0,0.0,0.0,0.0,0.0,0.0,0.0,0.0,0.0,0.0,0.0,0.0,0.0,0.0,0.0,0.0,0.0,0.0,0.0,0.0,0.0,0.0,0.0,0.0,0.0,0.0,0.0,0.0,0.0,0.0,0.0,0.0,0.0,0.0,0.0,0.0,0.0,0.0,0.0,0.0,0.0,0.0,0.0,0.0,0.0,0.0,0.0,0.0,0.0,0.0,0.0,0.0,0.0,0.0,0.0,0.0,0.0,0.0,0.0,0.0,0.0,0.0,0.0,0.0,0.0,0.0,0.0,0.0,0.0,0.0,0.0,0.0,0.0,0.0,0.0,0.0,0.0,0.0,0.0,0.0,0.0,0.0,0.0,0.0,0.0,-0.1595,-0.1351,-0.0462,0.031,0.0,0.0,0.0,0.0,0.0,0.0,0.0,0.0,0.0,0.0,0.0,0.0,0.0,0.0,0.0,0.0,0.0,0.0,0.0,0.0,0.0,0.0,0.0,0.0,0.0,0.0,0.0,0.0,0.0,0.0,0.0,0.0,0.0,0.0,0.0,0.0,0.0,0.0,0.0,0.0,0.0,0.0,0.0,0.0,0.0,0.0,0.0,0.0,0.0,0.0,0.0,0.0,0.0,0.0,0.0,0.0,0.0,0.0,0.0,0.0,0.0,0.0,0.0,0.0,0.0,0.0,0.0,0.0,0.0,0.0,0.0,0.0,0.0,0.0,0.0,0.0,0.0,0.0,0.0,0.0,0.0,0.0,0.0,0.0,0.0,0.0,0.0,0.0,0.0,0.0,0.0,0.0,0.0,0.0,0.0,0.0,0.0,0.0,0.0,0.0,0.0,0.0,0.0,0.0,0.0,0.0,0.0,0.0,0.0,0.0,-0.3294,-0.2735,-0.2438,-0.1484,-0.0711,-0.0239,0.0,0.0,0.0,0.0,0.0,0.0,0.0,0.0,0.0,0.0,0.0,0.0,0.0,0.0,0.0,0.0,0.0,0.0,0.0,0.0,0.0,0.0,0.0,0.0,0.0,0.0,0.0,0.0,0.0,0.0,0.0,0.0,0.0,0.0,0.0,0.0,0.0,0.0,0.0,0.0,0.0,0.0,0.0,0.0,0.0,0.0,0.0,0.0,0.0,0.0,0.0,0.0,0.0,0.0,0.0,0.0,0.0,0.0,0.0,0.0,0.0,0.0,0.0,0.0,0.0,0.0,0.0,0.0,0.0,0.0,0.0,0.0,0.0,0.0,0.0,0.0,0.0,0.0,0.0,0.0,0.0,0.0,0.0,0.0,0.0,0.0,0.0,0.0,0.0,0.0,0.0,0.0,0.0,0.0,0.0,0.0,0.0,0.0,0.0,0.0,0.0,0.0,0.0,0.0,0.0,0.0,0.0,0.0,-0.4688,-0.4181,-0.3647,-0.2988,-0.2265,-0.1879,0.0,0.0,0.0,0.0,0.0,0.0,0.0,0.0,0.0,0.0,0.0,0.0,0.0,0.0,0.0,0.0,0.0,0.0,0.0,0.0,0.0,0.0,0.0,0.0,0.0,0.0,0.0,0.0,0.0,0.0,0.0,0.0,0.0,0.0,0.0,0.0,0.0,0.0,0.0,0.0,0.0,0.0,0.0,0.0,0.0,0.0,0.0,0.0,0.0,0.0,0.0,0.0,0.0,0.0,0.0,0.0,0.0,0.0,0.0,0.0,0.0,0.0,0.0,0.0,0.0,0.0,0.0,0.0,0.0,0.0,0.0,0.0,0.0,0.0,0.0,0.0,0.0,0.0,0.0,0.0,0.0,0.0,0.0,0.0,0.0,0.0,0.0,0.0,0.0,0.0,0.0,0.0,0.0,0.0,0.0,0.0,0.0,0.0,0.0,0.0,0.0,0.0,0.0,0.0,0.0,0.0,0.0,0.0,0.0,-0.6094,-0.5254,-0.4271,-0.3169,-0.2873,-0.2676,0.0,0.0,0.0,0.0,0.0,0.0,0.0,0.0,0.0,0.0,0.0,0.0,0.0,0.0,0.0,0.0,0.0,0.0,0.0,0.0,0.0,0.0,0.0,0.0,0.0,0.0,0.0,0.0,0.0,0.0,0.0,0.0,0.0,0.0,0.0,0.0,0.0,0.0,0.0,0.0,0.0,0.0,0.0,0.0,0.0,0.0,0.0,0.0,0.0,0.0,0.0,0.0,0.0,0.0,0.0,0.0,0.0,0.0,0.0,0.0,0.0,0.0,0.0,0.0,0.0,0.0,0.0,0.0,0.0,0.0,0.0,0.0,0.0,0.0,0.0,0.0,0.0,0.0,0.0,0.0,0.0,0.0,0.0,0.0,0.0,0.0,0.0,0.0,0.0,0.0,0.0,0.0,0.0,0.0,0.0,0.0,0.0,0.0,0.0,0.0,0.0,0.0,0.0,0.0,0.0,0.0,0.0,0.0,0.0,-0.7014,0.0,-0.5061,-0.412,-0.3849,-0.3547,0.0,0.0,0.0,0.0,0.0,0.0,0.0,0.0,0.0,0.0,0.0,0.0,0.0,0.0,0.0,0.0,0.0,0.0,0.0,0.0,0.0,0.0,0.0,0.0,0.0,0.0,0.0,0.0,0.0,0.0,0.0,0.0,0.0,0.0,0.0,0.0,0.0,0.0,0.0,0.0,0.0,0.0,0.0,0.0,0.0,0.0,0.0,0.0,0.0,0.0,0.0,0.0,0.0,0.0,0.0,0.0,0.0,0.0,0.0,0.0,0.0,0.0,0.0,0.0,0.0,0.0,0.0,0.0,0.0,0.0,0.0,0.0,0.0,0.0,0.0,0.0,0.0,0.0,0.0,0.0,0.0,0.0,0.0,0.0,0.0,0.0,0.0,0.0,0.0,0.0,0.0,0.0,0.0,0.0,0.0,0.0,0.0,0.0,0.0,0.0,0.0,0.0,0.0,0.0,0.0,0.0,0.0,0.0,-0.7599,-0.73,-0.6478,-0.6015,-0.5903,-0.5178,-0.4611,0.0,0.0,0.0,0.0,0.0,0.0,0.0,0.0,0.0,0.0,0.0,0.0,0.0,0.0,0.0,0.0,0.0,0.0,0.0,0.0,0.0,0.0,0.0,0.0,0.0,0.0,0.0,0.0,0.0,0.0,0.0,0.0,0.0,0.0,0.0,0.0,0.0,0.0,0.0,0.0,0.0,0.0,0.0,0.0,0.0,0.0,0.0,0.0,0.0,0.0,0.0,0.0,0.0,0.0,0.0,0.0,0.0,0.0,0.0,0.0,0.0,0.0,0.0,0.0,0.0,0.0,0.0,0.0,0.0,0.0,0.0,0.0,0.0,0.0,0.0,0.0,0.0,0.0,0.0,0.0,0.0,0.0,0.0,0.0,0.0,0.0,0.0,0.0,0.0,0.0,0.0,0.0,0.0,0.0,0.0,0.0,0.0,0.0,0.0,0.0,0.0,0.0,0.0,0.0,0.0,0.0,0.0,0.0,0.0,-0.7725,-0.7494,-0.7138,-0.667,-0.6089,-0.5644,0.0,0.0,0.0,0.0,0.0,0.0,0.0,0.0,0.0,0.0,0.0,0.0,0.0,0.0,0.0,0.0,0.0,0.0,0.0,0.0,0.0,0.0,0.0,0.0,0.0,0.0,0.0,0.0,0.0,0.0,0.0,0.0,0.0,0.0,0.0,0.0,0.0,0.0,0.0,0.0,0.0,0.0,0.0,0.0,0.0,0.0,0.0,0.0,0.0,0.0,0.0,0.0,0.0,0.0,0.0,0.0,0.0,0.0,0.0,0.0,0.0,0.0,0.0,0.0,0.0,0.0,0.0,0.0,0.0,0.0,0.0,0.0,0.0,0.0,0.0,0.0,0.0,0.0,0.0,0.0,0.0,0.0,0.0,0.0,0.0,0.0,0.0,0.0,0.0,0.0,0.0,0.0,0.0,0.0,0.0,0.0,0.0,0.0,0.0,0.0,0.0,0.0,0.0,0.0,0.0,0.0,0.0,0.0,0.0,-0.9585,-0.8938,-0.8411,-0.8048,-0.7443,-0.682,-0.6241,0.0,0.0,0.0,0.0,0.0,0.0,0.0,0.0,0.0,0.0,0.0,0.0,0.0,0.0,0.0,0.0,0.0,0.0,0.0,0.0,0.0,0.0,0.0,0.0,0.0,0.0,0.0,0.0,0.0,0.0,0.0,0.0,0.0,0.0,0.0,0.0,0.0,0.0,0.0,0.0,0.0,0.0,0.0,0.0,0.0,0.0,0.0,0.0,0.0,0.0,0.0,0.0,0.0,0.0,0.0,0.0,0.0,0.0,0.0,0.0,0.0,0.0,0.0,0.0,0.0,0.0,0.0,0.0,0.0,0.0,0.0,0.0,0.0,0.0,0.0,0.0,0.0,0.0,0.0,0.0,0.0,0.0,0.0,0.0,0.0,0.0,0.0,0.0,0.0,0.0,0.0,0.0,0.0,0.0,0.0,0.0,0.0,0.0,0.0,0.0,0.0,0.0,0.0,0.0,0.0,0.0,0.0,0.0,-1.2531,-1.0868,-1.0008,-0.9979,-0.9177,-0.8221,0.0,0.0,0.0,0.0,0.0,0.0,0.0,0.0,0.0,0.0,0.0,0.0,0.0,0.0,0.0,0.0,0.0,0.0,0.0,0.0,0.0,0.0,0.0,0.0,0.0,0.0,0.0,0.0,0.0,0.0,0.0,0.0,0.0,0.0,0.0,0.0,0.0,0.0,0.0,0.0,0.0,0.0,0.0,0.0,0.0,0.0,0.0,0.0,0.0,0.0,0.0,0.0,0.0,0.0,0.0,0.0,0.0,0.0,0.0,0.0,0.0,0.0,0.0,0.0,0.0,0.0,0.0,0.0,0.0,0.0,0.0,0.0,0.0,0.0,0.0,0.0,0.0,0.0,0.0,0.0,0.0,0.0,0.0,0.0,0.0,0.0,0.0,0.0,0.0,0.0,0.0,0.0,0.0,0.0,0.0,0.0,0.0,0.0,0.0,0.0,0.0,0.0,0.0,0.0,0.0,0.0,0.0,0.0,0.0,-1.4372,-1.4386,-1.3758,-1.2423,-1.1069,-0.9953,0.0,0.0,0.0,0.0,0.0,0.0,0.0,0.0,0.0,0.0,0.0,0.0,0.0,0.0,0.0,0.0,0.0,0.0,0.0,0.0,0.0,0.0,0.0,0.0,0.0,0.0,0.0,0.0,0.0,0.0,0.0,0.0,0.0,0.0,0.0,0.0,0.0,0.0,0.0,0.0,0.0,0.0,0.0,0.0,0.0,0.0,0.0,0.0,0.0,0.0,0.0,0.0,0.0,0.0,0.0,0.0,0.0,0.0,0.0,0.0,0.0,0.0,0.0,0.0,0.0,0.0,0.0,0.0,0.0,0.0,0.0,0.0,0.0,0.0,0.0,0.0,0.0,0.0,0.0,0.0,0.0,0.0,0.0,0.0,0.0,0.0,0.0,0.0,0.0,0.0,0.0,0.0,0.0,0.0,0.0,0.0,0.0,0.0,0.0,0.0,0.0,0.0,0.0,0.0,0.0,0.0,0.0,0.0,-1.529,-1.5966,-1.7193,-1.7347,-1.6344,-1.3504,-1.1388,0.0,0.0,0.0,0.0,0.0,0.0,0.0,0.0,0.0,0.0,0.0,0.0,0.0,0.0,0.0,0.0,0.0,0.0,0.0,0.0,0.0,0.0,0.0,0.0,0.0,0.0,0.0,0.0,0.0,0.0,0.0,0.0,0.0,0.0,0.0,0.0,0.0,0.0,0.0,0.0,0.0,0.0,0.0,0.0,0.0,0.0,0.0,0.0,0.0,0.0,0.0,0.0,0.0,0.0,0.0,0.0,0.0,0.0,0.0,0.0,0.0,0.0,0.0,0.0,0.0,0.0,0.0,0.0,0.0,0.0,0.0,0.0,0.0,0.0,0.0,0.0,0.0,0.0,0.0,0.0,0.0,0.0,0.0,0.0,0.0,0.0,0.0,0.0,0.0,0.0,0.0,0.0,0.0,0.0,0.0,0.0,0.0,0.0,0.0,0.0,0.0,0.0,0.0,0.0,0.0,0.0,0.0,0.0,-1.7196,-1.7564,-1.9441,-2.0475,-2.0469,-1.6029,-1.2636,0.0,0.0,0.0,0.0,0.0,0.0,0.0,0.0,0.0,0.0,0.0,0.0,0.0,0.0,0.0,0.0,0.0,0.0,0.0,0.0,0.0,0.0,0.0,0.0,0.0,0.0,0.0,0.0,0.0,0.0,0.0,0.0,0.0,0.0,0.0,0.0,0.0,0.0,0.0,0.0,0.0,0.0,0.0,0.0,0.0,0.0,0.0,0.0,0.0,0.0,0.0,0.0,0.0,0.0,0.0,0.0,0.0,0.0,0.0,0.0,0.0,0.0,0.0,0.0,0.0,0.0,0.0,0.0,0.0,0.0,0.0,0.0,0.0,0.0,0.0,0.0,0.0,0.0,0.0,0.0,0.0,0.0,0.0,0.0,0.0,0.0,0.0,0.0,0.0,0.0,0.0,0.0,0.0,0.0,0.0,0.0,0.0,0.0,0.0,0.0,0.0,0.0,0.0,0.0,0.0,0.0,0.0,0.0,-1.8288,-1.9863,-2.1159,-2.1668,-2.1297,-1.6833,-1.4166,0.0,0.0,0.0,0.0,0.0,0.0,0.0,0.0,0.0,0.0,0.0,0.0,0.0,0.0,0.0,0.0,0.0,0.0,0.0,0.0,0.0,0.0,0.0,0.0,0.0,0.0,0.0,0.0,0.0,0.0,0.0,0.0,0.0,0.0,0.0,0.0,0.0,0.0,0.0,0.0,0.0,0.0,0.0,0.0,0.0,0.0,0.0,0.0,-0.9779,0.0,0.0,0.0,0.0,0.0,0.0,0.0,0.0,0.0,0.0,0.0,0.0,0.0,0.0,0.0,0.0,0.0,0.0,0.0,0.0,0.0,0.0,0.0,0.0,0.0,0.0,0.0,0.0,0.0,0.0,0.0,0.0,0.0,0.0,0.0,0.0,0.0,0.0,0.0,0.0,0.0,0.0,0.0,0.0,0.0,0.0,0.0,0.0,0.0,0.0,0.0,0.0,0.0,0.0,0.0,0.0,0.0,0.0,0.0,-1.8865,-2.1073,-2.188,-2.2402,-2.2502,-1.8832,-1.613,0.0,0.0,0.0,0.0,0.0,0.0,0.0,0.0,0.0,0.0,0.0,0.0,0.0,0.0,0.0,0.0,0.0,0.0,0.0,0.0,0.0,0.0,0.0,0.0,0.0,0.0,0.0,0.0,0.0,0.0,0.0,0.0,0.0,0.0,0.0,0.0,0.0,0.0,0.0,0.0,0.0,0.0,0.0,0.0,0.0,0.0,0.0,0.0,0.0,0.0,0.0,0.0,0.0,0.0,0.0,0.0,0.0,0.0,0.0,0.0,0.0,0.0,0.0,0.0,0.0,0.0,0.0,0.0,0.0,0.0,0.0,0.0,0.0,0.0,0.0,0.0,0.0,0.0,0.0,0.0,0.0,0.0,0.0,0.0,0.0,0.0,0.0,0.0,0.0,0.0,0.0,0.0,0.0,0.0,0.0,0.0,0.0,0.0,0.0,0.0,0.0,0.0,0.0,0.0,0.0,0.0,0.0,-1.7368,-1.9316,-2.1882,-2.2295,-2.2886,-2.3798,-2.0897,-1.8016,-1.5319,0.0,0.0,0.0,0.0,0.0,0.0,0.0,0.0,0.0,0.0,0.0,0.0,0.0,0.0,0.0,0.0,0.0,0.0,0.0,0.0,0.0,0.0,0.0,0.0,0.0,0.0,0.0,0.0,0.0,0.0,0.0,0.0,0.0,0.0,0.0,0.0,0.0,0.0,-1.3815,-1.4041,0.0,0.0,0.0,0.0,0.0,0.0,0.0,0.0,-1.111,0.0,0.0,0.0,0.0,0.0,0.0,0.0,0.0,0.0,0.0,0.0,0.0,0.0,0.0,0.0,0.0,0.0,0.0,0.0,0.0,0.0,0.0,0.0,0.0,0.0,0.0,0.0,0.0,0.0,0.0,0.0,0.0,0.0,0.0,0.0,0.0,0.0,0.0,0.0,0.0,0.0,0.0,0.0,0.0,0.0,0.0,0.0,0.0,0.0,0.0,0.0,0.0,0.0,0.0,0.0,0.0,-1.7791,-1.8562,-2.0253,-2.2824,-2.2944,-2.3036,-2.3202,-2.1149,-1.914,-1.7244,0.0,0.0,0.0,0.0,0.0,0.0,0.0,0.0,0.0,0.0,0.0,0.0,0.0,0.0,0.0,0.0,0.0,0.0,0.0,0.0,0.0,0.0,0.0,0.0,0.0,0.0,0.0,0.0,0.0,0.0,0.0,0.0,0.0,0.0,0.0,0.0,0.0,0.0,0.0,-1.4591,-1.4913,0.0,0.0,0.0,0.0,0.0,0.0,0.0,0.0,-1.0798,0.0,0.0,0.0,0.0,0.0,0.0,0.0,0.0,0.0,0.0,0.0,0.0,0.0,0.0,0.0,0.0,0.0,0.0,0.0,0.0,0.0,0.0,0.0,0.0,0.0,0.0,0.0,0.0,0.0,0.0,0.0,0.0,0.0,0.0,0.0,0.0,0.0,0.0,0.0,0.0,0.0,0.0,0.0,0.0,0.0,0.0,0.0,0.0,0.0,0.0,0.0,0.0,0.0,0.0,0.0,-1.8574,-1.9058,-2.0494,-2.2999,-2.3097,-2.3091,-2.3041,-2.1226,-1.9301,0.0,0.0,0.0,0.0,0.0,0.0,0.0,0.0,0.0,0.0,0.0,0.0,0.0,0.0,0.0,0.0,0.0,0.0,0.0,0.0,0.0,0.0,0.0,0.0,0.0,0.0,0.0,0.0,0.0,0.0,0.0,0.0,0.0,0.0,0.0,0.0,0.0,0.0,0.0,0.0,-1.4376,-1.4281,-1.2568,0.0,0.0,0.0,0.0,0.0,0.0,-1.2398,-1.1943,0.0,0.0,0.0,0.0,0.0,0.0,0.0,0.0,0.0,0.0,0.0,0.0,0.0,0.0,0.0,0.0,0.0,0.0,0.0,0.0,0.0,0.0,0.0,0.0,0.0,0.0,0.0,0.0,0.0,0.0,0.0,0.0,0.0,0.0,0.0,0.0,0.0,0.0,0.0,0.0,0.0,0.0,0.0,0.0,0.0,0.0,0.0,0.0,0.0,0.0,0.0,0.0,0.0,0.0,0.0,-1.9114,-1.9378,-2.0594,-2.2802,-2.2915,-2.2915,-2.2887,-2.0904,-1.899,0.0,0.0,0.0,0.0,0.0,0.0,0.0,0.0,0.0,0.0,0.0,0.0,0.0,0.0,0.0,0.0,0.0,0.0,0.0,0.0,0.0,0.0,0.0,0.0,0.0,0.0,0.0,0.0,0.0,0.0,0.0,0.0,0.0,0.0,0.0,0.0,0.0,0.0,0.0,0.0,0.0,-1.3654,-1.2697,-1.2996,0.0,0.0,0.0,0.0,-1.4337,-1.3515,0.0,0.0,0.0,0.0,0.0,0.0,0.0,0.0,0.0,0.0,0.0,0.0,0.0,0.0,0.0,0.0,0.0,0.0,0.0,0.0,0.0,0.0,0.0,0.0,0.0,0.0,0.0,0.0,0.0,0.0,0.0,0.0,0.0,0.0,0.0,0.0,0.0,0.0,0.0,0.0,0.0,0.0,0.0,0.0,0.0,0.0,0.0,0.0,0.0,0.0,0.0,0.0,0.0,0.0,0.0,0.0,-1.9388,-2.0007,-2.0934,-2.2259,-2.233,-2.2283,-2.2255,-1.9795,-1.8327,0.0,0.0,0.0,0.0,0.0,0.0,0.0,0.0,0.0,0.0,0.0,0.0,0.0,0.0,0.0,0.0,0.0,0.0,0.0,0.0,0.0,0.0,0.0,0.0,0.0,0.0,0.0,0.0,0.0,0.0,0.0,0.0,0.0,0.0,0.0,0.0,0.0,0.0,0.0,0.0,0.0,-1.437,-1.2655,-1.3968,-1.5077,0.0,0.0,-1.3784,-1.4492,-1.3142,0.0,0.0,0.0,0.0,0.0,0.0,0.0,0.0,0.0,0.0,0.0,0.0,0.0,0.0,0.0,0.0,0.0,0.0,0.0,0.0,0.0,0.0,0.0,0.0,0.0,0.0,0.0,0.0,0.0,0.0,0.0,0.0,0.0,0.0,0.0,0.0,0.0,0.0,0.0,0.0,0.0,0.0,0.0,0.0,0.0,0.0,0.0,0.0,0.0,0.0,0.0,0.0,0.0,0.0,0.0,-1.87,-1.9922,-2.0245,-2.0976,-2.2114,-2.217,-2.217,-2.217,-1.9698,-1.8372,0.0,0.0,0.0,0.0,0.0,0.0,0.0,0.0,0.0,0.0,0.0,0.0,0.0,0.0,0.0,0.0,0.0,0.0,0.0,0.0,0.0,0.0,0.0,0.0,0.0,0.0,0.0,0.0,0.0,0.0,0.0,0.0,0.0,0.0,0.0,0.0,0.0,0.0,0.0,0.0,0.0,0.0,-1.3992,-1.4505,0.0,0.0,0.0,-1.5329,-1.5286,0.0,0.0,0.0,0.0,0.0,0.0,0.0,0.0,0.0,0.0,0.0,0.0,0.0,0.0,0.0,0.0,0.0,0.0,0.0,0.0,0.0,0.0,0.0,0.0,0.0,0.0,0.0,0.0,0.0,0.0,0.0,0.0,0.0,0.0,0.0,0.0,0.0,0.0,0.0,0.0,0.0,0.0,0.0,0.0,0.0,0.0,0.0,0.0,0.0,0.0,0.0,0.0,0.0,0.0,0.0,0.0,0.0,-2.0401,-2.0415,-2.0976,-2.2128,-2.217,-2.217,-2.2128,-1.9936,0.0,0.0,0.0,0.0,0.0,0.0,0.0,0.0,0.0,0.0,0.0,0.0,0.0,0.0,0.0,0.0,0.0,0.0,0.0,0.0,0.0,0.0,0.0,0.0,0.0,0.0,0.0,-0.9383,0.0,0.0,0.0,0.0,0.0,0.0,0.0,0.0,0.0,0.0,0.0,0.0,0.0,0.0,-1.4587,-1.5015,-1.4861,-1.4511,0.0,0.0,-1.6422,-1.5581,-1.4955,-1.4958,0.0,0.0,0.0,0.0,0.0,0.0,0.0,0.0,0.0,0.0,0.0,0.0,0.0,0.0,0.0,0.0,0.0,0.0,0.0,0.0,0.0,0.0,0.0,0.0,0.0,0.0,0.0,0.0,0.0,0.0,0.0,0.0,0.0,0.0,0.0,0.0,0.0,0.0,0.0,0.0,0.0,0.0,0.0,0.0,0.0,0.0,0.0,0.0,0.0,0.0,0.0,0.0,0.0,0.0,0.0,-2.0697,-2.0514,-2.0976,-2.2128,-2.217,-2.217,-2.2156,-2.0358,-1.9401,0.0,0.0,0.0,0.0,0.0,0.0,0.0,0.0,0.0,0.0,0.0,0.0,0.0,0.0,0.0,0.0,0.0,0.0,0.0,0.0,0.0,0.0,0.0,0.0,0.0,0.0,0.0,0.0,0.0,0.0,0.0,0.0,0.0,0.0,0.0,0.0,0.0,0.0,0.0,0.0,0.0,-1.5031,-1.5025,-1.5207,-1.4828,0.0,0.0,-1.6186,-1.4721,-1.501,-1.5681,-1.6439,0.0,0.0,0.0,0.0,0.0,0.0,0.0,0.0,0.0,0.0,0.0,0.0,0.0,0.0,0.0,0.0,0.0,0.0,0.0,0.0,0.0,0.0,0.0,0.0,0.0,0.0,0.0,0.0,0.0,0.0,0.0,0.0,0.0,0.0,0.0,0.0,0.0,0.0,0.0,0.0,0.0,0.0,0.0,0.0,0.0,0.0,0.0,0.0,0.0,0.0,0.0,0.0,0.0,-1.9814,-2.137,-2.0784,-2.1094,-2.2267,-2.2417,-2.2417,-2.2324,-2.0614,-1.9584,0.0,0.0,0.0,0.0,0.0,0.0,0.0,0.0,0.0,0.0,0.0,0.0,0.0,0.0,0.0,0.0,0.0,0.0,0.0,0.0,0.0,0.0,0.0,0.0,0.0,0.0,0.0,0.0,-1.159,-1.2025,-1.2831,0.0,0.0,0.0,0.0,0.0,0.0,0.0,0.0,0.0,0.0,-1.6104,-1.5821,-1.5448,0.0,0.0,-1.5494,-1.6333,-1.587,-1.5938,-1.6499,-1.7744,-1.8328,0.0,0.0,0.0,0.0,0.0,0.0,0.0,0.0,0.0,0.0,0.0,0.0,0.0,0.0,0.0,0.0,0.0,0.0,0.0,0.0,0.0,0.0,0.0,0.0,0.0,0.0,0.0,0.0,0.0,0.0,0.0,0.0,0.0,0.0,0.0,0.0,0.0,0.0,0.0,0.0,0.0,0.0,0.0,0.0,0.0,0.0,0.0,0.0,0.0,0.0,0.0,0.0,-2.0222,-2.186,-2.0984,-2.108,-2.2296,-2.2431,-2.2417,-2.2282,-2.1026,-2.0067,0.0,0.0,0.0,0.0,0.0,0.0,0.0,0.0,0.0,0.0,0.0,0.0,0.0,0.0,0.0,0.0,0.0,0.0,0.0,0.0,0.0,0.0,0.0,0.0,0.0,0.0,0.0,0.0,-1.2411,-1.2765,-1.307,0.0,0.0,0.0,0.0,0.0,0.0,0.0,0.0,0.0,0.0,-1.6753,-1.6756,-1.6275,-1.5811,-1.5626,-1.6632,-1.7335,-1.7106,-1.7178,-1.7659,-1.8821,0.0,0.0,0.0,0.0,0.0,0.0,0.0,0.0,0.0,0.0,0.0,0.0,0.0,0.0,0.0,0.0,0.0,0.0,0.0,0.0,0.0,0.0,0.0,0.0,0.0,0.0,0.0,0.0,0.0,0.0,-1.2242,0.0,0.0,0.0,0.0,0.0,0.0,0.0,0.0,0.0,0.0,0.0,0.0,0.0,0.0,0.0,0.0,0.0,0.0,0.0,0.0,0.0,0.0,-2.0921,-2.206,-2.1012,-2.099,-2.2189,-2.2231,-2.2245,-2.2217,-2.1597,-2.1008,-2.0415,0.0,0.0,0.0,0.0,0.0,0.0,0.0,0.0,0.0,0.0,0.0,0.0,0.0,0.0,0.0,0.0,0.0,0.0,0.0,0.0,0.0,0.0,0.0,0.0,0.0,0.0,-1.2615,-1.2496,-1.2562,0.0,0.0,0.0,0.0,0.0,0.0,0.0,0.0,0.0,0.0,-1.7773,-1.6783,-1.7734,-1.7888,-1.768,-1.7214,-1.8718,-1.948,-1.8084,-1.8623,-1.9294,0.0,0.0,0.0,0.0,0.0,0.0,0.0,0.0,0.0,0.0,0.0,0.0,0.0,0.0,0.0,0.0,0.0,0.0,0.0,0.0,0.0,0.0,0.0,0.0,0.0,0.0,0.0,-1.8871,-1.859,0.0,0.0,0.0,0.0,0.0,0.0,0.0,0.0,0.0,0.0,0.0,-2.1917,-2.4384,0.0,0.0,0.0,0.0,0.0,0.0,0.0,0.0,0.0,0.0,0.0,0.0,-2.1342,-2.2775,-2.1859,-2.1682,-2.2449,-2.3016,-2.303,-2.2477,-2.1467,-2.0229,-1.8803,0.0,0.0,0.0,0.0,0.0,0.0,0.0,0.0,0.0,0.0,0.0,0.0,0.0,0.0,0.0,0.0,0.0,0.0,0.0,0.0,0.0,0.0,0.0,0.0,0.0,-1.3937,0.0,0.0,0.0,0.0,0.0,0.0,0.0,0.0,0.0,0.0,0.0,-1.9884,-1.9396,-1.8928,-1.8637,-1.8535,-1.8143,-1.7859,0.0,0.0,0.0,0.0,0.0,0.0,0.0,0.0,0.0,0.0,0.0,0.0,0.0,0.0,-1.9161,-1.8903,-1.8722,-1.8403,-1.7662,0.0,0.0,0.0,0.0,0.0,0.0,0.0,0.0,0.0,0.0,0.0,0.0,0.0,0.0,-2.3303,0.0,-2.2819,0.0,0.0,0.0,0.0,0.0,0.0,0.0,0.0,-2.4941,-2.6192,-2.5773,-2.7938,-2.8545,0.0,-2.769,-2.6573,0.0,0.0,0.0,0.0,0.0,0.0,0.0,0.0,-2.2214,-2.3674,-2.244,-2.213,-2.2901,-2.3209,-2.3109,-2.2601,-2.1297,-1.9931,-1.8494,-1.7913,-1.7724,0.0,0.0,0.0,0.0,0.0,0.0,0.0,0.0,0.0,0.0,0.0,0.0,0.0,0.0,0.0,0.0,0.0,0.0,0.0,0.0,0.0,0.0,0.0,-1.427,0.0,0.0,0.0,0.0,0.0,0.0,0.0,0.0,0.0,-1.8355,-1.9191,-1.9711,-1.9494,-1.9207,-1.917,-1.9553,0.0,0.0,0.0,0.0,0.0,0.0,0.0,-2.0817,-2.1472,-2.1493,-2.1191,-2.0553,-2.0248,-2.0223,-2.0498,0.0,0.0,-1.9154,-1.8917,-1.8514,-1.7579,-1.8129,-1.8339,-1.709,-1.7061,-1.7024,0.0,0.0,0.0,0.0,0.0,0.0,0.0,0.0,-2.8639,-2.7271,0.0,-2.6145,0.0,0.0,0.0,0.0,0.0,-2.4683,0.0,0.0,-3.152,-3.2819,-3.0369,-3.1179,-3.1397,-3.0982,-3.0142,-2.9574,-2.9198,-2.5948,0.0,0.0,0.0,0.0,0.0,0.0,-2.3435,-2.4582,-2.2702,-2.2283,-2.3412,-2.2818,-2.2477,-2.25,-2.1196,-2.0119,-1.9388,-1.8521,-1.8036,-1.7855,-1.8173,0.0,0.0,0.0,0.0,0.0,0.0,0.0,0.0,0.0,0.0,0.0,0.0,0.0,0.0,0.0,0.0,0.0,0.0,0.0,0.0,-1.4446,0.0,0.0,0.0,0.0,0.0,0.0,0.0,0.0,0.0,0.0,-1.8229,-1.8518,-1.8979,-1.9929,0.0,0.0,0.0,0.0,-2.0012,-2.1402,-2.1634,-2.1615,-2.1748,-2.1477,-2.1055,-2.0518,0.0,0.0,-2.0602,-2.1381,-2.1919,-2.2119,-2.0749,-1.9484,-1.9104,-1.8846,-1.8576,-1.8007,-1.7799,-1.7569,-1.7318,-1.7034,-1.6853,-3.4573,0.0,0.0,0.0,0.0,-3.1435,-3.241,-3.345,-3.4203,-3.3419,-3.1602,-3.1949,0.0,0.0,0.0,0.0,0.0,0.0,-2.8545,-2.9516,-3.2242,-3.341,-3.3317,-3.4701,-3.4971,-3.4171,-3.3603,-3.2765,-3.184,-3.018,-2.8315,-2.63,0.0,0.0,0.0,0.0,-2.4216,-2.4715,-2.3774,-2.3374,-2.364,-2.3515,-2.2781,-2.1283,-2.0741,-1.9922,-1.8826,-1.8496,-1.8512,-1.8796,-1.835,0.0,0.0,0.0,0.0,0.0,0.0,0.0,0.0,0.0,0.0,0.0,0.0,0.0,0.0,0.0,0.0,0.0,0.0,0.0,-1.4857,-1.5144,-1.5217,0.0,0.0,0.0,0.0,0.0,0.0,0.0,0.0,0.0,-1.7906,-1.8863,-1.9914,0.0,0.0,-2.1259,-2.2563,-2.1815,-2.1167,-2.1268,-2.0913,0.0,-2.0169,-2.0351,-2.0501,-2.0418,-2.0265,-2.0348,-2.0846,-2.1039,-2.1245,-2.1524,-2.0744,-1.9911,-1.9268,-1.8667,-1.8009,-1.7295,-1.7663,-1.7848,-1.6828,-1.6776,-1.6828,-4.1132,-3.846,-3.571,-3.4707,-3.5133,-3.6045,-3.7084,-3.8164,-3.8874,-3.7955,-3.6085,-3.6616,-3.4187,-2.9721,-2.9121,0.0,0.0,0.0,-3.17,-3.3208,-3.4476,-3.5235,-3.5543,-3.6533,-3.6599,-3.5922,-3.5625,-3.5085,-3.4289,-3.2887,-3.1326,-2.9617,0.0,0.0,-2.6094,-2.5368,-2.528,-2.5757,-2.4811,-2.4221,-2.411,-2.3696,-2.2565,-2.067,-2.0458,-1.9838,-1.8534,-1.8478,-1.862,-1.8884,-1.8621,-1.8647,0.0,0.0,0.0,0.0,0.0,0.0,0.0,0.0,0.0,0.0,0.0,-1.6355,0.0,0.0,0.0,0.0,-1.5755,-1.5845,-1.6259,-1.6045,0.0,0.0,0.0,0.0,0.0,0.0,0.0,-1.713,-1.7791,-1.8167,-1.819,-1.9024,-1.9951,-2.0685,-2.0828,-2.1213,-2.2291,0.0,-2.0742,-2.0686,-2.0354,-2.0043,-1.9748,-1.9834,-1.9919,-1.9899,-2.0089,-2.0296,-2.0614,-2.0828,-2.0975,-2.0842,-2.0321,-1.9625,-1.8896,-1.8184,-1.7559,-1.6959,-1.7422,-1.7595,-1.6561,-1.6639,-1.6694,-4.6633,-4.54,-3.903,-3.7192,-3.8632,-3.9994,-4.1045,-4.1873,-4.252,-4.1197,-3.8714,-3.9952,-3.7858,-3.3269,-3.1839,0.0,-3.3365,-3.4008,-3.5289,-3.7006,-3.7614,-3.7551,-3.706,-3.6999,-3.6816,-3.6538,-3.6554,-3.6535,-3.6406,-3.4494,-3.3395,-3.3097,-3.0351,-2.8575,-2.7768,-2.6736,-2.6535,-2.7164,-2.5734,-2.4907,-2.4699,-2.3504,-2.2055,-2.0485,-2.0458,-1.9865,-1.8588,-1.8478,-1.8478,-1.8517,-1.8884,-1.8833,-1.8209,0.0,0.0,0.0,0.0,0.0,0.0,0.0,0.0,0.0,0.0,0.0,0.0,0.0,0.0,0.0,-1.6775,0.0,-1.8168,-1.7037,0.0,0.0,0.0,-1.6203,-1.6923,-1.7156,-1.7515,-1.8133,0.0,0.0,-1.8784,-1.8997,-1.9388,-2.0064,-1.9517,-1.9528,-2.0864,-2.0131,-1.945,-2.0036,-1.9949,-1.9904,-1.9884,-1.9687,-1.9464,-1.931,-1.9675,-2.012,-2.0326,-2.0828,-2.0988,-2.0467,-1.9706,-1.9037,-1.8313,-1.7682,-1.714,-1.7293,-1.7196,-1.7023,-1.6717,-1.676,-1.6759,-4.8107,-4.7362,-4.5704,-4.454,-4.3977,-4.4899,-4.4786,-4.4059,-4.4204,-4.3281,-4.1552,-4.1403,-4.0059,-3.7834,-3.751,-3.7575,-3.7915,-3.8076,-3.8416,-3.8795,-3.7945,-3.7417,-3.7314,-3.6846,-3.6693,-3.6877,-3.6877,-3.7131,-3.7482,-3.6478,-3.5182,-3.3724,-3.245,-3.0741,-2.8585,-2.7467,-2.7026,-2.7164,-2.6456,-2.5326,-2.3837,-2.3393,-2.2317,-2.0543,-2.0429,-1.981,-1.8574,-1.8478,-1.8478,-1.8478,-1.862,-1.8727,-1.8914,-1.9596,0.0,0.0,0.0,0.0,0.0,0.0,0.0,0.0,0.0,-1.835,-1.7712,0.0,-1.8072,0.0,-1.8072,-1.8156,-1.8198,-1.7446,0.0,0.0,-1.712,-1.6973,-1.7636,-1.7901,-1.8099,-1.8266,-1.8592,-1.876,-1.8581,-1.8745,-1.8903,-1.8935,-1.971,-2.0594,-2.1385,-2.0697,-2.0091,-2.0093,-1.9424,-1.886,-1.8945,-1.8959,-1.9124,-1.9384,-1.9839,-2.0292,-2.0628,-2.1023,-2.1098,-2.0402,-1.969,-1.9167,-1.894,-1.7967,-1.761,-1.8356,-1.787,-1.7083,-1.7007,-1.7384,-1.7685,-4.8916,-4.8026,-4.8026,-4.733,-4.6309,-4.6714,-4.6439,-4.571,-4.5386,-4.4625,-4.3541,-4.2504,-4.1419,-4.0383,-4.0399,-4.0415,-4.0367,-3.9768,-3.958,-3.9629,-3.8307,-3.7476,-3.7194,-3.6862,-3.6816,-3.6999,-3.6999,-3.7345,-3.7838,-3.6864,-3.5871,-3.493,-3.3165,-3.1632,-3.0306,-2.8669,-2.7907,-2.8015,-2.6935,-2.5727,-2.4404,-2.3686,-2.2747,-2.1672,-2.1327,-2.0821,-2.0176,-2.0171,-2.0132,-2.0132,-2.0132,-2.01,-2.0005,-2.0482,-2.0708,0.0,0.0,0.0,0.0,0.0,0.0,0.0,0.0,0.0,0.0,0.0,-1.9382,-1.9137,-1.9027,-1.8983,-1.9072,-1.8228,-1.7887,-1.8506,-1.7984,-1.7735,-1.8173,-1.8333,-1.8372,-1.8372,-1.8567,-1.8606,-1.8517,-1.8567,-1.862,-1.8517,-1.92,-1.9841,-2.0133,-1.9827,-1.9493,-1.9479,-1.8924,-1.8542,-1.8606,-1.8774,-1.9078,-1.9493,-1.9929,-2.0311,-2.0728,-2.1087,-2.1098,-2.0434,-1.9949,-1.9475,-1.8831,-1.8394,-1.8178,-1.8081,-1.7919,-1.7724,-1.7967,-1.7811,-1.772,-4.9402,-4.8155,-4.8139,-4.7653,-4.6876,-4.6876,-4.6876,-4.6828,-4.6115,-4.537,-4.4577,-4.3217,-4.2278,-4.1711,-4.1711,-4.1662,-4.1484,-4.0205,-3.9747,-3.985,-3.8552,-3.761,-3.7121,-3.706,-3.706,-3.7105,-3.7105,-3.7405,-3.7796,-3.6593,-3.6025,-3.5875,-3.3111,-3.1838,-3.194,-2.9933,-2.8872,-2.8919,-2.7303,-2.6167,-2.5435,-2.4275,-2.3475,-2.3143,-2.2539,-2.2222,-2.2209,-2.2216,-2.2178,-2.2178,-2.2178,-2.1842,-2.1105,-2.1512,-2.1459,0.0,-2.1311,0.0,0.0,0.0,0.0,0.0,0.0,0.0,0.0,-2.0764,-2.0739,-2.0344,-1.9796,-1.9712,-2.0285,-1.9155,-1.8683,-1.9418,-1.8791,-1.8372,-1.8464,-1.8548,-1.8602,-1.8492,-1.8548,-1.8576,-1.8517,-1.8478,-1.8478,-1.8478,-1.8531,-1.8666,-1.8545,-1.8613,-1.8599,-1.8478,-1.8517,-1.862,-1.8774,-1.8941,-1.9168,-1.9639,-2.0015,-2.0361,-2.0811,-2.1119,-2.1067,-2.0483,-2.0273,-1.9868,-1.8589,-1.8875,-1.881,-1.7967,-1.8091,-1.8383,-1.8621,-1.8215,-1.7892,-5.0131,-4.8835,-4.8835,-4.8074,-4.6892,-4.6876,-4.6876,-4.6844,-4.6115,-4.5095,-4.3864,-4.3006,-4.2569,-4.2423,-4.2423,-4.2116,-4.1533,-4.0675,-4.0059,-3.958,-3.8418,-3.7828,-3.7727,-3.7492,-3.7476,-3.7711,-3.7727,-3.7653,-3.746,-3.7216,-3.6216,-3.4524,-3.3356,-3.2292,-3.1241,0.0,0.0,0.0,-2.736,-2.6542,-2.5742,-2.5431,-2.4762,-2.3837,-2.3186,0.0,-2.2307,-2.22,-2.2178,-2.2178,-2.2178,0.0,0.0,0.0,0.0,0.0,0.0,0.0,0.0,0.0,0.0,0.0,-2.156,-2.1461,-2.1382,-2.1094,-2.0795,-2.05,-2.0359,-2.0514,-2.1018,-1.995,-1.9432,-2.0091,-1.9165,-1.8478,-1.8492,-1.8913,-1.9039,-1.8588,-1.8899,-1.9025,-1.8602,-1.8478,-1.8478,-1.8478,-1.8478,-1.8478,-1.8478,-1.8478,-1.8478,-1.8517,-1.8595,-1.875,-1.8903,-1.8979,-1.928,-1.9909,-2.0139,-2.0447,-2.1039,-2.1214,-2.1067,-2.0451,-2.0305,-2.0256,-1.99,-1.9528,-1.9362,-1.9609,-1.9409,-1.8907,-1.7921,-1.8431,-1.9009,-5.0357,0.0,-4.903,-4.8204,0.0,-4.6876,-4.6876,-4.6844,-4.6115,-4.5014,-4.367,-4.2941,-4.2571,-4.2571,-4.2571,-4.2245,-4.1626,-4.1193,-4.0464,-3.946,-3.8956,-3.8412,-3.7886,-3.7711,-3.7578,-3.7401,-3.7385,-3.7266,-3.689,-3.6585,-3.5875,-3.4725,-3.3769,-3.2779,-3.1738,-3.0347,-2.9099,-2.8023,-2.7646,-2.6972,-2.5997,-2.5249,-2.4758,-2.4447,-2.3551,0.0,0.0,0.0,0.0,0.0,0.0,0.0,0.0,-2.2294,0.0,-2.1605,-2.2152,-2.254,-2.2645,-2.3017,-2.3086,-2.2615,-2.2221,-2.1901,-2.1679,-2.1585,-2.1465,-2.1332,-2.1346,-2.1459,-2.1696,-2.0892,-2.0344,-2.0372,-1.9866,-1.9359,-1.9079,-1.9556,-1.9669,-1.9067,-1.9193,-1.9165,-1.8562,-1.8478,-1.8478,-1.8478,-1.8478,-1.8478,-1.8478,-1.8478,-1.8517,-1.8581,-1.8697,-1.8827,-1.8955,-1.9055,-1.9325,-2.0015,-2.0208,-2.0514,-2.1183,-2.1294,-2.1195,-2.0872,-2.0807,-2.0726,-2.037,-2.024,-2.0173,-1.998,-1.9911,-1.9674,-1.8843,-1.8952,-1.9301,-5.0422,-4.9208,-4.9078,-4.8269,-4.707,-4.6941,-4.6811,-4.6649,0.0,0.0,0.0,-4.3136,-4.2747,-4.2571,-4.2571,-4.2245,-4.1581,-4.1436,-4.0756,-3.9654,-3.9412,-3.8908,-3.821,-3.8065,-3.7637,-3.7027,-3.6966,-3.6707,-3.6197,-3.5642,-3.5335,-3.516,-3.409,-3.3093,-3.2231,-3.0513,-2.9204,-2.8265,-2.7944,-2.7364,-2.6361,-2.5038,-2.4609,-2.5066,-2.3878,-2.3478,-2.4013,-2.4013,-2.3998,-2.3998,-2.3998,-2.369,-2.3062,-2.313,-2.2934,-2.2435,-2.2994,-2.3438,-2.3585,-2.4207,-2.4349,-2.3717,-2.3089,-2.2534,-2.2028,-2.213,-2.217,-2.217,-2.217,-2.217,-2.2156,-2.1668,-2.1119,-2.0597,-2.0514,-2.0218,-1.9712,-2.0119,-2.0218,-1.9683,-1.946,-1.9207,-1.8745,-1.8588,-1.8478,-1.8478,-1.8478,-1.8478,-1.8478,-1.8478,-1.8556,-1.8673,-1.8774,-1.8822,-1.8965,-1.9153,-1.9442,-2.007,-2.0277,-2.0563,-2.1103,-2.1294,-2.1294,-2.1276,-2.1277,-2.1066,-2.0661,-2.0919,-2.0945,-1.992,-2.0237,-2.0607,-2.0321,-1.9781,-1.9664,-5.0697,-4.9904,-4.9289,-4.8576,-4.7799,-4.7151,-4.6536,-4.5953,-4.584,-4.537,-4.4593,-4.3864,-4.3217,-4.2571,-4.2571,-4.2245,-4.1533,-4.0934,-4.0529,-4.0286,-3.9104,-3.8829,-3.9224,-3.8626,-3.796,-3.7342,-3.7358,-3.6723,-3.5642,-3.5464,-3.5088,-3.4514,-3.3842,-3.2825,-3.1507,-3.0911,-3.0017,-2.8824,-2.819,-2.7729,-2.7368,-2.6155,-2.5586,-2.5665,-2.446,-2.3906,-2.4153,-2.4055,-2.3998,-2.3998,-2.3998,-2.3945,-2.3834,-2.3924,-2.4068,-2.4125,-2.4351,-2.4534,-2.4592,-2.4694,-2.4655,-2.439,-2.4141,-2.373,-2.2983,-2.247,-2.217,-2.217,-2.217,-2.217,-2.2142,-2.1696,-2.1302,-2.1161,-2.0797,-2.0444,-2.0274,-2.0443,-2.0514,-2.0274,-1.9726,-1.9431,-1.9207,-1.8826,-1.8517,-1.8478,-1.8478,-1.8478,-1.8478,-1.8478,-1.8581,-1.8721,-1.8784,-1.8898,-1.9064,-1.9398,-1.9711,-2.0104,-2.0462,-2.0778,-2.1214,-2.1294,-2.1294,-2.1294,-2.1294,-2.1229,-2.1131,-2.1413,-2.1239,-2.0586,-2.1216,-2.1625,-2.1056,-2.1003,-2.1034,-5.0762,-5.0034,-4.9321,-4.8625,-4.7961,-4.72,-4.6698,-4.639,-4.639,-4.5791,-4.4755,-4.4026,-4.3524,-4.3201,-4.2812,-4.2229,-4.1565,-4.163,-4.1225,-4.0496,-4.0221,-4.0033,-3.9725,-3.9082,-3.8166,-3.7188,-3.677,-3.5976,-3.4971,-3.4839,-3.4721,-3.437,-3.3709,-3.2955,-3.2198,-3.124,-3.0425,-2.9783,-2.8808,-2.794,-2.717,-2.6289,-2.5552,-2.4966,-2.397,-2.3345,-2.3128,-2.3054,-2.3171,-2.3507,-2.3536,-2.3673,-2.4052,-2.4206,-2.435,-2.4519,-2.4934,-2.5207,-2.5342,-2.5207,-2.5214,-2.544,-2.4702,-2.4196,-2.4123,-2.3238,-2.255,-2.2226,-2.217,-2.217,-2.217,-2.1917,-2.1682,-2.133,-2.1433,-2.1393,-2.1136,-2.1409,-2.1451,-2.1037,-2.05,-1.9935,-1.9432,-1.8936,-1.8556,-1.8517,-1.8478,-1.8478,-1.8478,-1.8556,-1.8659,-1.8798,-1.8874,-1.8965,-1.9064,-1.9236,-1.9603,-2.0104,-2.0361,-2.0697,-2.1151,-2.1294,-2.1294,-2.1294,-2.1294,-2.1294,-2.1277,-2.1063,-2.1016,-2.1458,-2.1221,-2.1407,-2.1749,-2.2194,-2.2143,-5.0633,-5.005,-4.9321,-4.8625,-4.7945,-4.72,-4.6876,-4.6892,-4.6722,-4.6124,-4.5257,-4.4496,-4.401,-4.3654,-4.2912,-4.2204,-4.1657,-4.1804,-4.1483,-4.0804,-4.0809,-4.0606,-4.0144,-3.9285,-3.8091,-3.6953,-3.6231,-3.5335,-3.4481,-3.4414,-3.4414,-3.4288,-3.3653,-3.3135,-3.2844,-3.1772,-3.094,-3.0488,-2.9588,-2.8436,-2.7074,-2.6287,-2.5413,-2.4385,-2.3695,-2.3132,-2.2681,-2.2653,-2.2817,-2.3266,-2.3308,-2.3653,-2.4309,-2.4481,-2.469,-2.4948,-2.5531,-2.5893,-2.601,-2.5819,-2.5864,-2.6215,-2.5232,-2.4718,-2.484,-2.4095,-2.3196,-2.255,-2.2564,-2.2536,-2.2283,-2.2339,-2.2142,-2.164,-2.2027,-2.213,-2.1818,-2.2138,-2.2198,-2.1551,-2.1055,-2.0414,-1.9793,-1.9268,-1.8857,-1.8599,-1.8517,-1.8478,-1.8517,-1.8634,-1.8721,-1.8822,-1.895,-1.9078,-1.9139,-1.9384,-1.9696,-2.0174,-2.0379,-2.0763,-2.1183,-2.1294,-2.1294,-2.1294,-2.1294,-2.1294,-2.1276,-2.1075,-2.1138,-2.1711,-2.1613,-2.1551,-2.2443,-2.2849,-2.2838,-5.0147,-5.0001,-4.9289,-4.8625,-4.7945,-4.7232,-4.6909,-4.6823,-4.6143,-4.6166,-4.6536,-4.5921,-4.4818,-4.3735,-4.2937,-4.2211,-4.1464,-4.0255,-4.0337,-4.1146,-3.9442,-3.9419,-4.072,-3.8999,-3.7636,-3.6903,-3.6277,-3.5459,-3.4414,-3.4414,-3.4278,-3.4128,-3.3742,-3.3306,-3.2741,-3.2422,-3.1668,-3.0558,-3.0417,-2.949,-2.7748,-2.6526,-2.5624,-2.5133,-2.4408,-2.4055,-2.4014,-2.3999,-2.3963,-2.4019,-2.4033,-2.4366,-2.502,-2.5223,-2.5606,-2.6213,-2.6515,-2.6692,-2.6692,-2.6692,-2.6534,-2.634,-2.6158,-2.5739,-2.5117,-2.4882,-2.4278,-2.3407,-2.3547,-2.3385,-2.2442,-2.2662,-2.269,-2.2146,-2.2253,-2.2402,-2.2289,-2.1936,-2.1698,-2.1611,-2.1155,-2.0669,-2.0527,-1.9986,-1.9401,-1.8829,-1.8584,-1.8517,-1.8517,-1.8659,-1.8798,-1.886,-1.9161,-1.9325,-1.9236,-2.0015,-2.0224,-2.0243,-2.073,-2.1071,-2.1214,-2.1294,-2.1294,-2.1294,-2.1294,-2.1294,-2.1433,-2.1532,-2.1761,-2.1972,-2.218,-2.2521,-2.285,-2.302,-2.2845,-4.9451,-4.9402,-4.8722,-4.8269,-4.7961,-4.767,-4.754,-4.7438,-4.6247,-4.6143,-4.6705,-4.5611,-4.4496,-4.369,-4.3407,-4.2627,-4.1417,-4.0883,-4.1147,-4.1948,-4.0602,-4.0469,-4.1165,-4.0118,-3.8707,-3.7292,-3.6773,-3.5804,-3.4593,-3.4278,-3.4128,-3.3937,-3.3744,-3.3478,-3.3223,-3.2664,-3.2199,-3.1773,-3.1025,-3.0157,-2.9146,-2.781,-2.6748,-2.5905,-2.5133,-2.4572,-2.4325,-2.4168,-2.4272,-2.461,-2.4615,-2.4934,-2.5714,-2.5849,-2.6107,-2.6496,-2.6698,-2.6794,-2.6794,-2.6712,-2.6539,-2.634,-2.6233,-2.5997,-2.561,-2.5514,-2.5135,-2.439,-2.4188,-2.3723,-2.2887,-2.2957,-2.2907,-2.2465,-2.237,-2.2477,-2.2629,-2.2429,-2.2316,-2.2259,-2.183,-2.1384,-2.1098,-2.0342,-1.9606,-1.9197,-1.8824,-1.8517,-1.8595,-1.8721,-1.8836,-1.8965,-1.9325,-1.942,-1.925,-1.942,-1.9874,-2.0189,-2.0447,-2.0714,-2.1198,-2.1294,-2.1294,-2.1294,-2.1294,-2.1388,-2.1542,-2.1269,-2.1287,-2.186,-2.249,-2.285,-2.2977,-2.3119,-2.3071,-4.8981,-4.9192,-4.8576,-4.8398,-4.8544,-4.8171,-4.7852,-4.7525,-4.6246,-4.6001,-4.6214,-4.5005,-4.3997,-4.3434,-4.3358,-4.2466,-4.1219,-4.0854,-4.1124,-4.1595,-4.0816,-4.0585,-4.1095,-4.0337,-3.9164,-3.7698,-3.7121,-3.6142,-3.4704,-3.4117,-3.3937,-3.3813,-3.3675,-3.3536,-3.3479,-3.2986,-3.2718,-3.2532,-3.1721,-3.1027,-3.0311,-2.9192,-2.7954,-2.6711,-2.5877,-2.5232,-2.4807,-2.4676,-2.4769,-2.5205,-2.5219,-2.5537,-2.6136,-2.6233,-2.6326,-2.6457,-2.6645,-2.6712,-2.6712,-2.6539,-2.6365,-2.6286,-2.6125,-2.6056,-2.5948,-2.5893,-2.5697,-2.5275,-2.4864,-2.4357,-2.3491,-2.3414,-2.318,-2.271,-2.2544,-2.2537,-2.2689,-2.2749,-2.2634,-2.2536,-2.2308,-2.2076,-2.1614,-2.0684,-1.9875,-1.9551,-1.8976,-1.8503,-1.8634,-1.8721,-1.8822,-1.8941,-1.9288,-1.9362,-1.9176,-1.9566,-1.9782,-2.005,-2.0395,-2.0828,-2.1198,-2.1277,-2.1294,-2.1294,-2.1294,-2.134,-2.1464,-2.119,-2.1284,-2.2177,-2.2764,-2.2977,-2.3144,-2.3241,-2.3336,-4.8835,-4.9855,-4.9289,-4.9354,-4.9904,-4.8609,-4.7566,-4.6919,-4.6013,-4.5478,-4.5169,-4.4373,-4.3533,-4.2697,-4.2515,-4.164,-4.0412,-3.9589,-3.9684,-4.0122,-3.9252,-3.922,-4.01,-3.9073,-3.8165,-3.7489,-3.7157,-3.6245,-3.4992,-3.4113,-3.3605,-3.3605,-3.3605,-3.3536,-3.3382,-3.3618,-3.3348,-3.2633,-3.2596,-3.2225,-3.1097,-3.0306,-2.9083,-2.7469,-2.6477,-2.6096,-2.5957,-2.5863,-2.5809,-2.5837,-2.5809,-2.596,-2.6233,-2.6179,-2.6272,-2.6457,-2.651,-2.651,-2.6525,-2.6418,-2.6286,-2.6125,-2.6125,-2.6056,-2.5948,-2.5893,-2.5851,-2.5837,-2.5697,-2.5219,-2.4329,-2.414,-2.3865,-2.332,-2.2786,-2.2562,-2.2658,-2.2704,-2.2374,-2.2176,-2.2467,-2.2496,-2.1902,-2.1169,-2.0399,-1.9735,-1.8979,-1.8545,-1.8542,-1.8683,-1.8836,-1.8898,-1.9026,-1.9139,-1.9213,-1.9675,-2.0189,-2.0395,-2.063,-2.1183,-2.1246,-2.1294,-2.1294,-2.1294,-2.1294,-2.134,-2.1386,-2.1702,-2.2135,-2.2668,-2.2919,-2.3144,-2.3217,-2.3283,-2.336,-4.8285,-4.8835,-4.9451,-4.9872,-4.9985,-4.9062,-4.8175,-4.7261,-4.5457,-4.46,-4.4205,-4.2986,-4.2482,-4.2565,-4.1968,-4.1273,-4.0365,-4.0115,-4.0356,-4.0738,-3.995,-3.9698,-4.0106,-3.9874,-3.8807,-3.7506,-3.7487,-3.6629,-3.4868,-3.4356,-3.3988,-3.3662,-3.3466,-3.3396,-3.3466,-3.3536,-3.3353,-3.3182,-3.2868,-3.2535,-3.2046,-3.0854,-2.9665,-2.889,-2.7853,-2.7131,-2.672,-2.6525,-2.6301,-2.5921,-2.5893,-2.6002,-2.6165,-2.6218,-2.6272,-2.6365,-2.6457,-2.6457,-2.6418,-2.6553,-2.65,-2.6272,-2.6218,-2.6179,-2.6056,-2.5948,-2.5893,-2.5893,-2.5893,-2.5612,-2.5371,-2.5001,-2.4646,-2.412,-2.3555,-2.322,-2.3317,-2.3057,-2.2696,-2.2597,-2.2756,-2.2711,-2.2304,-2.1712,-2.094,-2.0274,-1.9528,-1.9007,-1.8705,-1.8736,-1.8898,-1.9124,-1.9161,-1.9213,-1.9472,-1.9711,-2.01,-2.0326,-2.0597,-2.0974,-2.1183,-2.1277,-2.1294,-2.1309,-2.1309,-2.1509,-2.1645,-2.2192,-2.2703,-2.2876,-2.3144,-2.3241,-2.3289,-2.3354,-2.3407,-4.8884,-4.8884,-4.9969,-5.0455,-5.0341,-4.9093,-4.8142,-4.7181,-4.5095,-4.3898,-4.3382,-4.2237,-4.1908,-4.2208,-4.1771,-4.1251,-4.0832,-4.0553,-4.0669,-4.0915,-4.0217,-3.9871,-3.9816,-3.9916,-3.9088,-3.749,-3.7521,-3.6765,-3.5367,-3.4782,-3.437,-3.4001,-3.3649,-3.355,-3.3605,-3.3536,-3.355,-3.3437,-3.318,-3.2919,-3.2459,-3.1397,-3.0435,-2.9842,-2.9089,-2.8207,-2.7343,-2.7032,-2.6694,-2.6259,-2.6188,-2.6244,-2.6299,-2.6531,-2.65,-2.6315,-2.6312,-2.6312,-2.6272,-2.6394,-2.6447,-2.6272,-2.6233,-2.6179,-2.6125,-2.6002,-2.5948,-2.5893,-2.5893,-2.5893,-2.5877,-2.5661,-2.5265,-2.4583,-2.398,-2.3601,-2.3508,-2.3117,-2.29,-2.2873,-2.2843,-2.274,-2.2433,-2.1867,-2.1125,-2.0274,-1.9669,-1.926,-1.8829,-1.8774,-1.8974,-1.9384,-1.9384,-1.9493,-1.9803,-2.0135,-2.0154,-2.0311,-2.073,-2.1039,-2.1183,-2.1246,-2.1309,-2.134,-2.1479,-2.1705,-2.2124,-2.2695,-2.2985,-2.3144,-2.3283,-2.3378,-2.3424,-2.3448,-2.3471,-5.0681,-5.0147,-5.0859,-5.1118,-5.0801,-4.8957,-4.7431,-4.6422,-4.4864,-4.3446,-4.2496,-4.214,-4.1908,-4.1771,-4.1619,-4.159,-4.1417,-4.0599,-4.0263,-4.03,-3.9924,-3.9456,-3.9001,-3.9179,-3.862,-3.7343,-3.6907,-3.6771,-3.6408,-3.5439,-3.4825,-3.4654,-3.4139,-3.3758,-3.3605,-3.3744,-3.3675,-3.3437,-3.3589,-3.3132,-3.1971,-3.186,-3.1311,-3.0368,-3.0054,-2.932,-2.7919,-2.7428,-2.7103,-2.6905,-2.6821,-2.6807,-2.6863,-2.7045,-2.6914,-2.6295,-2.6153,-2.6125,-2.6125,-2.6071,-2.6125,-2.6196,-2.6153,-2.6139,-2.6238,-2.6113,-2.6002,-2.5948,-2.5893,-2.5893,-2.5948,-2.6054,-2.5773,-2.464,-2.4089,-2.3569,-2.3155,-2.2853,-2.2841,-2.2917,-2.2902,-2.2538,-2.1928,-2.1639,-2.1082,-2.0062,-1.9515,-1.9246,-1.8853,-1.8836,-1.9049,-1.9406,-1.9624,-1.9839,-2.0189,-2.0496,-2.0429,-2.0413,-2.0909,-2.1246,-2.1246,-2.1309,-2.134,-2.1402,-2.1658,-2.1907,-2.2358,-2.2892,-2.3109,-2.3289,-2.3401,-2.3471,-2.3471,-2.3494,-2.3494,-5.0778,-5.0212,-5.0876,-5.1183,-5.0989,-4.9303,-4.7826,-4.6278,-4.4647,-4.2986,-4.1576,-4.1269,-4.1339,-4.1535,-4.1283,-4.1269,-4.159,-4.0901,-4.0716,-4.1025,-4.0637,-3.9782,-3.9036,-3.9038,-3.8428,-3.7437,-3.7195,-3.6869,-3.6461,-3.5738,-3.5296,-3.4895,-3.4266,-3.3911,-3.3827,-3.3744,-3.3536,-3.3396,-3.355,-3.3448,-3.2939,-3.2359,-3.1768,-3.1368,-3.0692,-2.9854,-2.9181,-2.8647,-2.8122,-2.764,-2.7525,-2.7481,-2.7468,-2.7159,-2.6835,-2.6567,-2.6283,-2.6125,-2.6125,-2.6153,-2.6446,-2.6783,-2.6489,-2.642,-2.6731,-2.6325,-2.6018,-2.5921,-2.5893,-2.5893,-2.5948,-2.6056,-2.6005,-2.5716,-2.4948,-2.4283,-2.3941,-2.3349,-2.2975,-2.2902,-2.2872,-2.2665,-2.2286,-2.1955,-2.1197,-2.026,-1.9766,-1.9367,-1.8945,-1.9011,-1.9369,-1.9818,-1.998,-2.0189,-2.0545,-2.0745,-2.0697,-2.0697,-2.1039,-2.1294,-2.1309,-2.1324,-2.1371,-2.157,-2.1836,-2.2147,-2.2599,-2.2993,-2.3247,-2.336,-2.3448,-2.3471,-2.3494,-2.3494,-2.3494,-5.0924,-5.0584,-5.0989,-5.1183,-5.093,-4.9005,-4.7446,-4.6137,-4.3778,-4.2111,-4.1184,-4.0859,-4.0958,-4.1198,-4.1114,-4.1283,-4.1619,-4.1283,-4.1283,-4.1561,-4.0996,-4.0092,-3.8915,-3.841,-3.801,-3.7374,-3.7303,-3.7181,-3.6845,-3.6139,-3.5741,-3.5437,-3.4505,-3.3951,-3.3896,-3.3744,-3.3619,-3.3466,-3.3605,-3.3575,-3.3289,-3.2739,-3.2227,-3.1725,-3.1056,-3.0477,-3.0007,-2.9487,-2.8944,-2.8389,-2.8158,-2.8113,-2.8085,-2.7734,-2.7411,-2.7088,-2.668,-2.641,-2.6451,-2.6493,-2.6771,-2.7265,-2.7085,-2.7031,-2.7427,-2.6975,-2.661,-2.6273,-2.6259,-2.6146,-2.595,-2.6042,-2.6218,-2.6258,-2.5322,-2.4606,-2.4177,-2.347,-2.296,-2.2888,-2.2857,-2.2651,-2.2273,-2.1985,-2.1255,-2.0457,-1.9916,-1.9552,-1.9228,-1.9273,-1.9732,-2.0135,-2.0376,-2.0613,-2.0925,-2.099,-2.0974,-2.1039,-2.1151,-2.1277,-2.1309,-2.1355,-2.1386,-2.1721,-2.1998,-2.2209,-2.2616,-2.3133,-2.3471,-2.3494,-2.343,-2.3494,-2.3494,-2.3494,-2.3494,-5.1167,-5.1183,-5.1183,-5.1108,-5.0747,-4.7887,-4.6575,-4.5963,-4.2899,-4.1339,-4.1213,-4.0873,-4.0773,-4.0958,-4.1297,-4.1535,-4.1688,-4.1521,-4.1437,-4.1367,-4.0986,-4.0111,-3.8929,-3.7811,-3.7219,-3.707,-3.7226,-3.7366,-3.7363,-3.6444,-3.6086,-3.597,-3.4831,-3.4074,-3.3951,-3.3896,-3.3827,-3.3675,-3.3827,-3.3611,-3.3097,-3.3059,-3.2688,-3.1637,-3.1372,-3.0998,-3.0358,-2.9931,-2.9388,-2.8876,-2.8745,-2.8745,-2.8731,-2.8689,-2.8197,-2.7762,-2.7186,-2.699,-2.7004,-2.6976,-2.7187,-2.7751,-2.7826,-2.8095,-2.8154,-2.7911,-2.7399,-2.6835,-2.6708,-2.6512,-2.6157,-2.6165,-2.6258,-2.6126,-2.5293,-2.4283,-2.3207,-2.2975,-2.2902,-2.2888,-2.2859,-2.2669,-2.2089,-2.1887,-2.1212,-2.038,-1.9921,-1.974,-1.9553,-1.9675,-2.0015,-2.0326,-2.0695,-2.0893,-2.1119,-2.1151,-2.1151,-2.1151,-2.1246,-2.1277,-2.1371,-2.1448,-2.1584,-2.1882,-2.2113,-2.2337,-2.2607,-2.3084,-2.3313,-2.3265,-2.3313,-2.343,-2.3494,-2.3494,-2.3494,-5.1016,-5.0679,-5.0679,-5.0679,-5.0317,-4.7981,-4.6669,-4.6073,-4.339,-4.1673,-4.1184,-4.0859,-4.0972,-4.1381,-4.1029,-4.1198,-4.1451,-4.1198,-4.0944,-4.0944,-4.0787,-3.9999,-3.8819,-3.7597,-3.6993,-3.707,-3.7226,-3.7303,-3.7281,-3.6442,-3.6072,-3.6028,-3.4987,-3.4225,-3.4074,-3.4088,-3.3937,-3.3882,-3.3937,-3.4002,-3.3772,-3.3341,-3.3062,-3.2745,-3.2112,-3.1425,-3.0685,-3.0015,-2.9608,-2.9406,-2.9364,-2.9378,-2.9265,-2.8591,-2.8254,-2.8296,-2.7495,-2.7173,-2.7698,-2.7682,-2.7996,-2.8843,-2.831,-2.8149,-2.8824,-2.8264,-2.7625,-2.7089,-2.6919,-2.6763,-2.6335,-2.6326,-2.6285,-2.5922,-2.5271,-2.4447,-2.376,-2.3209,-2.2888,-2.2888,-2.2888,-2.2727,-2.2523,-2.209,-2.1585,-2.0763,-2.036,-2.0121,-1.9914,-2.0172,-2.0584,-2.0711,-2.0958,-2.1119,-2.1246,-2.1277,-2.1277,-2.1246,-2.1277,-2.1277,-2.1433,-2.1601,-2.1823,-2.2096,-2.2265,-2.2456,-2.2634,-2.296,-2.3003,-2.3028,-2.3265,-2.3407,-2.3494,-2.3494,-2.3494,-5.0771,-5.0525,-5.0292,-5.012,-4.9679,-4.7494,-4.6272,-4.5348,-4.3319,-4.1875,-4.11,-4.1069,-4.1113,-4.1213,-4.0873,-4.0873,-4.1198,-4.0859,-4.0702,-4.0659,-4.0421,-3.9746,-3.8805,-3.7807,-3.7245,-3.6993,-3.7148,-3.7317,-3.7315,-3.6671,-3.6402,-3.636,-3.5375,-3.4766,-3.4531,-3.4311,-3.4142,-3.402,-3.4142,-3.4196,-3.4085,-3.3797,-3.337,-3.3073,-3.2445,-3.1815,-3.0771,-3.0228,-2.9897,-2.9687,-2.9602,-2.9602,-2.956,-2.8984,-2.8731,-2.9026,-2.8186,-2.8009,-2.8381,-2.8363,-2.8651,-2.9245,-2.8791,-2.8912,-2.9245,-2.893,-2.8446,-2.7923,-2.7612,-2.7257,-2.6826,-2.659,-2.6433,-2.6205,-2.5618,-2.4863,-2.4007,-2.331,-2.2946,-2.2888,-2.2888,-2.2902,-2.2812,-2.2337,-2.17,-2.1133,-2.098,-2.058,-2.0182,-2.0721,-2.1079,-2.1166,-2.1119,-2.1214,-2.1277,-2.1294,-2.1294,-2.1294,-2.1325,-2.1309,-2.1464,-2.1661,-2.1811,-2.2056,-2.232,-2.2483,-2.2527,-2.2634,-2.2833,-2.2935,-2.3199,-2.336,-2.3407,-2.3494,-2.3494,-5.0509,-5.0448,-5.0152,-4.9661,-4.8914,-4.6676,-4.5544,-4.4709,-4.2824,-4.1554,-4.1099,-4.1336,-4.1095,-4.0716,-4.0702,-4.0702,-4.0702,-4.0702,-4.0702,-4.0561,-4.0238,-3.9662,-3.9058,-3.8355,-3.7709,-3.7259,-3.7105,-3.7296,-3.7329,-3.6953,-3.6919,-3.6751,-3.5938,-3.5331,-3.4987,-3.4636,-3.4307,-3.421,-3.4278,-3.4278,-3.4196,-3.4041,-3.3729,-3.325,-3.2777,-3.198,-3.103,-3.0516,-3.0221,-2.9617,-2.9602,-2.9602,-2.9602,-2.956,-2.9518,-2.9406,-2.9007,-2.8848,-2.9166,-2.9121,-2.9106,-2.9473,-2.96,-2.9651,-2.9662,-2.961,-2.9341,-2.8717,-2.8496,-2.7868,-2.7193,-2.6745,-2.6621,-2.6547,-2.6112,-2.5241,-2.4297,-2.347,-2.2989,-2.2975,-2.2975,-2.2888,-2.2743,-2.2454,-2.1888,-2.1553,-2.1514,-2.1484,-2.1172,-2.1365,-2.1563,-2.1553,-2.144,-2.1294,-2.1294,-2.1294,-2.1294,-2.1294,-2.1294,-2.134,-2.1464,-2.1648,-2.1708,-2.1869,-2.2153,-2.2169,-2.2044,-2.2226,-2.2527,-2.2764,-2.296,-2.3175,-2.336,-2.3471,-2.3494,-5.0848,-5.0525,-5.0448,-4.9963,-4.8898,-4.69,-4.5574,-4.4724,-4.2478,-4.1412,-4.1057,-4.0942,-4.0856,-4.0702,-4.0702,-4.0702,-4.0702,-4.0702,-4.0702,-4.0674,-4.0603,-4.014,-3.9578,-3.8974,-3.8327,-3.7901,-3.7853,-3.777,-3.7443,-3.72,-3.7008,-3.6923,-3.6243,-3.5372,-3.5299,-3.4824,-3.4414,-3.4346,-3.4428,-3.4375,-3.4278,-3.4128,-3.3973,-3.3704,-3.3143,-3.2263,-3.1425,-3.0783,-3.0235,-2.9785,-2.9602,-2.9602,-2.9532,-2.9209,-2.9223,-2.9454,-2.9191,-2.9188,-2.9708,-2.9704,-2.9732,-2.9961,-2.9771,-2.9665,-2.9747,-2.9808,-2.9525,-2.8972,-2.8568,-2.7937,-2.7122,-2.6828,-2.6727,-2.6649,-2.6228,-2.5734,-2.527,-2.4355,-2.3688,-2.3557,-2.3178,-2.2888,-2.2888,-2.2801,-2.2381,-2.1988,-2.2084,-2.2376,-2.2273,-2.2055,-2.2175,-2.2166,-2.1762,-2.16,-2.1535,-2.1471,-2.1294,-2.1309,-2.1309,-2.134,-2.1464,-2.1648,-2.1738,-2.184,-2.2027,-2.1957,-2.1827,-2.1969,-2.232,-2.251,-2.2712,-2.2985,-2.3241,-2.336,-2.3494,-5.0005,-4.9473,-4.892,-4.8261,-4.745,-4.5737,-4.4481,-4.3609,-4.248,-4.1483,-4.1043,-4.0969,-4.0969,-4.0702,-4.0702,-4.0702,-4.0702,-4.0702,-4.0702,-4.0702,-4.0688,-4.0505,-4.0365,-3.9858,-3.9335,-3.8347,-3.847,-3.826,-3.7796,-3.772,-3.7846,-3.7531,-3.6635,-3.6185,-3.5836,-3.5346,-3.4926,-3.452,-3.4596,-3.4611,-3.4254,-3.4196,-3.4059,-3.3991,-3.3443,-3.2794,-3.1632,-3.1307,-3.0552,-2.9855,-2.9602,-2.9602,-2.9588,-2.9321,-2.9336,-2.9434,-2.9459,-2.9529,-2.9903,-2.996,-2.9856,-3.0144,-2.9851,-2.9775,-2.9822,-2.9884,-2.9832,-2.9483,-2.8915,-2.8062,-2.6982,-2.6794,-2.6794,-2.6736,-2.6474,-2.6257,-2.601,-2.4878,-2.3876,-2.376,-2.331,-2.2989,-2.2888,-2.2888,-2.2628,-2.2091,-2.2742,-2.3,-2.2586,-2.2478,-2.2908,-2.2826,-2.2231,-2.1908,-2.1811,-2.1633,-2.131,-2.1309,-2.134,-2.1355,-2.1417,-2.1601,-2.1781,-2.1869,-2.1928,-2.1928,-2.184,-2.1982,-2.2096,-2.232,-2.2563,-2.2859,-2.3102,-2.3271,-2.3407,-4.8989,-4.8206,-4.72,-4.6413,-4.5565,-4.4355,-4.3259,-4.2396,-4.211,-4.1426,-4.0928,-4.1264,-4.1039,-4.0786,-4.0702,-4.0702,-4.0702,-4.0702,-4.0702,-4.0702,-4.0702,-4.0659,-4.0646,-4.0619,-4.0205,-3.8785,-3.9235,-3.8982,-3.85,-3.8582,-3.8471,-3.8159,-3.7564,-3.6925,-3.6461,-3.6114,-3.5552,-3.4929,-3.5001,-3.4903,-3.4441,-3.4297,-3.4142,-3.3922,-3.3879,-3.3214,-3.2212,-3.1693,-3.1104,-2.9904,-2.9659,-2.9617,-2.9602,-2.9602,-2.9602,-2.9602,-2.9718,-2.9917,-3.0021,-2.9974,-2.996,-3.0111,-2.9803,-2.9665,-2.9837,-2.996,-3.0068,-2.9789,-2.9247,-2.8161,-2.7099,-2.6823,-2.6808,-2.6779,-2.6779,-2.6794,-2.6489,-2.5197,-2.4457,-2.4022,-2.3644,-2.3235,-2.2989,-2.2873,-2.2526,-2.2396,-2.3082,-2.3483,-2.305,-2.2976,-2.3333,-2.3465,-2.2891,-2.2313,-2.2135,-2.1665,-2.139,-2.134,-2.1371,-2.1386,-2.1417,-2.157,-2.1738,-2.1738,-2.1768,-2.1781,-2.1811,-2.1869,-2.1998,-2.2153,-2.2347,-2.2607,-2.2867,-2.3157,-2.3271,-4.8583,-4.7902,-4.7675,-4.6654,-4.514,-4.4281,-4.3171,-4.2038,-4.1483,-4.1043,-4.0744,-4.08,-4.0842,-4.0716,-4.0702,-4.0702,-4.0702,-4.0702,-4.0702,-4.0702,-4.0702,-4.0773,-4.0916,-4.0972,-4.0755,-4.056,-4.044,-3.9794,-3.903,-3.8963,-3.875,-3.8202,-3.7651,-3.7157,-3.6823,-3.649,-3.6172,-3.5623,-3.5449,-3.5273,-3.4998,-3.4592,-3.4264,-3.4074,-3.4074,-3.3575,-3.2744,-3.2014,-3.1367,-3.0623,-2.9946,-2.9673,-2.9602,-2.9602,-2.9602,-2.9665,-2.9851,-3.0036,-3.0111,-3.005,-3.005,-3.005,-2.9789,-2.9713,-2.9837,-2.996,-3.0068,-2.9846,-2.913,-2.8179,-2.765,-2.7084,-2.6823,-2.6794,-2.6794,-2.6794,-2.6605,-2.601,-2.5154,-2.4718,-2.4138,-2.347,-2.3105,-2.2888,-2.2728,-2.2658,-2.3069,-2.345,-2.3402,-2.3434,-2.3698,-2.3729,-2.3562,-2.2973,-2.2475,-2.1843,-2.1406,-2.1356,-2.1371,-2.1433,-2.1495,-2.1587,-2.1694,-2.1738,-2.1768,-2.1781,-2.1781,-2.1781,-2.184,-2.1969,-2.2124,-2.232,-2.2563,-2.2798,-2.291,-4.7734,-4.6528,-4.6106,-4.5107,-4.3731,-4.2919,-4.2218,-4.1511,-4.1128,-4.093,-4.0787,-4.0702,-4.0702,-4.0702,-4.0702,-4.0702,-4.0702,-4.0702,-4.0702,-4.0702,-4.0773,-4.0916,-4.1071,-4.1254,-4.1279,-4.1213,-4.0992,-4.0278,-3.9151,-3.9112,-3.8826,-3.8289,-3.7868,-3.7562,-3.7286,-3.7213,-3.6722,-3.6317,-3.5869,-3.5578,-3.5328,-3.4733,-3.4375,-3.4278,-3.4235,-3.3797,-3.3116,-3.2616,-3.1786,-3.0942,-3.0326,-2.994,-2.9729,-2.9602,-2.9665,-2.9713,-2.9898,-3.0021,-3.0083,-3.0097,-3.0021,-3.0144,-2.9837,-2.9775,-2.996,-3.0068,-3.0058,-2.9691,-2.9175,-2.8307,-2.7766,-2.7186,-2.6852,-2.6794,-2.6794,-2.6794,-2.6721,-2.646,-2.5952,-2.5299,-2.4471,-2.3731,-2.3018,-2.2888,-2.2888,-2.2963,-2.3157,-2.3304,-2.3508,-2.3679,-2.3856,-2.4157,-2.3999,-2.349,-2.2962,-2.2443,-2.1761,-2.1598,-2.1531,-2.1593,-2.1556,-2.1694,-2.1724,-2.1768,-2.1797,-2.1781,-2.1781,-2.1781,-2.1781,-2.1811,-2.2027,-2.2237,-2.232,-2.2429,-2.2527,-4.6686,-4.5064,-4.4297,-4.3352,-4.2275,-4.159,-4.1213,-4.1015,-4.093,-4.0845,-4.0702,-4.0702,-4.0702,-4.0702,-4.0702,-4.0702,-4.0702,-4.0702,-4.0702,-4.0773,-4.093,-4.1001,-4.1254,-4.1294,-4.14,-4.128,-4.0749,-4.0263,-3.9596,-3.9276,-3.8812,-3.8362,-3.8188,-3.7924,-3.7546,-3.7734,-3.7271,-3.6852,-3.6187,-3.5811,-3.5227,-3.4704,-3.4414,-3.4414,-3.4414,-3.41,-3.3561,-3.3059,-3.2439,-3.1503,-3.0863,-3.0355,-2.9869,-2.9659,-2.9713,-2.9808,-2.9884,-3.0007,-3.0129,-3.0129,-3.0068,-3.0266,-2.9898,-2.996,-3.0144,-3.0222,-3.0093,-2.9769,-2.9276,-2.8666,-2.8086,-2.7374,-2.6982,-2.6794,-2.6794,-2.6794,-2.6794,-2.662,-2.6329,-2.5618,-2.4747,-2.421,-2.3714,-2.3235,-2.3354,-2.3134,-2.3271,-2.3068,-2.3275,-2.3551,-2.3819,-2.4398,-2.4441,-2.3922,-2.3499,-2.3194,-2.254,-2.2019,-2.1967,-2.2012,-2.1859,-2.1754,-2.1768,-2.1797,-2.1797,-2.1781,-2.1781,-2.1781,-2.1781,-2.184,-2.2027,-2.2096,-2.2096,-2.2169,-2.2254,-4.5599,-4.419,-4.3851,-4.2695,-4.131,-4.1085,-4.0944,-4.0787,-4.0787,-4.0702,-4.0702,-4.0702,-4.0702,-4.0702,-4.0702,-4.0702,-4.0702,-4.0702,-4.0773,-4.0845,-4.1001,-4.1226,-4.1392,-4.1044,-4.1117,-4.0981,-4.0075,-3.9784,-3.9596,-3.932,-3.8841,-3.8318,-3.8202,-3.8069,-3.7832,-3.7979,-3.7994,-3.7572,-3.6722,-3.5749,-3.4762,-3.4472,-3.4428,-3.4414,-3.4399,-3.4356,-3.4071,-3.3537,-3.2915,-3.2487,-3.1389,-3.0715,-3.0397,-2.9967,-2.9893,-2.9974,-3.0111,-3.0097,-3.0251,-3.0251,-3.019,-3.0266,-3.0097,-3.0144,-3.0266,-3.0447,-3.0464,-3.0495,-2.9842,-2.916,-2.8507,-2.794,-2.7403,-2.6997,-2.6794,-2.6794,-2.6779,-2.6779,-2.6489,-2.6257,-2.5502,-2.5168,-2.4757,-2.4239,-2.3775,-2.3586,-2.3368,-2.3167,-2.3112,-2.3392,-2.3809,-2.4378,-2.4664,-2.4207,-2.4032,-2.3715,-2.3276,-2.2622,-2.2422,-2.2384,-2.2167,-2.1966,-2.1768,-2.1797,-2.1797,-2.1797,-2.1781,-2.1781,-2.1781,-2.184,-2.1911,-2.1899,-2.184,-2.1928,-2.2061,-4.4555,-4.3587,-4.3066,-4.2058,-4.093,-4.0845,-4.0773,-4.0702,-4.0702,-4.0702,-4.0702,-4.0702,-4.0702,-4.0702,-4.0702,-4.0702,-4.0702,-4.0702,-4.0787,-4.093,-4.1071,-4.1083,-4.099,-4.0977,-4.0908,-4.035,-3.9741,-3.9392,-3.9363,-3.8986,-3.8434,-3.8275,-3.8202,-3.8202,-3.8081,-3.8127,-3.8127,-3.775,-3.6881,-3.5691,-3.4748,-3.4414,-3.4414,-3.4414,-3.4414,-3.4414,-3.4259,-3.3994,-3.3442,-3.2968,-3.2136,-3.1678,-3.1217,-3.0772,-3.0515,-3.0735,-3.0391,-3.0294,-3.0447,-3.0387,-3.0387,-3.0387,-3.028,-3.0158,-3.0326,-3.0507,-3.0642,-3.0613,-2.9987,-2.9363,-2.8724,-2.81,-2.7476,-2.7026,-2.6794,-2.6794,-2.6779,-2.6779,-2.6663,-2.6489,-2.6315,-2.5981,-2.5502,-2.4718,-2.4196,-2.3963,-2.3615,-2.3209,-2.32,-2.3348,-2.3809,-2.4338,-2.4484,-2.4426,-2.4386,-2.4267,-2.3945,-2.3358,-2.2831,-2.2729,-2.2462,-2.2261,-2.2096,-2.188,-2.1814,-2.1814,-2.1797,-2.1781,-2.1781,-2.1781,-2.1781,-2.1847,-2.1897,-2.1877,-2.1965,-4.3269,-4.2761,-4.2371,-4.1576,-4.0716,-4.0702,-4.0702,-4.0702,-4.0702,-4.0617,-4.0477,-4.0449,-4.0519,-4.0688,-4.0702,-4.0702,-4.0702,-4.0702,-4.0787,-4.0845,-4.0929,-4.0867,-4.0713,-4.0712,-4.0307,-3.9857,-3.9189,-3.8942,-3.8783,-3.8522,-3.826,-3.8202,-3.8202,-3.8202,-3.8202,-3.8159,-3.8086,-3.7462,-3.6751,-3.5677,-3.4661,-3.4414,-3.4414,-3.4414,-3.4414,-3.4414,-3.4346,-3.4249,-3.3811,-3.3311,-3.2858,-3.2354,-3.1933,-3.146,-3.1105,-3.1171,-3.0845,-3.0664,-3.0594,-3.0493,-3.0433,-3.0447,-3.0462,-3.0341,-3.0372,-3.0507,-3.0642,-3.0628,-2.9987,-2.9363,-2.8739,-2.8115,-2.7476,-2.7055,-2.6794,-2.6794,-2.6779,-2.6779,-2.6779,-2.6663,-2.6591,-2.6649,-2.6054,-2.5139,-2.4617,-2.437,-2.392,-2.3366,-2.3374,-2.354,-2.3894,-2.4444,-2.4575,-2.4661,-2.4807,-2.4703,-2.4434,-2.4092,-2.3539,-2.3076,-2.2811,-2.2644,-2.2526,-2.2278,-2.2043,-2.1897,-2.193,-2.1847,-2.1781,-2.1781,-2.1814,-2.1963,-2.2013,-2.1963,-2.1943,-4.1854,-4.1771,-4.1742,-4.1324,-4.0702,-4.0702,-4.0702,-4.0631,-4.0688,-4.0378,-3.9971,-3.9901,-4.0224,-4.0561,-4.0674,-4.0702,-4.0702,-4.0702,-4.0717,-4.0774,-4.0713,-4.0564,-4.0349,-3.9859,-3.9407,-3.9175,-3.871,-3.8434,-3.8304,-3.8347,-3.8202,-3.8202,-3.8202,-3.8202,-3.8202,-3.8173,-3.7578,-3.6983,-3.6373,-3.5691,-3.4777,-3.4414,-3.4414,-3.4414,-3.4414,-3.4414,-3.4414,-3.4346,-3.4182,-3.3751,-3.3297,-3.3001,-3.2663,-3.2188,-3.1897,-3.168,-3.1503,-3.1188,-3.0887,-3.0626,-3.0568,-3.0582,-3.0582,-3.0507,-3.0507,-3.0568,-3.0642,-3.0539,-3.0089,-2.9435,-2.8782,-2.8129,-2.7621,-2.7026,-2.6794,-2.6794,-2.6794,-2.6779,-2.6779,-2.6779,-2.6794,-2.6794,-2.6721,-2.5821,-2.5299,-2.5067,-2.4588,-2.4032,-2.3905,-2.4005,-2.4176,-2.4477,-2.467,-2.4897,-2.5201,-2.5004,-2.4551,-2.4349,-2.4013,-2.357,-2.316,-2.3027,-2.2897,-2.2692,-2.2427,-2.2228,-2.2013,-2.1913,-2.1831,-2.1797,-2.1847,-2.193,-2.2112,-2.2162,-2.2079,-4.0879,-4.0517,-4.0148,-4.0251,-4.0702,-4.0702,-4.0491,-4.0252,-4.0519,-4.035,-3.976,-3.9788,-3.9901,-4.0168,-4.0575,-4.0702,-4.0702,-4.0702,-4.0619,-4.0505,-4.0428,-4.0063,-3.9715,-3.9338,-3.903,-3.8652,-3.8304,-3.8202,-3.8231,-3.8202,-3.8202,-3.8202,-3.8202,-3.8202,-3.8202,-3.813,-3.7418,-3.6635,-3.6199,-3.5677,-3.4704,-3.4414,-3.4414,-3.4414,-3.4414,-3.4414,-3.4414,-3.4414,-3.421,-3.3948,-3.3665,-3.3511,-3.3328,-3.292,-3.2717,-3.2486,-3.226,-3.1801,-3.1192,-3.0843,-3.0642,-3.0642,-3.0582,-3.0642,-3.0597,-3.0642,-3.0642,-3.048,-3.0306,-2.9697,-2.8782,-2.8419,-2.8013,-2.7186,-2.6794,-2.6794,-2.6794,-2.6794,-2.6794,-2.6794,-2.6794,-2.6794,-2.6707,-2.6547,-2.6126,-2.5749,-2.5241,-2.4805,-2.4602,-2.449,-2.4622,-2.4693,-2.488,-2.4926,-2.5226,-2.4958,-2.4617,-2.4578,-2.4511,-2.411,-2.3719,-2.3373,-2.3226,-2.303,-2.2907,-2.2758,-2.2493,-2.2062,-2.1864,-2.1814,-2.1814,-2.1864,-2.2062,-2.2294,-2.2245,-4.0103,-3.969,-3.9128,-3.9465,-4.035,-4.0238,-3.9915,-3.9648,-3.9943,-3.9943,-3.9521,-3.9493,-3.9521,-3.969,-4.0126,-4.0224,-4.0097,-4.0027,-4.0012,-3.9867,-3.9715,-3.9404,-3.9067,-3.876,-3.8623,-3.826,-3.8202,-3.8202,-3.8202,-3.8202,-3.8202,-3.8202,-3.8202,-3.8202,-3.8202,-3.813,-3.7491,-3.6388,-3.607,-3.5578,-3.452,-3.4346,-3.4346,-3.4346,-3.4414,-3.4414,-3.4346,-3.4346,-3.4142,-3.402,-3.3839,-3.3922,-3.3794,-3.3632,-3.3489,-3.3318,-3.3035,-3.2498,-3.1859,-3.1264,-3.0785,-3.0626,-3.0858,-3.0771,-3.064,-3.0642,-3.0642,-3.0539,-3.0379,-2.9856,-2.8768,-2.8376,-2.7853,-2.6997,-2.6823,-2.6794,-2.6794,-2.6794,-2.6794,-2.6794,-2.6794,-2.6794,-2.6765,-2.6707,-2.6576,-2.617,-2.5691,-2.5342,-2.5226,-2.513,-2.5092,-2.5106,-2.5118,-2.5137,-2.5102,-2.4955,-2.4901,-2.5171,-2.5064,-2.477,-2.4414,-2.4048,-2.3728,-2.3605,-2.347,-2.3305,-2.2957,-2.2493,-2.2129,-2.1814,-2.193,-2.2112,-2.1996,-2.2212,-2.2294,-3.9295,-3.969,-3.9058,-3.917,-3.9648,-3.917,-3.8931,-3.8861,-3.8875,-3.8889,-3.8875,-3.8875,-3.8875,-3.9016,-3.9521,-3.9564,-3.9255,-3.9128,-3.9151,-3.924,-3.9059,-3.8746,-3.8635,-3.8442,-3.8362,-3.8246,-3.8202,-3.8202,-3.8202,-3.8202,-3.8202,-3.8202,-3.8202,-3.8202,-3.8202,-3.8188,-3.7215,-3.5793,-3.5941,-3.5261,-3.4621,-3.4264,-3.4264,-3.4346,-3.4414,-3.4414,-3.4346,-3.4264,-3.4074,-3.3951,-3.3813,-3.3813,-3.3839,-3.3894,-3.3797,-3.3601,-3.3529,-3.3137,-3.2542,-3.1874,-3.1395,-3.0974,-3.1235,-3.1134,-3.0756,-3.0597,-3.0642,-3.0553,-3.0205,-2.9581,-2.8811,-2.8202,-2.7636,-2.7157,-2.6997,-2.6794,-2.6794,-2.6794,-2.6794,-2.6794,-2.6794,-2.6794,-2.6794,-2.6794,-2.6808,-2.6547,-2.6112,-2.5879,-2.5792,-2.5785,-2.5733,-2.5491,-2.5414,-2.5342,-2.5348,-2.5182,-2.5229,-2.5576,-2.5481,-2.5064,-2.5028,-2.498,-2.465,-2.4298,-2.4166,-2.4116,-2.3537,-2.2907,-2.2543,-2.2228,-2.2361,-2.246,-2.2261,-2.2112,-2.2212,-3.8341,-3.8482,-3.7878,-3.7976,-3.8524,-3.8791,-3.8636,-3.8187,-3.785,-3.785,-3.8159,-3.8229,-3.8229,-3.8412,-3.8819,-3.9016,-3.8875,-3.8929,-3.8926,-3.8695,-3.8503,-3.8423,-3.8351,-3.8301,-3.8202,-3.8202,-3.8202,-3.8202,-3.8202,-3.8202,-3.8202,-3.8202,-3.8202,-3.8202,-3.8072,-3.7839,-3.6954,-3.6112,-3.5722,-3.5186,-3.453,-3.4346,-3.4332,-3.4414,-3.4414,-3.4414,-3.4346,-3.4196,-3.4005,-3.3896,-3.3758,-3.3813,-3.3896,-3.3965,-3.4041,-3.4013,-3.4066,-3.3804,-3.3325,-3.2846,-3.2542,-3.2077,-3.1613,-3.1496,-3.1192,-3.0771,-3.0655,-3.0628,-3.035,-2.9842,-2.9392,-2.8768,-2.8173,-2.7549,-2.7229,-2.6895,-2.6794,-2.6794,-2.6794,-2.6794,-2.6794,-2.6895,-2.6939,-2.7229,-2.7302,-2.7026,-2.6605,-2.6445,-2.6358,-2.6358,-2.6337,-2.5901,-2.5725,-2.5634,-2.5597,-2.5571,-2.5619,-2.5866,-2.555,-2.4984,-2.514,-2.5675,-2.5586,-2.5205,-2.5058,-2.4911,-2.4116,-2.3388,-2.294,-2.2708,-2.2576,-2.246,-2.2245,-2.2129,-2.2162,-3.7709,-3.7821,-3.7245,-3.733,-3.7878,-3.8131,-3.7962,-3.754,-3.7175,-3.7231,-3.7569,-3.7779,-3.7765,-3.7835,-3.8187,-3.8327,-3.8257,-3.8281,-3.8357,-3.8161,-3.8225,-3.8198,-3.8121,-3.8127,-3.8142,-3.8142,-3.8202,-3.8202,-3.8202,-3.8202,-3.8202,-3.8202,-3.8202,-3.8202,-3.8086,-3.7781,-3.7215,-3.646,-3.5853,-3.5447,-3.4853,-3.452,-3.4346,-3.4346,-3.4414,-3.4414,-3.4346,-3.421,-3.4005,-3.3896,-3.3827,-3.3813,-3.3896,-3.402,-3.4142,-3.4278,-3.437,-3.4167,-3.3877,-3.3775,-3.3485,-3.3224,-3.2396,-3.1685,-3.1308,-3.0756,-3.0626,-3.0642,-3.0642,-3.0219,-2.9697,-2.9102,-2.8724,-2.8086,-2.7592,-2.7258,-2.7113,-2.7142,-2.691,-2.6895,-2.7171,-2.7215,-2.7345,-2.7607,-2.7882,-2.7505,-2.7113,-2.6982,-2.6823,-2.6736,-2.6692,-2.6396,-2.6199,-2.6213,-2.6164,-2.6039,-2.6106,-2.6176,-2.5892,-2.5493,-2.5847,-2.6426,-2.625,-2.6056,-2.5785,-2.5342,-2.453,-2.3868,-2.3272,-2.2708,-2.2294,-2.2195,-2.2145,-2.2178,-2.2212,-3.733,-3.7737,-3.7231,-3.7316,-3.7709,-3.733,-3.7063,-3.7007,-3.6993,-3.6993,-3.7049,-3.7611,-3.754,-3.7217,-3.7639,-3.7611,-3.7366,-3.7423,-3.755,-3.7739,-3.7949,-3.7973,-3.8034,-3.8142,-3.8066,-3.8066,-3.8066,-3.8202,-3.8202,-3.8202,-3.8202,-3.8202,-3.8202,-3.8202,-3.8159,-3.7999,-3.7375,-3.6577,-3.5925,-3.5476,-3.4994,-3.4495,-3.4322,-3.4346,-3.4414,-3.4346,-3.4278,-3.4088,-3.3951,-3.3827,-3.3619,-3.3675,-3.3744,-3.3896,-3.4088,-3.4278,-3.4414,-3.4356,-3.4312,-3.4269,-3.4153,-3.3746,-3.2991,-3.1932,-3.1192,-3.0843,-3.0657,-3.0642,-3.0628,-3.0205,-2.9784,-2.9537,-2.929,-2.8695,-2.8129,-2.7868,-2.7708,-2.752,-2.72,-2.7287,-2.7723,-2.7955,-2.8216,-2.8448,-2.8434,-2.7766,-2.7374,-2.7128,-2.6968,-2.6794,-2.675,-2.6736,-2.6643,-2.682,-2.6747,-2.6485,-2.6537,-2.6612,-2.6842,-2.6671,-2.6985,-2.6939,-2.6681,-2.6438,-2.6247,-2.5756,-2.4862,-2.41,-2.3454,-2.2957,-2.2841,-2.2477,-2.2592,-2.2377,-2.2391,-3.7091,-3.7231,-3.7063,-3.7091,-3.7203,-3.7063,-3.6978,-3.6978,-3.6978,-3.6978,-3.7007,-3.7161,-3.7161,-3.7021,-3.7175,-3.7197,-3.7204,-3.7303,-3.7562,-3.7701,-3.7853,-3.7929,-3.8005,-3.8066,-3.8066,-3.7991,-3.8066,-3.8202,-3.8202,-3.8202,-3.8202,-3.8202,-3.8202,-3.8202,-3.8202,-3.8202,-3.736,-3.6591,-3.5969,-3.5447,-3.5009,-3.452,-3.4375,-3.4346,-3.4414,-3.4346,-3.421,-3.402,-3.3896,-3.3827,-3.3605,-3.3675,-3.4005,-3.4074,-3.4196,-3.4346,-3.4414,-3.4399,-3.4414,-3.4414,-3.4283,-3.3862,-3.305,-3.2585,-3.183,-3.1206,-3.0744,-3.0642,-3.0642,-3.0306,-3.0103,-2.99,-2.9711,-2.9334,-2.8797,-2.8477,-2.8303,-2.8129,-2.7853,-2.8071,-2.8492,-2.871,-2.8985,-2.9189,-2.9058,-2.8216,-2.7621,-2.736,-2.7055,-2.6866,-2.6794,-2.6794,-2.6846,-2.6884,-2.6951,-2.677,-2.6931,-2.7067,-2.7317,-2.749,-2.7478,-2.7365,-2.7054,-2.6702,-2.6399,-2.5822,-2.5094,-2.4464,-2.4,-2.4116,-2.4,-2.3437,-2.299,-2.2924,-2.2791,-3.6978,-3.6978,-3.6978,-3.6978,-3.6978,-3.6978,-3.6978,-3.6978,-3.6978,-3.6978,-3.6978,-3.6993,-3.6978,-3.6978,-3.7007,-3.707,-3.7317,-3.738,-3.761,-3.7853,-3.8005,-3.7929,-3.8005,-3.8081,-3.8081,-3.8005,-3.8066,-3.8202,-3.8202,-3.8202,-3.8202,-3.8202,-3.8202,-3.8202,-3.8202,-3.813,-3.768,-3.6852,-3.6141,-3.5575,-3.5125,-3.4646,-3.4443,-3.4414,-3.4414,-3.4278,-3.4128,-3.3951,-3.3896,-3.3813,-3.3605,-3.3675,-3.3937,-3.3991,-3.4128,-3.4278,-3.4346,-3.4346,-3.4414,-3.4414,-3.4182,-3.3819,-3.3253,-3.2977,-3.2309,-3.1569,-3.0974,-3.0642,-3.0642,-3.0524,-3.0393,-3.0263,-3.0132,-2.9972,-2.9537,-2.9087,-2.8927,-2.8782,-2.8869,-2.9029,-2.9247,-2.9435,-2.9653,-2.9856,-2.961,-2.8695,-2.7998,-2.7636,-2.7229,-2.6837,-2.6794,-2.6794,-2.6794,-2.6846,-2.6899,-2.7055,-2.727,-2.7507,-2.7937,-2.805,-2.8017,-2.7758,-2.7394,-2.6908,-2.6399,-2.5839,-2.5259,-2.511,-2.4829,-2.4895,-2.4779,-2.4232,-2.3901,-2.3967,-2.3785,-3.6978,-3.6978,-3.6978,-3.6978,-3.6978,-3.6978,-3.6978,-3.6978,-3.6978,-3.6978,-3.6978,-3.6978,-3.6978,-3.6978,-3.6978,-3.7134,-3.7303,-3.7548,-3.7687,-3.7929,-3.8066,-3.8066,-3.7991,-3.8066,-3.8005,-3.8005,-3.8066,-3.8127,-3.8202,-3.8202,-3.8202,-3.8202,-3.8202,-3.8202,-3.8202,-3.8202,-3.781,-3.7172,-3.6649,-3.6114,-3.5706,-3.5096,-3.4346,-3.4346,-3.4278,-3.421,-3.4074,-3.3937,-3.3813,-3.3675,-3.3605,-3.3689,-3.3744,-3.3922,-3.4059,-3.4128,-3.4278,-3.4278,-3.4346,-3.4346,-3.4346,-3.4153,-3.3848,-3.3456,-3.2745,-3.1758,-3.1061,-3.0974,-3.1032,-3.0858,-3.0713,-3.051,-3.0364,-3.0263,-2.9987,-2.974,-2.9639,-2.9523,-2.9508,-2.9668,-2.9769,-2.9972,-3.0118,-3.0277,-2.9972,-2.9087,-2.8448,-2.8013,-2.7447,-2.6953,-2.6779,-2.6779,-2.6794,-2.6846,-2.6899,-2.7093,-2.7509,-2.7902,-2.834,-2.8568,-2.8488,-2.8141,-2.776,-2.7031,-2.6303,-2.5971,-2.5541,-2.5458,-2.5392,-2.5309,-2.5143,-2.4829,-2.4746,-2.4862,-2.463,-3.6978,-3.6978,-3.6978,-3.6978,-3.6978,-3.6978,-3.6978,-3.6978,-3.6978,-3.6978,-3.6978,-3.6978,-3.6978,-3.6978,-3.6978,-3.7226,-3.7457,-3.7625,-3.7839,-3.7991,-3.8202,-3.8066,-3.7915,-3.7929,-3.7929,-3.7929,-3.8005,-3.8066,-3.8202,-3.8202,-3.8202,-3.8202,-3.8202,-3.8202,-3.8202,-3.8188,-3.7825,-3.7345,-3.6751,-3.6187,-3.5635,-3.49,-3.4128,-3.4142,-3.4142,-3.402,-3.3882,-3.3882,-3.3744,-3.3675,-3.3758,-3.3827,-3.3813,-3.4005,-3.4005,-3.402,-3.421,-3.421,-3.4157,-3.421,-3.4278,-3.4105,-3.3854,-3.363,-3.2991,-3.1932,-3.1409,-3.1496,-3.1409,-3.1206,-3.0988,-3.0771,-3.0628,-3.0495,-3.0422,-3.035,-3.0292,-3.0219,-3.0132,-3.019,-3.0277,-3.0393,-3.0539,-3.0422,-3.0118,-2.9581,-2.8927,-2.8347,-2.7679,-2.7142,-2.6875,-2.6832,-2.6846,-2.6846,-2.6846,-2.7041,-2.7423,-2.7929,-2.8401,-2.8645,-2.8881,-2.8329,-2.7694,-2.6833,-2.6137,-2.5938,-2.5889,-2.5988,-2.5905,-2.574,-2.5657,-2.5425,-2.5524,-2.564,-2.5359,-3.6978,-3.6978,-3.6978,-3.6978,-3.6978,-3.6978,-3.6978,-3.6978,-3.6978,-3.6978,-3.6978,-3.6978,-3.7056,-3.7134,-3.7134,-3.7303,-3.7625,-3.7701,-3.7915,-3.8142,-3.8127,-3.8066,-3.8005,-3.7853,-3.7915,-3.7991,-3.7991,-3.8142,-3.8202,-3.8202,-3.8202,-3.8202,-3.8202,-3.8127,-3.8098,-3.7924,-3.7765,-3.7397,-3.672,-3.5985,-3.5422,-3.4836,-3.4358,-3.4218,-3.402,-3.3882,-3.3813,-3.3813,-3.3675,-3.3605,-3.3605,-3.3675,-3.3744,-3.3882,-3.3882,-3.3868,-3.4005,-3.4142,-3.402,-3.402,-3.4142,-3.3969,-3.3965,-3.3816,-3.3862,-3.2904,-3.228,-3.2251,-3.1598,-3.1322,-3.1163,-3.0959,-3.0684,-3.0524,-3.051,-3.048,-3.0451,-3.0422,-3.0393,-3.0408,-3.0466,-3.048,-3.0642,-3.0628,-3.0219,-2.9668,-2.9087,-2.8507,-2.7868,-2.7447,-2.7152,-2.6957,-2.7015,-2.689,-2.6832,-2.6989,-2.7284,-2.7845,-2.8432,-2.878,-2.8974,-2.8326,-2.7611,-2.6895,-2.633,-2.617,-2.617,-2.6115,-2.6151,-2.6021,-2.6054,-2.6087,-2.6203,-2.6203,-2.5889,-3.6754,-3.6866,-3.695,-3.6978,-3.6978,-3.6978,-3.6978,-3.6978,-3.6978,-3.6978,-3.6978,-3.6978,-3.7134,-3.7226,-3.7303,-3.7534,-3.7701,-3.7701,-3.7915,-3.8066,-3.7976,-3.8066,-3.7991,-3.7915,-3.7915,-3.7991,-3.8066,-3.8127,-3.8202,-3.8202,-3.8202,-3.8202,-3.8127,-3.8066,-3.7832,-3.7616,-3.7428,-3.7046,-3.6442,-3.5697,-3.5354,-3.5068,-3.4522,-3.4218,-3.402,-3.3965,-3.3868,-3.3799,-3.3605,-3.3536,-3.3466,-3.3466,-3.3605,-3.3744,-3.3675,-3.3675,-3.3868,-3.3937,-3.3882,-3.3896,-3.3951,-3.4059,-3.4059,-3.4138,-3.4158,-3.3891,-3.3267,-3.2672,-3.2019,-3.154,-3.138,-3.1134,-3.0858,-3.0642,-3.0642,-3.0642,-3.0642,-3.0642,-3.0642,-3.0642,-3.0642,-3.0642,-3.0642,-3.0642,-3.0277,-2.974,-2.9189,-2.8565,-2.8071,-2.7908,-2.7632,-2.7448,-2.7384,-2.7214,-2.6943,-2.7078,-2.7372,-2.8027,-2.867,-2.8942,-2.8976,-2.8217,-2.759,-2.7097,-2.6652,-2.6175,-2.6026,-2.5954,-2.6026,-2.6201,-2.6203,-2.6203,-2.6203,-2.6203,-2.6203,-3.5874,-3.6276,-3.6768,-3.6964,-3.695,-3.6964,-3.6978,-3.6978,-3.6978,-3.6978,-3.6978,-3.6978,-3.7056,-3.7056,-3.7056,-3.7226,-3.7548,-3.7625,-3.7777,-3.7929,-3.7991,-3.8127,-3.8142,-3.7929,-3.7929,-3.7929,-3.7991,-3.8066,-3.8008,-3.8098,-3.8113,-3.7933,-3.8084,-3.7947,-3.772,-3.7505,-3.7379,-3.6896,-3.639,-3.5778,-3.5281,-3.4782,-3.3944,-3.3689,-3.3536,-3.3536,-3.3605,-3.3619,-3.3605,-3.3536,-3.348,-3.3396,-3.3466,-3.3605,-3.3605,-3.3536,-3.373,-3.3744,-3.3689,-3.3758,-3.3882,-3.402,-3.4074,-3.4196,-3.4259,-3.4327,-3.3746,-3.3253,-3.2629,-3.2019,-3.1743,-3.1395,-3.109,-3.0727,-3.0642,-3.0642,-3.0642,-3.0642,-3.0642,-3.0642,-3.0642,-3.0642,-3.0642,-3.0642,-3.0628,-3.0074,-2.9682,-2.9087,-2.8623,-2.8388,-2.8152,-2.7998,-2.7856,-2.7527,-2.7247,-2.7284,-2.761,-2.8319,-2.8871,-2.915,-2.8952,-2.8042,-2.7474,-2.7081,-2.6454,-2.5819,-2.5754,-2.6085,-2.6105,-2.6264,-2.6201,-2.6203,-2.6203,-2.6203,-2.6203]}]]